| time (UTC) | temp F | wind direction | speed knots | gust knots | rain 1hr in | rain 24hr in | rain mn in | humidity % | barometer mb |
| 20260510164229 | 76 | 37 | 0.0 | 2.6 | 0.00 | 1.52 | 0.00 | 90 | 1016.0 |
| 20260510164140 | 76 | 37 | 0.9 | 2.6 | 0.00 | 1.52 | 0.00 | 90 | 1016.0 |
| 20260510164059 | 76 | 37 | 0.9 | 2.6 | 0.00 | 1.52 | 0.00 | 90 | 1016.1 |
| 20260510163924 | 76 | 38 | 0.9 | 2.6 | 0.00 | 1.52 | 0.00 | 90 | 1016.0 |
| 20260510163838 | 76 | 41 | 0.9 | 2.6 | 0.00 | 1.52 | 0.00 | 90 | 1016.1 |
| 20260510163723 | 76 | 41 | 0.9 | 2.6 | 0.00 | 1.52 | 0.00 | 90 | 1016.1 |
| 20260510163649 | 76 | 41 | 0.9 | 2.6 | 0.00 | 1.52 | 0.00 | 90 | 1016.1 |
| 20260510163528 | 76 | 39 | 0.9 | 2.6 | 0.00 | 1.52 | 0.00 | 90 | 1016.1 |
| 20260510163435 | 76 | 39 | 0.9 | 2.6 | 0.00 | 1.52 | 0.00 | 90 | 1016.1 |
| 20260510163321 | 76 | 94 | 0.0 | 2.6 | 0.00 | 1.52 | 0.00 | 90 | 1016.2 |
| 20260510163227 | 76 | 93 | 0.9 | 2.6 | 0.00 | 1.52 | 0.00 | 90 | 1016.1 |
| 20260510163152 | 76 | 93 | 0.0 | 2.6 | 0.00 | 1.52 | 0.00 | 90 | 1016.2 |
| 20260510163028 | 76 | 38 | 0.0 | 2.6 | 0.00 | 1.52 | 0.00 | 90 | 1016.2 |
| 20260510162938 | 75 | 34 | 0.0 | 2.6 | 0.00 | 1.52 | 0.00 | 90 | 1016.2 |
| 20260510162825 | 75 | 34 | 0.0 | 2.6 | 0.00 | 1.52 | 0.00 | 91 | 1016.2 |
| 20260510162747 | 75 | 34 | 0.9 | 2.6 | 0.00 | 1.52 | 0.00 | 91 | 1016.2 |
| 20260510162639 | 75 | 33 | 0.9 | 2.6 | 0.00 | 1.52 | 0.00 | 91 | 1016.2 |
| 20260510162534 | 75 | 33 | 0.9 | 2.6 | 0.00 | 1.52 | 0.00 | 90 | 1016.2 |
| 20260510162426 | 75 | 46 | 0.9 | 2.6 | 0.00 | 1.52 | 0.00 | 91 | 1016.2 |
| 20260510162334 | 75 | 169 | 0.0 | 2.6 | 0.00 | 1.52 | 0.00 | 91 | 1016.2 |
| 20260510162248 | 75 | 169 | 0.0 | 2.6 | 0.00 | 1.52 | 0.00 | 91 | 1016.2 |
| 20260510162211 | 75 | 169 | 0.0 | 2.6 | 0.00 | 1.52 | 0.00 | 91 | 1016.1 |
| 20260510162025 | 75 | 319 | 0.9 | 2.6 | 0.00 | 1.52 | 0.00 | 91 | 1016.2 |
| 20260510161930 | 75 | 318 | 0.9 | 2.6 | 0.00 | 1.52 | 0.00 | 91 | 1016.2 |
| 20260510161836 | 75 | 310 | 0.9 | 2.6 | 0.00 | 1.52 | 0.00 | 91 | 1016.2 |
| 20260510161725 | 74 | 287 | 0.0 | 2.6 | 0.00 | 1.52 | 0.00 | 91 | 1016.2 |
| 20260510161650 | 74 | 287 | 0.0 | 2.6 | 0.00 | 1.52 | 0.00 | 91 | 1016.2 |
| 20260510161525 | 74 | 238 | 0.0 | 2.6 | 0.00 | 1.52 | 0.00 | 91 | 1016.2 |
| 20260510161439 | 74 | 238 | 0.0 | 2.6 | 0.00 | 1.52 | 0.00 | 91 | 1016.2 |
| 20260510161326 | 74 | 238 | 0.0 | 2.6 | 0.00 | 1.52 | 0.00 | 91 | 1016.3 |
| 20260510161227 | 74 | 238 | 0.0 | 2.6 | 0.00 | 1.52 | 0.00 | 91 | 1016.3 |
| 20260510161200 | 74 | 240 | 0.0 | 2.6 | 0.00 | 1.52 | 0.00 | 91 | 1016.3 |
| 20260510161103 | 74 | 240 | 0.9 | 2.6 | 0.00 | 1.52 | 0.00 | 91 | 1016.2 |
| 20260510160928 | 74 | 240 | 0.0 | 4.3 | 0.00 | 1.52 | 0.00 | 91 | 1016.3 |
| 20260510160834 | 74 | 351 | 0.0 | 4.3 | 0.00 | 1.56 | 0.00 | 91 | 1016.2 |
| 20260510160730 | 74 | 351 | 0.9 | 5.2 | 0.00 | 1.56 | 0.00 | 91 | 1016.3 |
| 20260510160645 | 74 | 351 | 0.0 | 5.2 | 0.00 | 1.56 | 0.00 | 90 | 1016.3 |
| 20260510160548 | 74 | 145 | 0.0 | 5.2 | 0.00 | 1.56 | 0.00 | 90 | 1016.3 |
| 20260510160453 | 74 | 145 | 0.0 | 5.2 | 0.00 | 1.56 | 0.00 | 90 | 1016.3 |
| 20260510160345 | 73 | 145 | 0.0 | 5.2 | 0.00 | 1.56 | 0.00 | 90 | 1016.4 |
| 20260510160230 | 74 | 145 | 0.9 | 5.2 | 0.00 | 1.56 | 0.00 | 91 | 1016.4 |
| 20260510160147 | 73 | 145 | 0.9 | 5.2 | 0.00 | 1.56 | 0.00 | 91 | 1016.3 |
| 20260510160025 | 73 | 142 | 1.7 | 5.2 | 0.00 | 1.56 | 0.00 | 91 | 1016.3 |
| 20260510155937 | 74 | 155 | 1.7 | 5.2 | 0.00 | 1.56 | 0.00 | 91 | 1016.3 |
| 20260510155826 | 74 | 173 | 0.9 | 6.1 | 0.00 | 1.56 | 0.00 | 91 | 1016.2 |
| 20260510155723 | 73 | 110 | 0.9 | 2.6 | 0.00 | 1.56 | 0.00 | 91 | 1016.3 |
| 20260510155656 | 74 | 110 | 0.9 | 2.6 | 0.00 | 1.56 | 0.00 | 91 | 1016.2 |
| 20260510155531 | 73 | 59 | 0.9 | 2.6 | 0.00 | 1.56 | 0.00 | 91 | 1016.3 |
| 20260510155422 | 73 | 182 | 0.0 | 3.5 | 0.00 | 1.56 | 0.00 | 91 | 1016.2 |
| 20260510155356 | 73 | 189 | 0.0 | 3.5 | 0.00 | 1.56 | 0.00 | 91 | 1016.3 |
| 20260510155230 | 73 | 88 | 0.0 | 3.5 | 0.00 | 1.56 | 0.00 | 91 | 1016.3 |
| 20260510155143 | 73 | 88 | 0.9 | 3.5 | 0.00 | 1.56 | 0.00 | 91 | 1016.3 |
| 20260510155038 | 73 | 91 | 0.9 | 3.5 | 0.00 | 1.56 | 0.00 | 91 | 1016.3 |
| 20260510154924 | 73 | 101 | 0.9 | 3.5 | 0.00 | 1.56 | 0.00 | 91 | 1016.3 |
| 20260510154841 | 73 | 101 | 0.0 | 3.5 | 0.00 | 1.56 | 0.00 | 91 | 1016.3 |
| 20260510154728 | 73 | 175 | 0.9 | 3.5 | 0.00 | 1.56 | 0.00 | 91 | 1016.3 |
| 20260510154713 | 73 | 175 | 0.9 | 3.5 | 0.00 | 1.56 | 0.00 | 91 | 1016.2 |
| 20260510154528 | 73 | 174 | 0.9 | 4.3 | 0.00 | 1.56 | 0.00 | 91 | 1016.3 |
| 20260510154453 | 73 | 27 | 0.9 | 4.3 | 0.00 | 1.56 | 0.00 | 91 | 1016.2 |
| 20260510154346 | 73 | 24 | 0.9 | 7.0 | 0.00 | 1.56 | 0.00 | 91 | 1016.2 |
| 20260510154227 | 73 | 36 | 0.0 | 7.0 | 0.00 | 1.56 | 0.00 | 91 | 1016.3 |
| 20260510154132 | 73 | 36 | 0.0 | 7.0 | 0.00 | 1.56 | 0.00 | 91 | 1016.2 |
| 20260510154034 | 73 | 36 | 0.0 | 7.0 | 0.00 | 1.56 | 0.00 | 91 | 1016.2 |
| 20260510153921 | 73 | 36 | 0.0 | 7.0 | 0.00 | 1.56 | 0.00 | 91 | 1016.3 |
| 20260510153827 | 73 | 36 | 0.0 | 7.0 | 0.00 | 1.56 | 0.00 | 91 | 1016.3 |
| 20260510153731 | 73 | 36 | 0.9 | 7.0 | 0.00 | 1.56 | 0.00 | 91 | 1016.3 |
| 20260510153703 | 73 | 36 | 1.7 | 7.0 | 0.00 | 1.56 | 0.00 | 91 | 1016.3 |
| 20260510153544 | 73 | 30 | 1.7 | 7.0 | 0.00 | 1.56 | 0.00 | 91 | 1016.3 |
| 20260510153430 | 73 | 5 | 2.6 | 4.3 | 0.00 | 1.56 | 0.00 | 91 | 1016.3 |
| 20260510153337 | 73 | 53 | 1.7 | 3.5 | 0.00 | 1.56 | 0.00 | 91 | 1016.3 |
| 20260510153223 | 73 | 51 | 0.9 | 4.3 | 0.00 | 1.56 | 0.00 | 91 | 1016.3 |
| 20260510153148 | 73 | 55 | 0.9 | 4.3 | 0.00 | 1.56 | 0.00 | 91 | 1016.3 |
| 20260510153027 | 73 | 52 | 0.9 | 4.3 | 0.00 | 1.56 | 0.00 | 91 | 1016.4 |
| 20260510152941 | 73 | 50 | 0.9 | 4.3 | 0.00 | 1.56 | 0.00 | 91 | 1016.4 |
| 20260510152828 | 73 | 152 | 0.9 | 4.3 | 0.00 | 1.56 | 0.00 | 91 | 1016.3 |
| 20260510152724 | 72 | 152 | 0.9 | 4.3 | 0.00 | 1.56 | 0.00 | 91 | 1016.4 |
| 20260510152657 | 72 | 21 | 0.0 | 3.5 | 0.00 | 1.56 | 0.00 | 91 | 1016.4 |
| 20260510152536 | 72 | 21 | 0.0 | 3.5 | 0.00 | 1.56 | 0.00 | 91 | 1016.4 |
| 20260510152423 | 72 | 21 | 0.9 | 3.5 | 0.00 | 1.56 | 0.00 | 91 | 1016.4 |
| 20260510152330 | 72 | 21 | 0.9 | 3.5 | 0.00 | 1.56 | 0.00 | 91 | 1016.4 |
| 20260510152242 | 72 | 154 | 0.0 | 3.5 | 0.00 | 1.56 | 0.00 | 91 | 1016.5 |
| 20260510152138 | 72 | 159 | 0.0 | 3.5 | 0.00 | 1.56 | 0.00 | 91 | 1016.4 |
| 20260510152039 | 72 | 159 | 0.0 | 3.5 | 0.00 | 1.56 | 0.00 | 91 | 1016.5 |
| 20260510151929 | 72 | 34 | 0.9 | 3.5 | 0.00 | 1.56 | 0.00 | 91 | 1016.4 |
| 20260510151836 | 72 | 29 | 0.9 | 3.5 | 0.00 | 1.56 | 0.00 | 91 | 1016.5 |
| 20260510151721 | 72 | 31 | 0.9 | 3.5 | 0.00 | 1.56 | 0.00 | 91 | 1016.4 |
| 20260510151645 | 72 | 30 | 0.9 | 3.5 | 0.00 | 1.56 | 0.00 | 91 | 1016.4 |
| 20260510151521 | 72 | 158 | 0.9 | 3.5 | 0.00 | 1.56 | 0.00 | 91 | 1016.4 |
| 20260510151432 | 72 | 158 | 0.9 | 3.5 | 0.00 | 1.56 | 0.00 | 91 | 1016.5 |
| 20260510151345 | 72 | 158 | 0.9 | 3.5 | 0.00 | 1.56 | 0.00 | 91 | 1016.5 |
| 20260510151230 | 72 | 35 | 0.0 | 3.5 | 0.00 | 1.56 | 0.00 | 91 | 1016.5 |
| 20260510151147 | 72 | 34 | 0.0 | 3.5 | 0.00 | 1.56 | 0.00 | 91 | 1016.4 |
| 20260510151022 | 72 | 34 | 0.9 | 3.5 | 0.00 | 1.56 | 0.00 | 91 | 1016.5 |
| 20260510150935 | 72 | 34 | 1.7 | 3.5 | 0.00 | 1.56 | 0.00 | 91 | 1016.5 |
| 20260510150825 | 72 | 26 | 1.7 | 3.5 | 0.00 | 1.59 | 0.00 | 91 | 1016.5 |
| 20260510150722 | 72 | 34 | 0.9 | 3.5 | 0.00 | 1.59 | 0.00 | 91 | 1016.4 |
| 20260510150654 | 72 | 34 | 0.9 | 3.5 | 0.00 | 1.59 | 0.00 | 91 | 1016.4 |
| 20260510150528 | 72 | 34 | 0.0 | 3.5 | 0.00 | 1.59 | 0.00 | 91 | 1016.4 |
| 20260510150503 | 72 | 32 | 0.0 | 3.5 | 0.00 | 1.59 | 0.00 | 91 | 1016.4 |
| 20260510150333 | 71 | 32 | 0.0 | 3.5 | 0.00 | 1.59 | 0.00 | 91 | 1016.4 |
| 20260510150250 | 71 | 32 | 0.0 | 3.5 | 0.00 | 1.59 | 0.00 | 91 | 1016.4 |
| 20260510150140 | 71 | 32 | 0.9 | 3.5 | 0.00 | 1.59 | 0.00 | 91 | 1016.4 |
| 20260510150103 | 71 | 32 | 0.9 | 3.5 | 0.00 | 1.59 | 0.00 | 91 | 1016.4 |
| 20260510145929 | 71 | 34 | 1.7 | 3.5 | 0.00 | 1.59 | 0.00 | 91 | 1016.4 |
| 20260510145837 | 71 | 28 | 1.7 | 3.5 | 0.00 | 1.59 | 0.00 | 91 | 1016.4 |
| 20260510145727 | 71 | 33 | 0.9 | 3.5 | 0.00 | 1.59 | 0.00 | 91 | 1016.5 |
| 20260510145651 | 71 | 33 | 0.9 | 3.5 | 0.00 | 1.59 | 0.00 | 91 | 1016.4 |
| 20260510145528 | 71 | 171 | 0.0 | 3.5 | 0.00 | 1.59 | 0.00 | 91 | 1016.4 |
| 20260510145433 | 71 | 171 | 0.0 | 3.5 | 0.00 | 1.59 | 0.00 | 91 | 1016.4 |
| 20260510145346 | 71 | 171 | 0.9 | 3.5 | 0.00 | 1.59 | 0.00 | 91 | 1016.4 |
| 20260510145243 | 71 | 171 | 0.9 | 4.3 | 0.00 | 1.59 | 0.00 | 91 | 1016.4 |
| 20260510145138 | 71 | 173 | 0.9 | 3.5 | 0.00 | 1.59 | 0.00 | 91 | 1016.4 |
| 20260510145033 | 71 | 173 | 0.9 | 3.5 | 0.00 | 1.59 | 0.00 | 91 | 1016.4 |
| 20260510144940 | 71 | 175 | 0.9 | 3.5 | 0.00 | 1.59 | 0.00 | 91 | 1016.3 |
| 20260510144825 | 71 | 59 | 0.0 | 1.7 | 0.00 | 1.59 | 0.00 | 91 | 1016.4 |
| 20260510144729 | 71 | 59 | 0.0 | 1.7 | 0.00 | 1.59 | 0.00 | 91 | 1016.3 |
| 20260510144635 | 71 | 59 | 0.0 | 1.7 | 0.00 | 1.59 | 0.00 | 91 | 1016.4 |
| 20260510144542 | 71 | 59 | 0.0 | 3.5 | 0.00 | 1.59 | 0.00 | 91 | 1016.4 |
| 20260510144429 | 71 | 59 | 0.0 | 3.5 | 0.00 | 1.59 | 0.00 | 91 | 1016.4 |
| 20260510144337 | 71 | 59 | 0.0 | 3.5 | 0.00 | 1.59 | 0.00 | 91 | 1016.4 |
| 20260510144223 | 71 | 59 | 0.0 | 3.5 | 0.00 | 1.59 | 0.00 | 91 | 1016.4 |
| 20260510144147 | 71 | 59 | 0.0 | 3.5 | 0.00 | 1.59 | 0.00 | 91 | 1016.4 |
| 20260510144027 | 71 | 59 | 0.0 | 3.5 | 0.00 | 1.59 | 0.00 | 91 | 1016.4 |
| 20260510143932 | 71 | 59 | 0.9 | 3.5 | 0.00 | 1.59 | 0.00 | 91 | 1016.4 |
| 20260510143845 | 71 | 59 | 0.9 | 3.5 | 0.00 | 1.59 | 0.00 | 91 | 1016.4 |
| 20260510143731 | 71 | 59 | 1.7 | 3.5 | 0.00 | 1.59 | 0.00 | 91 | 1016.4 |
| 20260510143647 | 71 | 61 | 0.9 | 3.5 | 0.00 | 1.59 | 0.00 | 91 | 1016.4 |
| 20260510143525 | 71 | 15 | 0.9 | 2.6 | 0.00 | 1.59 | 0.00 | 91 | 1016.4 |
| 20260510143438 | 71 | 15 | 0.9 | 2.6 | 0.00 | 1.59 | 0.00 | 91 | 1016.4 |
| 20260510143324 | 71 | 15 | 0.9 | 2.6 | 0.00 | 1.59 | 0.00 | 91 | 1016.4 |
| 20260510143221 | 71 | 13 | 0.0 | 1.7 | 0.00 | 1.59 | 0.00 | 91 | 1016.4 |
| 20260510143155 | 71 | 13 | 0.0 | 1.7 | 0.00 | 1.59 | 0.00 | 91 | 1016.5 |
| 20260510143029 | 71 | 14 | 0.0 | 1.7 | 0.00 | 1.59 | 0.00 | 91 | 1016.4 |
| 20260510143002 | 71 | 13 | 0.0 | 1.7 | 0.00 | 1.59 | 0.00 | 91 | 1016.5 |
| 20260510142832 | 71 | 13 | 0.0 | 1.7 | 0.00 | 1.59 | 0.00 | 91 | 1016.5 |
| 20260510142728 | 71 | 13 | 0.0 | 1.7 | 0.00 | 1.59 | 0.00 | 91 | 1016.5 |
| 20260510142640 | 71 | 13 | 0.9 | 1.7 | 0.00 | 1.59 | 0.00 | 91 | 1016.5 |
| 20260510142535 | 71 | 13 | 0.0 | 0.9 | 0.00 | 1.59 | 0.00 | 91 | 1016.5 |
| 20260510142450 | 71 | 13 | 0.0 | 0.9 | 0.00 | 1.59 | 0.00 | 91 | 1016.5 |
| 20260510142332 | 71 | 13 | 0.0 | 1.7 | 0.00 | 1.59 | 0.00 | 91 | 1016.5 |
| 20260510142222 | 71 | 13 | 0.0 | 1.7 | 0.00 | 1.59 | 0.00 | 91 | 1016.5 |
| 20260510142146 | 71 | 13 | 0.0 | 1.7 | 0.00 | 1.59 | 0.00 | 91 | 1016.5 |
| 20260510142022 | 70 | 13 | 0.0 | 1.7 | 0.00 | 1.59 | 0.00 | 91 | 1016.5 |
| 20260510141929 | 70 | 13 | 0.0 | 1.7 | 0.00 | 1.59 | 0.00 | 91 | 1016.4 |
| 20260510141842 | 70 | 13 | 0.0 | 1.7 | 0.00 | 1.59 | 0.00 | 91 | 1016.4 |
| 20260510141724 | 70 | 13 | 0.0 | 3.5 | 0.00 | 1.59 | 0.00 | 91 | 1016.4 |
| 20260510141650 | 70 | 13 | 0.0 | 3.5 | 0.00 | 1.59 | 0.00 | 91 | 1016.3 |
| 20260510141523 | 70 | 13 | 0.0 | 3.5 | 0.00 | 1.59 | 0.00 | 91 | 1016.3 |
| 20260510141436 | 70 | 13 | 0.9 | 3.5 | 0.00 | 1.59 | 0.00 | 91 | 1016.3 |
| 20260510141324 | 70 | 13 | 0.0 | 3.5 | 0.00 | 1.59 | 0.00 | 91 | 1016.3 |
| 20260510141245 | 70 | 11 | 0.0 | 3.5 | 0.00 | 1.59 | 0.00 | 91 | 1016.4 |
| 20260510141133 | 70 | 11 | 0.0 | 3.5 | 0.00 | 1.59 | 0.00 | 91 | 1016.4 |
| 20260510141028 | 70 | 11 | 0.9 | 3.5 | 0.00 | 1.59 | 0.00 | 91 | 1016.4 |
| 20260510140942 | 70 | 12 | 1.7 | 3.5 | 0.00 | 1.59 | 0.00 | 91 | 1016.4 |
| 20260510140830 | 70 | 11 | 0.9 | 3.5 | 0.00 | 2.30 | 0.00 | 91 | 1016.4 |
| 20260510140726 | 70 | 23 | 0.9 | 3.5 | 0.00 | 2.30 | 0.00 | 91 | 1016.4 |
| 20260510140644 | 70 | 49 | 0.9 | 3.5 | 0.00 | 2.30 | 0.00 | 91 | 1016.4 |
| 20260510140559 | 70 | 50 | 0.9 | 3.5 | 0.00 | 2.30 | 0.00 | 91 | 1016.4 |
| 20260510140430 | 70 | 50 | 0.0 | 3.5 | 0.00 | 2.30 | 0.00 | 91 | 1016.4 |
| 20260510140336 | 70 | 50 | 0.0 | 3.5 | 0.00 | 2.30 | 0.00 | 91 | 1016.4 |
| 20260510140250 | 70 | 50 | 0.0 | 3.5 | 0.00 | 2.30 | 0.00 | 91 | 1016.4 |
| 20260510140146 | 70 | 50 | 0.0 | 3.5 | 0.00 | 2.30 | 0.00 | 91 | 1016.4 |
| 20260510140025 | 70 | 50 | 0.9 | 3.5 | 0.00 | 2.30 | 0.00 | 91 | 1016.3 |
| 20260510135939 | 70 | 50 | 1.7 | 3.5 | 0.00 | 2.30 | 0.00 | 91 | 1016.3 |
| 20260510135826 | 70 | 48 | 1.7 | 3.5 | 0.00 | 2.30 | 0.00 | 91 | 1016.3 |
| 20260510135722 | 70 | 355 | 0.9 | 3.5 | 0.00 | 2.30 | 0.00 | 91 | 1016.3 |
| 20260510135655 | 70 | 351 | 0.9 | 3.5 | 0.00 | 2.30 | 0.00 | 91 | 1016.3 |
| 20260510135530 | 70 | 348 | 0.9 | 3.5 | 0.00 | 2.30 | 0.00 | 91 | 1016.3 |
| 20260510135440 | 70 | 42 | 1.7 | 3.5 | 0.00 | 2.30 | 0.00 | 91 | 1016.3 |
| 20260510135333 | 70 | 46 | 1.7 | 3.5 | 0.00 | 2.30 | 0.00 | 91 | 1016.2 |
| 20260510135230 | 70 | 38 | 0.9 | 2.6 | 0.00 | 2.30 | 0.00 | 91 | 1016.2 |
| 20260510135203 | 70 | 31 | 0.0 | 2.6 | 0.00 | 2.30 | 0.00 | 91 | 1016.2 |
| 20260510135036 | 70 | 32 | 0.0 | 2.6 | 0.00 | 2.30 | 0.00 | 91 | 1016.2 |
| 20260510134924 | 70 | 32 | 0.0 | 2.6 | 0.00 | 2.30 | 0.00 | 91 | 1016.2 |
| 20260510134835 | 70 | 32 | 0.0 | 2.6 | 0.00 | 2.30 | 0.00 | 91 | 1016.2 |
| 20260510134720 | 70 | 32 | 0.0 | 2.6 | 0.00 | 2.30 | 0.00 | 91 | 1016.2 |
| 20260510134643 | 70 | 32 | 0.0 | 2.6 | 0.00 | 2.30 | 0.00 | 91 | 1016.2 |
| 20260510134605 | 70 | 32 | 0.0 | 2.6 | 0.00 | 2.30 | 0.00 | 91 | 1016.2 |
| 20260510134430 | 69 | 32 | 0.0 | 2.6 | 0.00 | 2.30 | 0.00 | 91 | 1016.2 |
| 20260510134335 | 69 | 32 | 0.0 | 2.6 | 0.00 | 2.30 | 0.00 | 91 | 1016.2 |
| 20260510134224 | 69 | 32 | 0.0 | 0.9 | 0.00 | 2.30 | 0.00 | 91 | 1016.1 |
| 20260510134148 | 69 | 34 | 0.0 | 0.0 | 0.00 | 2.30 | 0.00 | 91 | 1016.1 |
| 20260510134042 | 69 | 34 | 0.0 | 0.0 | 0.00 | 2.30 | 0.00 | 91 | 1016.2 |
| 20260510133935 | 69 | 34 | 0.0 | 0.0 | 0.00 | 2.30 | 0.00 | 91 | 1016.2 |
| 20260510133822 | 69 | 34 | 0.0 | 0.0 | 0.00 | 2.30 | 0.00 | 91 | 1016.1 |
| 20260510133723 | 69 | 34 | 0.0 | 0.0 | 0.00 | 2.30 | 0.00 | 91 | 1016.1 |
| 20260510133636 | 69 | 34 | 0.0 | 0.0 | 0.00 | 2.30 | 0.00 | 91 | 1016.1 |
| 20260510133532 | 69 | 34 | 0.0 | 0.0 | 0.00 | 2.30 | 0.00 | 91 | 1016.1 |
| 20260510133438 | 69 | 34 | 0.0 | 0.0 | 0.00 | 2.30 | 0.00 | 91 | 1016.1 |
| 20260510133323 | 69 | 34 | 0.0 | 0.0 | 0.00 | 2.30 | 0.00 | 91 | 1016.1 |
| 20260510133227 | 69 | 34 | 0.0 | 0.0 | 0.00 | 2.30 | 0.00 | 91 | 1016.1 |
| 20260510133144 | 69 | 34 | 0.0 | 0.0 | 0.00 | 2.30 | 0.00 | 91 | 1016.1 |
| 20260510133059 | 69 | 34 | 0.0 | 0.0 | 0.00 | 2.30 | 0.00 | 91 | 1016.1 |
| 20260510132953 | 69 | 34 | 0.0 | 0.0 | 0.00 | 2.30 | 0.00 | 91 | 1016.1 |
| 20260510132839 | 69 | 34 | 0.0 | 0.9 | 0.00 | 2.30 | 0.00 | 91 | 1016.0 |
| 20260510132724 | 69 | 34 | 0.0 | 0.9 | 0.00 | 2.30 | 0.00 | 91 | 1016.0 |
| 20260510132648 | 69 | 34 | 0.0 | 0.9 | 0.00 | 2.30 | 0.00 | 91 | 1016.0 |
| 20260510132525 | 69 | 34 | 0.0 | 1.7 | 0.00 | 2.30 | 0.00 | 91 | 1016.0 |
| 20260510132459 | 69 | 34 | 0.0 | 1.7 | 0.00 | 2.30 | 0.00 | 91 | 1016.0 |
| 20260510132324 | 69 | 34 | 0.0 | 1.7 | 0.00 | 2.30 | 0.00 | 91 | 1015.9 |
| 20260510132223 | 69 | 34 | 0.0 | 1.7 | 0.00 | 2.30 | 0.00 | 91 | 1015.9 |
| 20260510132133 | 69 | 34 | 0.0 | 1.7 | 0.00 | 2.30 | 0.00 | 91 | 1015.9 |
| 20260510132037 | 69 | 34 | 0.0 | 1.7 | 0.00 | 2.30 | 0.00 | 91 | 1015.9 |
| 20260510131927 | 69 | 34 | 0.0 | 1.7 | 0.00 | 2.30 | 0.00 | 91 | 1015.9 |
| 20260510131836 | 69 | 34 | 0.0 | 1.7 | 0.00 | 2.30 | 0.00 | 91 | 1015.9 |
| 20260510131721 | 68 | 34 | 0.9 | 1.7 | 0.00 | 2.30 | 0.00 | 91 | 1015.9 |
| 20260510131646 | 68 | 33 | 0.9 | 1.7 | 0.00 | 2.30 | 0.00 | 91 | 1015.9 |
| 20260510131521 | 68 | 33 | 0.0 | 0.9 | 0.00 | 2.30 | 0.00 | 91 | 1015.8 |
| 20260510131427 | 68 | 33 | 0.0 | 0.9 | 0.00 | 2.30 | 0.00 | 91 | 1015.8 |
| 20260510131346 | 68 | 33 | 0.0 | 2.6 | 0.00 | 2.30 | 0.00 | 91 | 1015.8 |
| 20260510131223 | 68 | 33 | 0.0 | 2.6 | 0.00 | 2.30 | 0.00 | 91 | 1015.8 |
| 20260510131148 | 68 | 33 | 0.0 | 2.6 | 0.00 | 2.30 | 0.00 | 91 | 1015.7 |
| 20260510131024 | 68 | 33 | 0.0 | 2.6 | 0.00 | 2.30 | 0.00 | 91 | 1015.8 |
| 20260510130937 | 68 | 33 | 0.0 | 2.6 | 0.00 | 2.30 | 0.00 | 91 | 1015.7 |
| 20260510130847 | 68 | 33 | 0.0 | 2.6 | 0.00 | 3.21 | 0.00 | 91 | 1015.8 |
| 20260510130722 | 68 | 33 | 0.0 | 2.6 | 0.00 | 3.21 | 0.00 | 91 | 1015.8 |
| 20260510130655 | 68 | 33 | 0.0 | 2.6 | 0.00 | 3.21 | 0.00 | 91 | 1015.7 |
| 20260510130558 | 68 | 33 | 0.9 | 2.6 | 0.00 | 3.21 | 0.00 | 91 | 1015.8 |
| 20260510130421 | 68 | 33 | 0.0 | 2.6 | 0.00 | 3.21 | 0.00 | 91 | 1015.6 |
| 20260510130354 | 68 | 33 | 0.0 | 0.9 | 0.00 | 3.21 | 0.00 | 91 | 1015.6 |
| 20260510130251 | 68 | 33 | 0.0 | 0.9 | 0.00 | 3.21 | 0.00 | 91 | 1015.6 |
| 20260510130143 | 68 | 33 | 0.0 | 0.9 | 0.00 | 3.21 | 0.00 | 91 | 1015.7 |
| 20260510130021 | 68 | 33 | 0.0 | 1.7 | 0.00 | 3.21 | 0.00 | 91 | 1015.7 |
| 20260510125956 | 68 | 33 | 0.0 | 1.7 | 0.00 | 3.21 | 0.00 | 91 | 1015.7 |
| 20260510125822 | 68 | 33 | 0.0 | 1.7 | 0.00 | 3.21 | 0.00 | 91 | 1015.7 |
| 20260510125733 | 68 | 33 | 0.0 | 1.7 | 0.00 | 3.21 | 0.00 | 91 | 1015.6 |
| 20260510125651 | 68 | 33 | 0.0 | 1.7 | 0.00 | 3.21 | 0.00 | 91 | 1015.6 |
| 20260510125525 | 68 | 33 | 0.0 | 1.7 | 0.00 | 3.21 | 0.00 | 91 | 1015.6 |
| 20260510125442 | 68 | 33 | 0.0 | 1.7 | 0.00 | 3.21 | 0.00 | 91 | 1015.6 |
| 20260510125329 | 68 | 33 | 0.0 | 1.7 | 0.00 | 3.21 | 0.00 | 91 | 1015.6 |
| 20260510125226 | 68 | 33 | 0.0 | 1.7 | 0.00 | 3.21 | 0.00 | 91 | 1015.5 |
| 20260510125139 | 68 | 32 | 0.0 | 1.7 | 0.00 | 3.21 | 0.00 | 91 | 1015.5 |
| 20260510125035 | 68 | 32 | 0.0 | 0.9 | 0.00 | 3.21 | 0.00 | 91 | 1015.5 |
| 20260510124924 | 68 | 32 | 0.0 | 0.9 | 0.00 | 3.21 | 0.00 | 91 | 1015.4 |
| 20260510124838 | 68 | 32 | 0.0 | 0.9 | 0.00 | 3.21 | 0.00 | 91 | 1015.4 |
| 20260510124723 | 68 | 32 | 0.0 | 0.9 | 0.00 | 3.21 | 0.00 | 91 | 1015.4 |
| 20260510124645 | 68 | 32 | 0.0 | 1.7 | 0.00 | 3.21 | 0.00 | 91 | 1015.4 |
| 20260510124521 | 68 | 32 | 0.0 | 1.7 | 0.00 | 3.21 | 0.00 | 91 | 1015.4 |
| 20260510124427 | 68 | 32 | 0.0 | 1.7 | 0.00 | 3.21 | 0.00 | 91 | 1015.4 |
| 20260510124341 | 68 | 32 | 0.0 | 1.7 | 0.00 | 3.21 | 0.00 | 91 | 1015.4 |
| 20260510124222 | 68 | 32 | 0.0 | 1.7 | 0.00 | 3.21 | 0.00 | 91 | 1015.4 |
| 20260510124155 | 68 | 32 | 0.0 | 1.7 | 0.00 | 3.21 | 0.00 | 91 | 1015.4 |
| 20260510124030 | 68 | 32 | 0.0 | 1.7 | 0.00 | 3.21 | 0.00 | 91 | 1015.3 |
| 20260510123957 | 68 | 32 | 0.0 | 1.7 | 0.00 | 3.21 | 0.00 | 91 | 1015.3 |
| 20260510123829 | 68 | 32 | 0.9 | 2.6 | 0.00 | 3.21 | 0.00 | 91 | 1015.3 |
| 20260510123730 | 68 | 32 | 0.9 | 2.6 | 0.00 | 3.21 | 0.00 | 91 | 1015.3 |
| 20260510123643 | 68 | 32 | 0.9 | 2.6 | 0.00 | 3.21 | 0.00 | 91 | 1015.3 |
| 20260510123539 | 68 | 32 | 0.9 | 2.6 | 0.00 | 3.21 | 0.00 | 91 | 1015.3 |
| 20260510123426 | 68 | 31 | 0.0 | 2.6 | 0.00 | 3.21 | 0.00 | 91 | 1015.3 |
| 20260510123332 | 68 | 31 | 0.0 | 2.6 | 0.00 | 3.21 | 0.00 | 91 | 1015.3 |
| 20260510123228 | 68 | 31 | 0.0 | 2.6 | 0.00 | 3.21 | 0.00 | 91 | 1015.3 |
| 20260510123144 | 68 | 31 | 0.9 | 2.6 | 0.00 | 3.21 | 0.00 | 91 | 1015.2 |
| 20260510123048 | 68 | 31 | 0.9 | 2.6 | 0.00 | 3.21 | 0.00 | 91 | 1015.2 |
| 20260510122934 | 68 | 30 | 0.9 | 2.6 | 0.00 | 3.21 | 0.00 | 91 | 1015.2 |
| 20260510122821 | 68 | 30 | 0.9 | 2.6 | 0.00 | 3.21 | 0.00 | 91 | 1015.2 |
| 20260510122728 | 68 | 30 | 0.9 | 1.7 | 0.00 | 3.21 | 0.00 | 90 | 1015.2 |
| 20260510122712 | 68 | 30 | 0.0 | 1.7 | 0.00 | 3.21 | 0.00 | 90 | 1015.2 |
| 20260510122528 | 68 | 30 | 0.0 | 2.6 | 0.00 | 3.21 | 0.00 | 91 | 1015.1 |
| 20260510122442 | 68 | 30 | 0.0 | 2.6 | 0.00 | 3.21 | 0.00 | 91 | 1015.2 |
| 20260510122327 | 68 | 30 | 0.0 | 2.6 | 0.00 | 3.21 | 0.00 | 90 | 1015.1 |
| 20260510122222 | 68 | 30 | 0.0 | 2.6 | 0.00 | 3.21 | 0.00 | 90 | 1015.1 |
| 20260510122134 | 68 | 30 | 0.0 | 2.6 | 0.00 | 3.21 | 0.00 | 90 | 1015.1 |
| 20260510122030 | 68 | 30 | 0.0 | 2.6 | 0.00 | 3.21 | 0.00 | 90 | 1015.0 |
| 20260510121921 | 68 | 30 | 0.0 | 2.6 | 0.00 | 3.21 | 0.00 | 90 | 1015.0 |
| 20260510121835 | 68 | 30 | 0.0 | 2.6 | 0.00 | 3.21 | 0.00 | 90 | 1015.0 |
| 20260510121721 | 68 | 30 | 0.9 | 2.6 | 0.00 | 3.21 | 0.00 | 90 | 1015.0 |
| 20260510121637 | 68 | 30 | 0.9 | 2.6 | 0.00 | 3.21 | 0.00 | 90 | 1015.0 |
| 20260510121539 | 68 | 28 | 0.9 | 2.6 | 0.00 | 3.21 | 0.00 | 90 | 1014.9 |
| 20260510121429 | 68 | 28 | 0.9 | 2.6 | 0.00 | 3.21 | 0.00 | 90 | 1014.9 |
| 20260510121336 | 68 | 27 | 0.9 | 2.6 | 0.00 | 3.21 | 0.00 | 90 | 1014.8 |
| 20260510121223 | 68 | 27 | 0.9 | 1.7 | 0.00 | 3.21 | 0.00 | 90 | 1014.8 |
| 20260510121146 | 68 | 27 | 0.9 | 1.7 | 0.00 | 3.21 | 0.00 | 90 | 1014.8 |
| 20260510121023 | 68 | 28 | 0.9 | 2.6 | 0.00 | 3.21 | 0.00 | 90 | 1014.8 |
| 20260510120933 | 68 | 28 | 0.0 | 3.5 | 0.00 | 3.21 | 0.00 | 90 | 1014.8 |
| 20260510120847 | 68 | 28 | 0.0 | 3.5 | 0.00 | 3.48 | 0.00 | 90 | 1014.8 |
| 20260510120731 | 68 | 28 | 0.0 | 3.5 | 0.00 | 3.48 | 0.00 | 90 | 1014.8 |
| 20260510120650 | 68 | 28 | 0.9 | 3.5 | 0.00 | 3.48 | 0.00 | 90 | 1014.7 |
| 20260510120524 | 68 | 28 | 0.9 | 3.5 | 0.00 | 3.48 | 0.00 | 90 | 1014.8 |
| 20260510120438 | 68 | 26 | 0.0 | 3.5 | 0.00 | 3.48 | 0.00 | 90 | 1014.7 |
| 20260510120327 | 68 | 26 | 0.9 | 3.5 | 0.00 | 3.48 | 0.00 | 90 | 1014.7 |
| 20260510120224 | 68 | 26 | 0.9 | 3.5 | 0.00 | 3.48 | 0.00 | 90 | 1014.7 |
| 20260510120137 | 68 | 26 | 0.9 | 3.5 | 0.00 | 3.48 | 0.00 | 90 | 1014.7 |
| 20260510120030 | 68 | 25 | 0.0 | 1.7 | 0.00 | 3.48 | 0.00 | 90 | 1014.7 |
| 20260510115944 | 68 | 25 | 0.0 | 1.7 | 0.00 | 3.48 | 0.00 | 90 | 1014.6 |
| 20260510115835 | 68 | 25 | 0.0 | 1.7 | 0.00 | 3.48 | 0.00 | 90 | 1014.5 |
| 20260510115721 | 68 | 25 | 0.0 | 1.7 | 0.00 | 3.48 | 0.00 | 90 | 1014.6 |
| 20260510115645 | 68 | 25 | 0.0 | 1.7 | 0.00 | 3.48 | 0.00 | 90 | 1014.5 |
| 20260510115521 | 68 | 25 | 0.0 | 1.7 | 0.00 | 3.48 | 0.00 | 90 | 1014.5 |
| 20260510115426 | 68 | 25 | 0.0 | 1.7 | 0.00 | 3.48 | 0.00 | 90 | 1014.4 |
| 20260510115340 | 68 | 25 | 0.0 | 1.7 | 0.00 | 3.48 | 0.00 | 90 | 1014.4 |
| 20260510115223 | 68 | 25 | 0.0 | 1.7 | 0.00 | 3.48 | 0.00 | 90 | 1014.4 |
| 20260510115147 | 68 | 25 | 0.0 | 1.7 | 0.00 | 3.48 | 0.00 | 90 | 1014.4 |
| 20260510115022 | 68 | 25 | 0.9 | 1.7 | 0.00 | 3.48 | 0.00 | 90 | 1014.4 |
| 20260510114935 | 68 | 25 | 0.0 | 1.7 | 0.00 | 3.48 | 0.00 | 90 | 1014.3 |
| 20260510114823 | 68 | 25 | 0.0 | 0.9 | 0.00 | 3.48 | 0.00 | 90 | 1014.3 |
| 20260510114724 | 68 | 25 | 0.0 | 0.9 | 0.00 | 3.48 | 0.00 | 90 | 1014.3 |
| 20260510114658 | 68 | 25 | 0.0 | 0.9 | 0.00 | 3.48 | 0.00 | 90 | 1014.3 |
| 20260510114532 | 68 | 25 | 0.0 | 0.9 | 0.00 | 3.48 | 0.00 | 90 | 1014.3 |
| 20260510114425 | 68 | 25 | 0.0 | 1.7 | 0.00 | 3.48 | 0.00 | 90 | 1014.3 |
| 20260510114332 | 68 | 25 | 0.0 | 1.7 | 0.00 | 3.48 | 0.00 | 90 | 1014.2 |
| 20260510114227 | 68 | 25 | 0.0 | 1.7 | 0.00 | 3.48 | 0.00 | 90 | 1014.2 |
| 20260510114138 | 68 | 25 | 0.0 | 1.7 | 0.00 | 3.48 | 0.00 | 90 | 1014.2 |
| 20260510114037 | 68 | 25 | 0.0 | 1.7 | 0.00 | 3.48 | 0.00 | 90 | 1014.2 |
| 20260510113923 | 68 | 25 | 0.0 | 1.7 | 0.00 | 3.48 | 0.00 | 90 | 1014.3 |
| 20260510113836 | 68 | 25 | 0.0 | 1.7 | 0.00 | 3.48 | 0.00 | 90 | 1014.2 |
| 20260510113721 | 68 | 25 | 0.0 | 3.5 | 0.00 | 3.48 | 0.00 | 90 | 1014.2 |
| 20260510113637 | 68 | 25 | 0.0 | 3.5 | 0.00 | 3.48 | 0.00 | 90 | 1014.2 |
| 20260510113524 | 68 | 25 | 0.0 | 3.5 | 0.00 | 3.48 | 0.00 | 90 | 1014.2 |
| 20260510113431 | 68 | 25 | 0.0 | 3.5 | 0.00 | 3.48 | 0.00 | 90 | 1014.2 |
| 20260510113339 | 68 | 25 | 0.0 | 3.5 | 0.00 | 3.48 | 0.00 | 90 | 1014.1 |
| 20260510113224 | 68 | 25 | 0.0 | 3.5 | 0.00 | 3.48 | 0.00 | 90 | 1014.1 |
| 20260510113147 | 68 | 25 | 0.0 | 3.5 | 0.00 | 3.48 | 0.00 | 90 | 1014.1 |
| 20260510113027 | 68 | 25 | 0.9 | 3.5 | 0.00 | 3.48 | 0.00 | 90 | 1014.1 |
| 20260510112934 | 68 | 25 | 0.9 | 3.5 | 0.00 | 3.48 | 0.00 | 90 | 1014.0 |
| 20260510112821 | 68 | 25 | 0.9 | 3.5 | 0.00 | 3.48 | 0.00 | 90 | 1014.0 |
| 20260510112733 | 68 | 24 | 0.9 | 2.6 | 0.00 | 3.48 | 0.00 | 90 | 1014.0 |
| 20260510112651 | 67 | 24 | 0.9 | 2.6 | 0.00 | 3.48 | 0.00 | 90 | 1014.0 |
| 20260510112524 | 68 | 24 | 0.0 | 2.6 | 0.00 | 3.48 | 0.00 | 90 | 1014.0 |
| 20260510112443 | 68 | 23 | 0.0 | 2.6 | 0.00 | 3.48 | 0.00 | 90 | 1014.0 |
| 20260510112329 | 68 | 23 | 0.9 | 2.6 | 0.00 | 3.48 | 0.00 | 90 | 1014.0 |
| 20260510112225 | 68 | 23 | 0.9 | 2.6 | 0.00 | 3.48 | 0.00 | 90 | 1014.0 |
| 20260510112138 | 68 | 23 | 0.9 | 2.6 | 0.00 | 3.48 | 0.00 | 90 | 1013.9 |
| 20260510112035 | 68 | 23 | 0.0 | 0.9 | 0.00 | 3.48 | 0.00 | 90 | 1013.9 |
| 20260510111923 | 68 | 23 | 0.0 | 0.9 | 0.00 | 3.48 | 0.00 | 90 | 1013.9 |
| 20260510111837 | 68 | 23 | 0.0 | 0.9 | 0.00 | 3.48 | 0.00 | 90 | 1013.8 |
| 20260510111723 | 67 | 23 | 0.0 | 1.7 | 0.00 | 3.48 | 0.00 | 90 | 1013.7 |
| 20260510111648 | 68 | 23 | 0.0 | 1.7 | 0.00 | 3.48 | 0.00 | 90 | 1013.8 |
| 20260510111544 | 67 | 23 | 0.0 | 1.7 | 0.00 | 3.48 | 0.00 | 90 | 1013.7 |
| 20260510111428 | 68 | 23 | 0.0 | 1.7 | 0.00 | 3.48 | 0.00 | 90 | 1013.7 |
| 20260510111347 | 68 | 23 | 0.0 | 2.6 | 0.00 | 3.48 | 0.00 | 90 | 1013.7 |
| 20260510111232 | 68 | 23 | 0.0 | 2.6 | 0.00 | 3.48 | 0.00 | 90 | 1013.7 |
| 20260510111149 | 67 | 23 | 0.0 | 2.6 | 0.00 | 3.48 | 0.00 | 90 | 1013.6 |
| 20260510111025 | 68 | 23 | 0.0 | 2.6 | 0.00 | 3.48 | 0.00 | 90 | 1013.6 |
| 20260510110938 | 68 | 23 | 0.0 | 2.6 | 0.00 | 3.48 | 0.00 | 90 | 1013.6 |
| 20260510110829 | 68 | 22 | 0.0 | 2.6 | 0.00 | 3.48 | 0.00 | 90 | 1013.5 |
| 20260510110726 | 68 | 22 | 0.0 | 2.6 | 0.00 | 3.48 | 0.00 | 90 | 1013.5 |
| 20260510110637 | 68 | 22 | 0.9 | 2.6 | 0.00 | 3.48 | 0.00 | 90 | 1013.5 |
| 20260510110551 | 68 | 21 | 0.9 | 2.6 | 0.00 | 3.48 | 0.00 | 90 | 1013.5 |
| 20260510110444 | 68 | 20 | 0.9 | 2.6 | 0.00 | 3.48 | 0.00 | 90 | 1013.5 |
| 20260510110329 | 68 | 20 | 0.0 | 2.6 | 0.00 | 3.48 | 0.00 | 90 | 1013.4 |
| 20260510110302 | 68 | 20 | 0.9 | 2.6 | 0.00 | 3.48 | 0.00 | 90 | 1013.4 |
| 20260510110141 | 68 | 20 | 0.9 | 2.6 | 0.00 | 3.48 | 0.00 | 90 | 1013.4 |
| 20260510110044 | 68 | 20 | 0.9 | 2.6 | 0.00 | 3.48 | 0.00 | 90 | 1013.4 |
| 20260510105931 | 68 | 20 | 0.9 | 2.6 | 0.00 | 3.48 | 0.00 | 90 | 1013.3 |
| 20260510105837 | 68 | 20 | 0.9 | 2.6 | 0.00 | 3.48 | 0.00 | 90 | 1013.3 |
| 20260510105752 | 68 | 20 | 0.9 | 2.6 | 0.00 | 3.48 | 0.00 | 90 | 1013.3 |
| 20260510105709 | 68 | 20 | 0.0 | 2.6 | 0.00 | 3.48 | 0.00 | 90 | 1013.3 |
| 20260510105534 | 68 | 20 | 0.0 | 0.9 | 0.00 | 3.48 | 0.00 | 90 | 1013.3 |
| 20260510105441 | 68 | 20 | 0.0 | 0.9 | 0.00 | 3.48 | 0.00 | 90 | 1013.3 |
| 20260510105328 | 68 | 20 | 0.0 | 0.9 | 0.00 | 3.48 | 0.00 | 91 | 1013.3 |
| 20260510105225 | 68 | 20 | 0.0 | 1.7 | 0.00 | 3.48 | 0.00 | 90 | 1013.3 |
| 20260510105137 | 68 | 20 | 0.0 | 1.7 | 0.00 | 3.48 | 0.00 | 90 | 1013.3 |
| 20260510105041 | 68 | 20 | 0.0 | 1.7 | 0.00 | 3.48 | 0.00 | 91 | 1013.3 |
| 20260510104930 | 68 | 20 | 0.0 | 1.7 | 0.00 | 3.48 | 0.00 | 90 | 1013.3 |
| 20260510104837 | 68 | 20 | 0.0 | 1.7 | 0.00 | 3.48 | 0.00 | 90 | 1013.3 |
| 20260510104742 | 68 | 20 | 0.0 | 1.7 | 0.00 | 3.48 | 0.00 | 90 | 1013.2 |
| 20260510104647 | 68 | 20 | 0.0 | 1.7 | 0.00 | 3.48 | 0.00 | 90 | 1013.2 |
| 20260510104521 | 68 | 20 | 0.0 | 1.7 | 0.00 | 3.48 | 0.00 | 91 | 1013.2 |
| 20260510104435 | 68 | 20 | 0.0 | 1.7 | 0.00 | 3.48 | 0.00 | 91 | 1013.2 |
| 20260510104326 | 68 | 20 | 0.0 | 1.7 | 0.00 | 3.48 | 0.00 | 91 | 1013.2 |
| 20260510104224 | 68 | 20 | 0.0 | 1.7 | 0.00 | 3.48 | 0.00 | 91 | 1013.1 |
| 20260510104135 | 68 | 20 | 0.0 | 1.7 | 0.00 | 3.48 | 0.00 | 90 | 1013.1 |
| 20260510104031 | 68 | 20 | 0.0 | 1.7 | 0.00 | 3.48 | 0.00 | 91 | 1013.1 |
| 20260510103937 | 68 | 20 | 0.0 | 0.0 | 0.00 | 3.48 | 0.00 | 91 | 1013.1 |
| 20260510103828 | 68 | 20 | 0.0 | 0.0 | 0.00 | 3.48 | 0.00 | 91 | 1013.0 |
| 20260510103751 | 68 | 20 | 0.0 | 0.0 | 0.00 | 3.48 | 0.00 | 90 | 1013.0 |
| 20260510103705 | 68 | 20 | 0.0 | 0.0 | 0.00 | 3.48 | 0.00 | 90 | 1013.0 |
| 20260510103539 | 68 | 20 | 0.0 | 1.7 | 0.00 | 3.48 | 0.00 | 91 | 1013.0 |
| 20260510103422 | 68 | 20 | 0.0 | 1.7 | 0.00 | 3.48 | 0.00 | 91 | 1013.0 |
| 20260510103357 | 68 | 20 | 0.0 | 1.7 | 0.00 | 3.48 | 0.00 | 90 | 1013.0 |
| 20260510103222 | 68 | 20 | 0.0 | 1.7 | 0.00 | 3.48 | 0.00 | 91 | 1013.0 |
| 20260510103151 | 68 | 20 | 0.0 | 1.7 | 0.00 | 3.48 | 0.00 | 90 | 1013.0 |
| 20260510103025 | 68 | 20 | 0.0 | 1.7 | 0.00 | 3.48 | 0.00 | 90 | 1013.1 |
| 20260510102939 | 68 | 20 | 0.0 | 1.7 | 0.00 | 3.48 | 0.00 | 91 | 1013.1 |
| 20260510102826 | 68 | 20 | 0.0 | 1.7 | 0.00 | 3.48 | 0.00 | 90 | 1013.1 |
| 20260510102722 | 68 | 20 | 0.0 | 1.7 | 0.00 | 3.48 | 0.00 | 90 | 1013.0 |
| 20260510102631 | 68 | 20 | 0.0 | 1.7 | 0.00 | 3.48 | 0.00 | 90 | 1013.0 |
| 20260510102532 | 68 | 20 | 0.0 | 1.7 | 0.00 | 3.48 | 0.00 | 91 | 1013.0 |
| 20260510102438 | 68 | 20 | 0.0 | 1.7 | 0.00 | 3.48 | 0.00 | 90 | 1013.0 |
| 20260510102326 | 68 | 20 | 0.0 | 1.7 | 0.00 | 3.48 | 0.00 | 90 | 1013.0 |
| 20260510102221 | 68 | 20 | 0.0 | 0.9 | 0.00 | 3.48 | 0.00 | 90 | 1013.0 |
| 20260510102133 | 68 | 20 | 0.0 | 0.9 | 0.00 | 3.48 | 0.00 | 90 | 1013.0 |
| 20260510102030 | 68 | 20 | 0.0 | 0.9 | 0.00 | 3.48 | 0.00 | 90 | 1012.9 |
| 20260510101944 | 68 | 20 | 0.0 | 0.9 | 0.00 | 3.48 | 0.00 | 91 | 1013.0 |
| 20260510101832 | 68 | 20 | 0.0 | 2.6 | 0.00 | 3.48 | 0.00 | 90 | 1012.9 |
| 20260510101729 | 68 | 20 | 0.0 | 2.6 | 0.00 | 3.48 | 0.00 | 91 | 1012.9 |
| 20260510101642 | 68 | 20 | 0.0 | 2.6 | 0.00 | 3.48 | 0.00 | 91 | 1012.9 |
| 20260510101522 | 68 | 20 | 0.0 | 2.6 | 0.00 | 3.48 | 0.00 | 91 | 1013.0 |
| 20260510101429 | 68 | 20 | 0.0 | 2.6 | 0.00 | 3.48 | 0.00 | 91 | 1012.9 |
| 20260510101335 | 68 | 20 | 0.0 | 2.6 | 0.00 | 3.48 | 0.00 | 91 | 1012.9 |
| 20260510101222 | 68 | 20 | 0.0 | 2.6 | 0.00 | 3.48 | 0.00 | 91 | 1012.9 |
| 20260510101145 | 68 | 20 | 0.0 | 2.6 | 0.00 | 3.48 | 0.00 | 91 | 1012.9 |
| 20260510101024 | 68 | 20 | 0.0 | 2.6 | 0.00 | 3.48 | 0.00 | 91 | 1012.8 |
| 20260510100938 | 68 | 20 | 0.0 | 2.6 | 0.00 | 3.48 | 0.00 | 91 | 1012.8 |
| 20260510100824 | 68 | 20 | 0.0 | 1.7 | 0.00 | 3.48 | 0.00 | 91 | 1012.8 |
| 20260510100729 | 68 | 20 | 0.0 | 1.7 | 0.00 | 3.48 | 0.00 | 91 | 1012.8 |
| 20260510100713 | 68 | 20 | 0.9 | 1.7 | 0.00 | 3.48 | 0.00 | 91 | 1012.8 |
| 20260510100528 | 68 | 20 | 0.9 | 1.7 | 0.00 | 3.48 | 0.00 | 91 | 1012.8 |
| 20260510100437 | 68 | 20 | 0.0 | 1.7 | 0.00 | 3.48 | 0.00 | 91 | 1012.7 |
| 20260510100351 | 68 | 20 | 0.0 | 1.7 | 0.00 | 3.48 | 0.00 | 91 | 1012.8 |
| 20260510100227 | 68 | 20 | 0.0 | 1.7 | 0.00 | 3.48 | 0.00 | 91 | 1012.7 |
| 20260510100133 | 68 | 20 | 0.0 | 1.7 | 0.00 | 3.48 | 0.00 | 91 | 1012.7 |
| 20260510100054 | 68 | 20 | 0.0 | 1.7 | 0.00 | 3.48 | 0.00 | 91 | 1012.7 |
| 20260510095946 | 68 | 20 | 0.0 | 1.7 | 0.00 | 3.48 | 0.00 | 91 | 1012.7 |
| 20260510095837 | 68 | 20 | 0.0 | 1.7 | 0.00 | 3.48 | 0.00 | 91 | 1012.7 |
| 20260510095723 | 68 | 20 | 0.0 | 1.7 | 0.00 | 3.48 | 0.00 | 91 | 1012.7 |
| 20260510095639 | 68 | 20 | 0.0 | 1.7 | 0.00 | 3.48 | 0.00 | 91 | 1012.7 |
| 20260510095540 | 68 | 20 | 0.0 | 1.7 | 0.00 | 3.48 | 0.00 | 91 | 1012.7 |
| 20260510095446 | 68 | 20 | 0.0 | 1.7 | 0.00 | 3.48 | 0.00 | 91 | 1012.7 |
| 20260510095332 | 68 | 20 | 0.0 | 1.7 | 0.00 | 3.48 | 0.00 | 91 | 1012.7 |
| 20260510095222 | 68 | 20 | 0.0 | 1.7 | 0.00 | 3.48 | 0.00 | 91 | 1012.7 |
| 20260510095144 | 68 | 20 | 0.9 | 1.7 | 0.00 | 3.48 | 0.00 | 91 | 1012.7 |
| 20260510095020 | 68 | 20 | 0.9 | 1.7 | 0.00 | 3.48 | 0.00 | 91 | 1012.7 |
| 20260510094927 | 68 | 20 | 0.0 | 1.7 | 0.00 | 3.48 | 0.00 | 91 | 1012.6 |
| 20260510094841 | 68 | 20 | 0.0 | 0.9 | 0.00 | 3.48 | 0.00 | 91 | 1012.6 |
| 20260510094721 | 68 | 20 | 0.0 | 0.9 | 0.00 | 3.48 | 0.00 | 91 | 1012.6 |
| 20260510094654 | 68 | 20 | 0.0 | 0.9 | 0.00 | 3.48 | 0.00 | 91 | 1012.6 |
| 20260510094549 | 68 | 20 | 0.0 | 0.9 | 0.00 | 3.48 | 0.00 | 91 | 1012.5 |
| 20260510094435 | 68 | 20 | 0.0 | 0.9 | 0.00 | 3.48 | 0.00 | 91 | 1012.5 |
| 20260510094322 | 68 | 20 | 0.0 | 0.9 | 0.00 | 3.48 | 0.00 | 91 | 1012.5 |
| 20260510094245 | 68 | 20 | 0.0 | 0.9 | 0.00 | 3.48 | 0.00 | 91 | 1012.5 |
| 20260510094156 | 68 | 20 | 0.0 | 1.7 | 0.00 | 3.48 | 0.00 | 91 | 1012.5 |
| 20260510094034 | 68 | 20 | 0.0 | 1.7 | 0.00 | 3.48 | 0.00 | 91 | 1012.4 |
| 20260510093920 | 68 | 20 | 0.0 | 1.7 | 0.00 | 3.48 | 0.00 | 91 | 1012.5 |
| 20260510093834 | 68 | 20 | 0.0 | 1.7 | 0.00 | 3.48 | 0.00 | 91 | 1012.5 |
| 20260510093730 | 68 | 20 | 0.0 | 1.7 | 0.00 | 3.48 | 0.00 | 91 | 1012.4 |
| 20260510093642 | 68 | 20 | 0.0 | 1.7 | 0.00 | 3.48 | 0.00 | 91 | 1012.5 |
| 20260510093535 | 68 | 20 | 0.0 | 1.7 | 0.00 | 3.48 | 0.00 | 91 | 1012.4 |
| 20260510093424 | 68 | 20 | 0.0 | 1.7 | 0.00 | 3.48 | 0.00 | 91 | 1012.4 |
| 20260510093358 | 68 | 20 | 0.0 | 1.7 | 0.00 | 3.48 | 0.00 | 91 | 1012.4 |
| 20260510093223 | 68 | 20 | 0.0 | 1.7 | 0.00 | 3.48 | 0.00 | 91 | 1012.5 |
| 20260510093148 | 68 | 20 | 0.0 | 0.9 | 0.00 | 3.48 | 0.00 | 91 | 1012.5 |
| 20260510093043 | 68 | 20 | 0.0 | 0.0 | 0.00 | 3.48 | 0.00 | 90 | 1012.5 |
| 20260510092937 | 68 | 20 | 0.0 | 0.0 | 0.00 | 3.48 | 0.00 | 90 | 1012.5 |
| 20260510092827 | 68 | 20 | 0.0 | 0.0 | 0.00 | 3.48 | 0.00 | 91 | 1012.5 |
| 20260510092745 | 68 | 20 | 0.0 | 0.0 | 0.00 | 3.48 | 0.00 | 91 | 1012.5 |
| 20260510092635 | 68 | 20 | 0.0 | 0.0 | 0.00 | 3.48 | 0.00 | 91 | 1012.5 |
| 20260510092538 | 68 | 20 | 0.0 | 0.0 | 0.00 | 3.48 | 0.00 | 91 | 1012.5 |
| 20260510092426 | 68 | 20 | 0.0 | 0.0 | 0.00 | 3.48 | 0.00 | 90 | 1012.5 |
| 20260510092352 | 68 | 20 | 0.0 | 0.0 | 0.00 | 3.48 | 0.00 | 91 | 1012.5 |
| 20260510092222 | 68 | 20 | 0.0 | 0.0 | 0.00 | 3.48 | 0.00 | 91 | 1012.5 |
| 20260510092145 | 68 | 20 | 0.0 | 0.0 | 0.00 | 3.48 | 0.00 | 91 | 1012.5 |
| 20260510092021 | 68 | 20 | 0.0 | 0.0 | 0.00 | 3.48 | 0.00 | 91 | 1012.5 |
| 20260510091926 | 68 | 20 | 0.0 | 0.0 | 0.00 | 3.48 | 0.00 | 90 | 1012.5 |
| 20260510091840 | 68 | 20 | 0.0 | 0.0 | 0.00 | 3.48 | 0.00 | 90 | 1012.5 |
| 20260510091721 | 68 | 20 | 0.0 | 0.9 | 0.00 | 3.48 | 0.00 | 90 | 1012.5 |
| 20260510091647 | 68 | 20 | 0.0 | 0.9 | 0.00 | 3.48 | 0.00 | 90 | 1012.5 |
| 20260510091522 | 68 | 20 | 0.0 | 0.9 | 0.00 | 3.48 | 0.00 | 90 | 1012.5 |
| 20260510091435 | 68 | 20 | 0.0 | 0.9 | 0.00 | 3.48 | 0.00 | 91 | 1012.5 |
| 20260510091322 | 68 | 20 | 0.0 | 0.9 | 0.00 | 3.48 | 0.00 | 91 | 1012.5 |
| 20260510091255 | 68 | 20 | 0.0 | 0.9 | 0.00 | 3.48 | 0.00 | 90 | 1012.4 |
| 20260510091135 | 68 | 20 | 0.0 | 0.9 | 0.00 | 3.48 | 0.00 | 90 | 1012.4 |
| 20260510091030 | 68 | 20 | 0.0 | 1.7 | 0.00 | 3.48 | 0.00 | 90 | 1012.4 |
| 20260510090944 | 68 | 20 | 0.0 | 1.7 | 0.00 | 3.48 | 0.00 | 90 | 1012.4 |
| 20260510090831 | 68 | 20 | 0.0 | 1.7 | 0.00 | 3.48 | 0.00 | 91 | 1012.4 |
| 20260510090729 | 68 | 20 | 0.0 | 1.7 | 0.00 | 3.48 | 0.00 | 90 | 1012.5 |
| 20260510090702 | 68 | 20 | 0.0 | 1.7 | 0.00 | 3.48 | 0.00 | 90 | 1012.5 |
| 20260510090520 | 68 | 20 | 0.0 | 1.7 | 0.00 | 3.48 | 0.00 | 90 | 1012.5 |
| 20260510090454 | 68 | 20 | 0.0 | 1.7 | 0.00 | 3.48 | 0.00 | 90 | 1012.5 |
| 20260510090320 | 68 | 20 | 0.0 | 1.7 | 0.00 | 3.48 | 0.00 | 90 | 1012.5 |
| 20260510090226 | 68 | 20 | 0.9 | 1.7 | 0.00 | 3.48 | 0.00 | 90 | 1012.5 |
| 20260510090150 | 68 | 20 | 0.9 | 1.7 | 0.00 | 3.48 | 0.00 | 91 | 1012.5 |
| 20260510090023 | 68 | 20 | 0.9 | 1.7 | 0.00 | 3.48 | 0.00 | 90 | 1012.4 |
| 20260510085940 | 68 | 20 | 0.9 | 1.7 | 0.00 | 3.48 | 0.00 | 91 | 1012.4 |
| 20260510085826 | 68 | 20 | 0.9 | 1.7 | 0.00 | 3.48 | 0.00 | 90 | 1012.5 |
| 20260510085733 | 68 | 20 | 0.0 | 1.7 | 0.00 | 3.48 | 0.00 | 90 | 1012.5 |
| 20260510085719 | 68 | 20 | 0.0 | 1.7 | 0.00 | 3.48 | 0.00 | 90 | 1012.5 |
| 20260510085533 | 68 | 20 | 0.0 | 1.7 | 0.00 | 3.48 | 0.00 | 90 | 1012.5 |
| 20260510085439 | 68 | 20 | 0.0 | 1.7 | 0.00 | 3.48 | 0.00 | 90 | 1012.4 |
| 20260510085336 | 68 | 20 | 0.0 | 1.7 | 0.00 | 3.48 | 0.00 | 90 | 1012.5 |
| 20260510085223 | 68 | 20 | 0.9 | 1.7 | 0.00 | 3.48 | 0.00 | 90 | 1012.4 |
| 20260510085208 | 68 | 20 | 0.9 | 1.7 | 0.00 | 3.48 | 0.00 | 90 | 1012.5 |
| 20260510085045 | 68 | 20 | 0.0 | 1.7 | 0.00 | 3.48 | 0.00 | 90 | 1012.4 |
| 20260510084930 | 68 | 20 | 0.0 | 1.7 | 0.00 | 3.48 | 0.00 | 90 | 1012.4 |
| 20260510084844 | 68 | 20 | 0.0 | 1.7 | 0.00 | 3.48 | 0.00 | 90 | 1012.5 |
| 20260510084726 | 68 | 20 | 0.0 | 2.6 | 0.00 | 3.48 | 0.00 | 90 | 1012.5 |
| 20260510084653 | 68 | 20 | 0.0 | 2.6 | 0.00 | 3.48 | 0.00 | 90 | 1012.5 |
| 20260510084526 | 68 | 20 | 0.0 | 2.6 | 0.00 | 3.48 | 0.00 | 90 | 1012.5 |
| 20260510084439 | 68 | 20 | 0.0 | 2.6 | 0.00 | 3.48 | 0.00 | 90 | 1012.5 |
| 20260510084345 | 68 | 20 | 0.0 | 2.6 | 0.00 | 3.48 | 0.00 | 90 | 1012.5 |
| 20260510084227 | 68 | 20 | 0.0 | 2.6 | 0.00 | 3.48 | 0.00 | 90 | 1012.5 |
| 20260510084136 | 68 | 20 | 0.0 | 2.6 | 0.00 | 3.48 | 0.00 | 90 | 1012.5 |
| 20260510084059 | 68 | 20 | 0.0 | 2.6 | 0.00 | 3.48 | 0.00 | 90 | 1012.5 |
| 20260510083952 | 68 | 20 | 0.9 | 2.6 | 0.00 | 3.48 | 0.00 | 90 | 1012.5 |
| 20260510083859 | 68 | 20 | 0.9 | 2.6 | 0.00 | 3.48 | 0.00 | 90 | 1012.5 |
| 20260510083724 | 68 | 20 | 0.0 | 1.7 | 0.00 | 3.48 | 0.00 | 90 | 1012.5 |
| 20260510083648 | 68 | 20 | 0.0 | 0.9 | 0.00 | 3.48 | 0.00 | 90 | 1012.5 |
| 20260510083525 | 68 | 20 | 0.0 | 1.7 | 0.00 | 3.48 | 0.00 | 90 | 1012.5 |
| 20260510083436 | 68 | 20 | 0.0 | 1.7 | 0.00 | 3.48 | 0.00 | 90 | 1012.5 |
| 20260510083321 | 68 | 20 | 0.0 | 1.7 | 0.00 | 3.48 | 0.00 | 90 | 1012.4 |
| 20260510083225 | 68 | 20 | 0.0 | 1.7 | 0.00 | 3.48 | 0.00 | 90 | 1012.5 |
| 20260510083159 | 68 | 20 | 0.0 | 1.7 | 0.00 | 3.48 | 0.00 | 90 | 1012.4 |
| 20260510083054 | 68 | 20 | 0.0 | 4.3 | 0.00 | 3.48 | 0.00 | 90 | 1012.5 |
| 20260510082920 | 68 | 20 | 0.0 | 4.3 | 0.00 | 3.48 | 0.00 | 90 | 1012.5 |
| 20260510082838 | 68 | 20 | 0.0 | 4.3 | 0.00 | 3.48 | 0.00 | 90 | 1012.5 |
| 20260510082744 | 68 | 20 | 0.9 | 4.3 | 0.00 | 3.48 | 0.00 | 90 | 1012.4 |
| 20260510082647 | 68 | 20 | 0.9 | 4.3 | 0.00 | 3.48 | 0.00 | 90 | 1012.4 |
| 20260510082521 | 68 | 20 | 0.9 | 4.3 | 0.00 | 3.48 | 0.00 | 90 | 1012.5 |
| 20260510082428 | 68 | 20 | 0.9 | 4.3 | 0.00 | 3.48 | 0.00 | 90 | 1012.4 |
| 20260510082341 | 68 | 20 | 0.9 | 4.3 | 0.00 | 3.48 | 0.00 | 90 | 1012.5 |
| 20260510082242 | 68 | 20 | 1.7 | 4.3 | 0.00 | 3.48 | 0.00 | 90 | 1012.5 |
| 20260510082154 | 68 | 20 | 0.9 | 4.3 | 0.00 | 3.48 | 0.00 | 90 | 1012.4 |
| 20260510082027 | 68 | 5 | 0.9 | 1.7 | 0.00 | 3.48 | 0.00 | 90 | 1012.5 |
| 20260510081941 | 68 | 5 | 0.0 | 1.7 | 0.00 | 3.48 | 0.00 | 90 | 1012.4 |
| 20260510081847 | 68 | 5 | 0.0 | 1.7 | 0.00 | 3.48 | 0.00 | 90 | 1012.5 |
| 20260510081724 | 68 | 5 | 0.0 | 2.6 | 0.00 | 3.48 | 0.00 | 90 | 1012.4 |
| 20260510081641 | 68 | 5 | 0.0 | 2.6 | 0.00 | 3.48 | 0.00 | 90 | 1012.4 |
| 20260510081537 | 68 | 5 | 0.0 | 2.6 | 0.00 | 3.48 | 0.00 | 90 | 1012.4 |
| 20260510081422 | 68 | 5 | 0.0 | 2.6 | 0.00 | 3.48 | 0.00 | 90 | 1012.4 |
| 20260510081335 | 68 | 5 | 0.0 | 2.6 | 0.00 | 3.48 | 0.00 | 90 | 1012.4 |
| 20260510081223 | 68 | 5 | 0.0 | 2.6 | 0.00 | 3.48 | 0.00 | 90 | 1012.4 |
| 20260510081139 | 68 | 5 | 0.0 | 2.6 | 0.00 | 3.48 | 0.00 | 90 | 1012.4 |
| 20260510081019 | 68 | 360 | 0.9 | 2.6 | 0.00 | 3.48 | 0.00 | 90 | 1012.4 |
| 20260510080954 | 68 | 360 | 0.9 | 2.6 | 0.00 | 3.48 | 0.00 | 90 | 1012.4 |
| 20260510080819 | 68 | 360 | 0.9 | 2.6 | 0.00 | 3.49 | 0.00 | 90 | 1012.3 |
| 20260510080732 | 68 | 360 | 0.0 | 2.6 | 0.00 | 3.49 | 0.00 | 90 | 1012.3 |
| 20260510080649 | 68 | 360 | 0.9 | 2.6 | 0.00 | 3.49 | 0.00 | 90 | 1012.3 |
| 20260510080528 | 68 | 360 | 0.9 | 2.6 | 0.00 | 3.49 | 0.00 | 90 | 1012.3 |
| 20260510080442 | 68 | 360 | 0.0 | 2.6 | 0.00 | 3.49 | 0.00 | 90 | 1012.3 |
| 20260510080329 | 68 | 360 | 0.0 | 2.6 | 0.00 | 3.49 | 0.00 | 90 | 1012.3 |
| 20260510080227 | 68 | 360 | 0.9 | 2.6 | 0.00 | 3.49 | 0.00 | 90 | 1012.2 |
| 20260510080141 | 68 | 360 | 0.0 | 2.6 | 0.00 | 3.49 | 0.00 | 90 | 1012.2 |
| 20260510080032 | 68 | 360 | 0.9 | 2.6 | 0.00 | 3.49 | 0.00 | 90 | 1012.2 |
| 20260510075922 | 68 | 360 | 0.9 | 2.6 | 0.00 | 3.49 | 0.00 | 90 | 1012.2 |
| 20260510075829 | 68 | 360 | 0.0 | 1.7 | 0.00 | 3.49 | 0.00 | 90 | 1012.3 |
| 20260510075722 | 68 | 360 | 0.0 | 1.7 | 0.00 | 3.49 | 0.00 | 90 | 1012.3 |
| 20260510075638 | 68 | 360 | 0.0 | 1.7 | 0.00 | 3.49 | 0.00 | 90 | 1012.3 |
| 20260510075541 | 68 | 360 | 0.0 | 1.7 | 0.00 | 3.49 | 0.00 | 90 | 1012.3 |
| 20260510075431 | 68 | 360 | 0.0 | 1.7 | 0.00 | 3.49 | 0.00 | 90 | 1012.2 |
| 20260510075338 | 68 | 360 | 0.9 | 1.7 | 0.00 | 3.49 | 0.00 | 90 | 1012.3 |
| 20260510075223 | 68 | 360 | 0.9 | 1.7 | 0.00 | 3.49 | 0.00 | 90 | 1012.3 |
| 20260510075147 | 68 | 360 | 0.9 | 1.7 | 0.00 | 3.49 | 0.00 | 90 | 1012.3 |
| 20260510075023 | 68 | 360 | 0.9 | 1.7 | 0.00 | 3.49 | 0.00 | 90 | 1012.3 |
| 20260510074957 | 68 | 360 | 0.0 | 1.7 | 0.00 | 3.49 | 0.00 | 90 | 1012.3 |
| 20260510074826 | 68 | 360 | 0.0 | 0.9 | 0.00 | 3.49 | 0.00 | 90 | 1012.3 |
| 20260510074723 | 68 | 360 | 0.0 | 0.9 | 0.00 | 3.49 | 0.00 | 90 | 1012.4 |
| 20260510074636 | 68 | 360 | 0.0 | 0.9 | 0.00 | 3.49 | 0.00 | 90 | 1012.3 |
| 20260510074532 | 68 | 360 | 0.0 | 0.9 | 0.00 | 3.49 | 0.00 | 90 | 1012.4 |
| 20260510074439 | 68 | 360 | 0.0 | 0.9 | 0.00 | 3.49 | 0.00 | 90 | 1012.4 |
| 20260510074328 | 68 | 360 | 0.0 | 0.9 | 0.00 | 3.49 | 0.00 | 90 | 1012.4 |
| 20260510074241 | 68 | 360 | 0.0 | 0.9 | 0.00 | 3.49 | 0.00 | 91 | 1012.4 |
| 20260510074134 | 68 | 360 | 0.0 | 0.9 | 0.00 | 3.49 | 0.00 | 90 | 1012.4 |
| 20260510074037 | 68 | 360 | 0.0 | 0.9 | 0.00 | 3.49 | 0.00 | 90 | 1012.4 |
| 20260510073923 | 68 | 360 | 0.0 | 0.9 | 0.00 | 3.49 | 0.00 | 90 | 1012.3 |
| 20260510073830 | 68 | 360 | 0.0 | 0.9 | 0.00 | 3.49 | 0.00 | 90 | 1012.4 |
| 20260510073721 | 68 | 360 | 0.0 | 2.6 | 0.00 | 3.49 | 0.00 | 90 | 1012.3 |
| 20260510073643 | 68 | 360 | 0.0 | 2.6 | 0.00 | 3.49 | 0.00 | 90 | 1012.4 |
| 20260510073520 | 68 | 360 | 0.0 | 2.6 | 0.00 | 3.49 | 0.00 | 90 | 1012.4 |
| 20260510073425 | 68 | 360 | 0.0 | 2.6 | 0.00 | 3.49 | 0.00 | 90 | 1012.4 |
| 20260510073340 | 68 | 360 | 0.0 | 2.6 | 0.00 | 3.49 | 0.00 | 90 | 1012.4 |
| 20260510073241 | 68 | 360 | 0.0 | 2.6 | 0.00 | 3.49 | 0.00 | 90 | 1012.4 |
| 20260510073152 | 68 | 360 | 0.0 | 2.6 | 0.00 | 3.49 | 0.00 | 91 | 1012.4 |
| 20260510073028 | 68 | 360 | 0.9 | 2.6 | 0.00 | 3.49 | 0.00 | 90 | 1012.4 |
| 20260510072933 | 68 | 360 | 0.9 | 2.6 | 0.00 | 3.49 | 0.00 | 91 | 1012.5 |
| 20260510072846 | 68 | 360 | 0.9 | 2.6 | 0.00 | 3.49 | 0.00 | 90 | 1012.5 |
| 20260510072742 | 68 | 360 | 0.0 | 1.7 | 0.00 | 3.49 | 0.00 | 91 | 1012.5 |
| 20260510072654 | 68 | 360 | 0.0 | 1.7 | 0.00 | 3.49 | 0.00 | 91 | 1012.5 |
| 20260510072533 | 68 | 360 | 0.0 | 1.7 | 0.00 | 3.49 | 0.00 | 90 | 1012.5 |
| 20260510072420 | 68 | 360 | 0.0 | 1.7 | 0.00 | 3.49 | 0.00 | 90 | 1012.5 |
| 20260510072328 | 68 | 360 | 0.9 | 1.7 | 0.00 | 3.49 | 0.00 | 90 | 1012.5 |
| 20260510072225 | 68 | 360 | 0.0 | 1.7 | 0.00 | 3.49 | 0.00 | 90 | 1012.4 |
| 20260510072157 | 68 | 360 | 0.0 | 1.7 | 0.00 | 3.49 | 0.00 | 90 | 1012.4 |
| 20260510072038 | 68 | 360 | 0.0 | 1.7 | 0.00 | 3.49 | 0.00 | 90 | 1012.4 |
| 20260510071928 | 68 | 360 | 0.9 | 1.7 | 0.00 | 3.49 | 0.00 | 90 | 1012.3 |
| 20260510071836 | 68 | 360 | 0.9 | 2.6 | 0.00 | 3.49 | 0.00 | 90 | 1012.4 |
| 20260510071722 | 68 | 360 | 0.9 | 2.6 | 0.00 | 3.49 | 0.00 | 91 | 1012.3 |
| 20260510071646 | 68 | 360 | 0.9 | 2.6 | 0.00 | 3.49 | 0.00 | 91 | 1012.3 |
| 20260510071521 | 68 | 360 | 0.0 | 2.6 | 0.00 | 3.49 | 0.00 | 91 | 1012.3 |
| 20260510071432 | 68 | 360 | 0.0 | 2.6 | 0.00 | 3.49 | 0.00 | 90 | 1012.3 |
| 20260510071320 | 68 | 360 | 0.0 | 2.6 | 0.00 | 3.49 | 0.00 | 90 | 1012.3 |
| 20260510071233 | 68 | 360 | 0.0 | 2.6 | 0.00 | 3.49 | 0.00 | 90 | 1012.3 |
| 20260510071131 | 68 | 360 | 0.9 | 2.6 | 0.00 | 3.49 | 0.00 | 91 | 1012.3 |
| 20260510071024 | 68 | 360 | 0.9 | 2.6 | 0.00 | 3.49 | 0.00 | 90 | 1012.3 |
| 20260510070923 | 68 | 360 | 0.9 | 2.6 | 0.00 | 3.49 | 0.00 | 91 | 1012.3 |
| 20260510070827 | 68 | 360 | 0.0 | 2.6 | 0.00 | 3.49 | 0.00 | 91 | 1012.3 |
| 20260510070722 | 68 | 360 | 0.9 | 2.6 | 0.00 | 3.49 | 0.00 | 90 | 1012.3 |
| 20260510070634 | 68 | 360 | 0.9 | 2.6 | 0.00 | 3.49 | 0.00 | 90 | 1012.3 |
| 20260510070531 | 68 | 360 | 0.0 | 2.6 | 0.00 | 3.49 | 0.00 | 90 | 1012.3 |
| 20260510070421 | 68 | 360 | 0.0 | 1.7 | 0.00 | 3.49 | 0.00 | 91 | 1012.3 |
| 20260510070355 | 68 | 360 | 0.0 | 1.7 | 0.00 | 3.49 | 0.00 | 90 | 1012.3 |
| 20260510070221 | 68 | 360 | 0.0 | 1.7 | 0.00 | 3.49 | 0.00 | 90 | 1012.3 |
| 20260510070145 | 68 | 360 | 0.9 | 1.7 | 0.00 | 3.49 | 0.00 | 90 | 1012.3 |
| 20260510070041 | 68 | 360 | 0.0 | 1.7 | 0.00 | 3.49 | 0.00 | 91 | 1012.3 |
| 20260510065925 | 68 | 360 | 0.0 | 1.7 | 0.00 | 3.49 | 0.00 | 91 | 1012.3 |
| 20260510065837 | 68 | 360 | 0.0 | 1.7 | 0.00 | 3.49 | 0.00 | 90 | 1012.3 |
| 20260510065719 | 68 | 360 | 0.0 | 1.7 | 0.00 | 3.49 | 0.00 | 90 | 1012.3 |
| 20260510065651 | 68 | 360 | 0.0 | 1.7 | 0.00 | 3.49 | 0.00 | 90 | 1012.3 |
| 20260510065549 | 68 | 360 | 0.0 | 1.7 | 0.00 | 3.49 | 0.00 | 90 | 1012.3 |
| 20260510065435 | 68 | 360 | 0.0 | 1.7 | 0.00 | 3.49 | 0.00 | 91 | 1012.3 |
| 20260510065330 | 68 | 360 | 0.0 | 1.7 | 0.00 | 3.49 | 0.00 | 90 | 1012.3 |
| 20260510065248 | 68 | 360 | 0.0 | 1.7 | 0.00 | 3.49 | 0.00 | 90 | 1012.3 |
| 20260510065144 | 68 | 360 | 0.0 | 1.7 | 0.00 | 3.49 | 0.00 | 90 | 1012.3 |
| 20260510065039 | 68 | 360 | 0.0 | 1.7 | 0.00 | 3.49 | 0.00 | 90 | 1012.2 |
| 20260510064954 | 68 | 360 | 0.0 | 0.9 | 0.00 | 3.49 | 0.00 | 90 | 1012.2 |
| 20260510064839 | 68 | 360 | 0.0 | 0.9 | 0.00 | 3.49 | 0.00 | 90 | 1012.2 |
| 20260510064725 | 68 | 360 | 0.0 | 0.9 | 0.00 | 3.49 | 0.00 | 91 | 1012.3 |
| 20260510064633 | 68 | 360 | 0.0 | 0.9 | 0.00 | 3.49 | 0.00 | 90 | 1012.2 |
| 20260510064529 | 68 | 360 | 0.0 | 0.9 | 0.00 | 3.49 | 0.00 | 90 | 1012.3 |
| 20260510064436 | 68 | 360 | 0.0 | 0.9 | 0.00 | 3.49 | 0.00 | 91 | 1012.3 |
| 20260510064322 | 68 | 360 | 0.0 | 0.9 | 0.00 | 3.49 | 0.00 | 90 | 1012.3 |
| 20260510064247 | 68 | 360 | 0.0 | 1.7 | 0.00 | 3.49 | 0.00 | 90 | 1012.3 |
| 20260510064132 | 68 | 360 | 0.0 | 1.7 | 0.00 | 3.49 | 0.00 | 90 | 1012.3 |
| 20260510064037 | 68 | 360 | 0.0 | 1.7 | 0.00 | 3.49 | 0.00 | 91 | 1012.3 |
| 20260510063924 | 68 | 360 | 0.0 | 1.7 | 0.00 | 3.49 | 0.00 | 90 | 1012.3 |
| 20260510063831 | 68 | 360 | 0.0 | 1.7 | 0.00 | 3.49 | 0.00 | 90 | 1012.3 |
| 20260510063719 | 68 | 360 | 0.0 | 1.7 | 0.00 | 3.49 | 0.00 | 91 | 1012.2 |
| 20260510063641 | 68 | 360 | 0.0 | 1.7 | 0.00 | 3.49 | 0.00 | 90 | 1012.2 |
| 20260510063522 | 68 | 360 | 0.0 | 1.7 | 0.00 | 3.49 | 0.00 | 90 | 1012.3 |
| 20260510063428 | 68 | 360 | 0.0 | 2.6 | 0.00 | 3.49 | 0.00 | 90 | 1012.3 |
| 20260510063341 | 68 | 360 | 0.0 | 2.6 | 0.00 | 3.49 | 0.00 | 90 | 1012.3 |
| 20260510063227 | 68 | 360 | 0.0 | 2.6 | 0.00 | 3.49 | 0.00 | 90 | 1012.3 |
| 20260510063152 | 68 | 360 | 0.0 | 2.6 | 0.00 | 3.49 | 0.00 | 90 | 1012.3 |
| 20260510063028 | 68 | 360 | 0.0 | 2.6 | 0.00 | 3.49 | 0.00 | 91 | 1012.3 |
| 20260510062938 | 68 | 360 | 0.0 | 2.6 | 0.00 | 3.49 | 0.00 | 90 | 1012.3 |
| 20260510062825 | 68 | 360 | 0.0 | 2.6 | 0.00 | 3.49 | 0.00 | 91 | 1012.3 |
| 20260510062721 | 68 | 360 | 0.9 | 2.6 | 0.00 | 3.49 | 0.00 | 90 | 1012.2 |
| 20260510062633 | 68 | 360 | 0.9 | 2.6 | 0.00 | 3.49 | 0.00 | 90 | 1012.2 |
| 20260510062528 | 68 | 360 | 0.9 | 2.6 | 0.00 | 3.49 | 0.00 | 90 | 1012.2 |
| 20260510062441 | 68 | 360 | 0.9 | 2.6 | 0.00 | 3.49 | 0.00 | 90 | 1012.2 |
| 20260510062332 | 68 | 360 | 0.0 | 2.6 | 0.00 | 3.49 | 0.00 | 90 | 1012.1 |
| 20260510062226 | 68 | 360 | 0.0 | 1.7 | 0.00 | 3.49 | 0.00 | 90 | 1012.2 |
| 20260510062131 | 68 | 360 | 0.0 | 1.7 | 0.00 | 3.49 | 0.00 | 90 | 1012.2 |
| 20260510062034 | 68 | 360 | 0.0 | 1.7 | 0.00 | 3.49 | 0.00 | 90 | 1012.2 |
| 20260510061920 | 68 | 360 | 0.0 | 1.7 | 0.00 | 3.49 | 0.00 | 90 | 1012.2 |
| 20260510061831 | 68 | 360 | 0.9 | 1.7 | 0.00 | 3.49 | 0.00 | 90 | 1012.2 |
| 20260510061728 | 68 | 360 | 0.9 | 1.7 | 0.00 | 3.49 | 0.00 | 90 | 1012.2 |
| 20260510061639 | 68 | 360 | 0.0 | 0.9 | 0.00 | 3.49 | 0.00 | 90 | 1012.2 |
| 20260510061541 | 68 | 360 | 0.0 | 0.9 | 0.00 | 3.49 | 0.00 | 90 | 1012.2 |
| 20260510061427 | 68 | 360 | 0.0 | 0.9 | 0.00 | 3.49 | 0.00 | 90 | 1012.2 |
| 20260510061334 | 68 | 360 | 0.0 | 0.9 | 0.00 | 3.49 | 0.00 | 90 | 1012.2 |
| 20260510061245 | 68 | 360 | 0.0 | 0.9 | 0.00 | 3.49 | 0.00 | 90 | 1012.2 |
| 20260510061147 | 68 | 360 | 0.0 | 0.9 | 0.00 | 3.49 | 0.00 | 90 | 1012.2 |
| 20260510061022 | 68 | 360 | 0.0 | 0.9 | 0.00 | 3.49 | 0.00 | 90 | 1012.3 |
| 20260510060929 | 68 | 360 | 0.0 | 0.9 | 0.00 | 3.49 | 0.00 | 90 | 1012.3 |
| 20260510060843 | 68 | 360 | 0.0 | 0.9 | 0.00 | 3.49 | 0.00 | 90 | 1012.3 |
| 20260510060723 | 68 | 360 | 0.0 | 0.9 | 0.00 | 3.49 | 0.00 | 90 | 1012.3 |
| 20260510060656 | 68 | 360 | 0.0 | 0.9 | 0.00 | 3.49 | 0.00 | 90 | 1012.3 |
| 20260510060530 | 68 | 360 | 0.0 | 0.9 | 0.00 | 3.49 | 0.00 | 90 | 1012.3 |
| 20260510060444 | 68 | 360 | 0.0 | 0.9 | 0.00 | 3.49 | 0.00 | 90 | 1012.3 |
| 20260510060331 | 68 | 360 | 0.0 | 0.9 | 0.00 | 3.49 | 0.00 | 90 | 1012.4 |
| 20260510060225 | 68 | 360 | 0.0 | 0.9 | 0.00 | 3.49 | 0.00 | 90 | 1012.4 |
| 20260510060141 | 68 | 360 | 0.0 | 0.9 | 0.00 | 3.49 | 0.00 | 90 | 1012.4 |
| 20260510060058 | 68 | 360 | 0.0 | 0.9 | 0.00 | 3.49 | 0.00 | 90 | 1012.4 |
| 20260510055923 | 68 | 360 | 0.0 | 2.6 | 0.00 | 3.49 | 0.00 | 90 | 1012.3 |
| 20260510055837 | 68 | 360 | 0.0 | 2.6 | 0.00 | 3.49 | 0.00 | 90 | 1012.3 |
| 20260510055723 | 68 | 360 | 0.0 | 2.6 | 0.00 | 3.49 | 0.00 | 90 | 1012.4 |
| 20260510055648 | 68 | 360 | 0.0 | 2.6 | 0.00 | 3.49 | 0.00 | 90 | 1012.3 |
| 20260510055527 | 68 | 360 | 0.0 | 2.6 | 0.00 | 3.49 | 0.00 | 90 | 1012.3 |
| 20260510055431 | 68 | 360 | 0.0 | 2.6 | 0.00 | 3.49 | 0.00 | 90 | 1012.3 |
| 20260510055345 | 68 | 360 | 0.0 | 2.6 | 0.00 | 3.49 | 0.00 | 90 | 1012.3 |
| 20260510055231 | 68 | 360 | 0.0 | 2.6 | 0.00 | 3.49 | 0.00 | 90 | 1012.3 |
| 20260510055148 | 68 | 360 | 0.0 | 2.6 | 0.00 | 3.49 | 0.00 | 90 | 1012.3 |
| 20260510055049 | 68 | 360 | 0.0 | 2.6 | 0.00 | 3.49 | 0.00 | 90 | 1012.3 |
| 20260510054954 | 68 | 360 | 0.0 | 2.6 | 0.00 | 3.49 | 0.00 | 90 | 1012.3 |
| 20260510054850 | 68 | 360 | 0.0 | 2.6 | 0.00 | 3.49 | 0.00 | 90 | 1012.3 |
| 20260510054728 | 68 | 360 | 0.0 | 2.6 | 0.00 | 3.49 | 0.00 | 90 | 1012.4 |
| 20260510054640 | 68 | 360 | 0.0 | 2.6 | 0.00 | 3.49 | 0.00 | 90 | 1012.3 |
| 20260510054534 | 68 | 360 | 0.0 | 2.6 | 0.00 | 3.49 | 0.00 | 90 | 1012.3 |
| 20260510054422 | 68 | 360 | 0.9 | 2.6 | 0.00 | 3.49 | 0.00 | 90 | 1012.3 |
| 20260510054330 | 68 | 360 | 0.9 | 2.6 | 0.00 | 3.49 | 0.00 | 90 | 1012.3 |
| 20260510054244 | 68 | 360 | 0.9 | 2.6 | 0.00 | 3.49 | 0.00 | 90 | 1012.3 |
| 20260510054209 | 68 | 360 | 0.9 | 2.6 | 0.00 | 3.49 | 0.00 | 90 | 1012.3 |
| 20260510054024 | 68 | 360 | 0.9 | 2.6 | 0.00 | 3.49 | 0.00 | 90 | 1012.3 |
| 20260510053930 | 68 | 360 | 0.9 | 2.6 | 0.00 | 3.49 | 0.00 | 90 | 1012.3 |
| 20260510053845 | 68 | 360 | 0.9 | 2.6 | 0.00 | 3.49 | 0.00 | 90 | 1012.3 |
| 20260510053749 | 68 | 360 | 0.0 | 1.7 | 0.00 | 3.49 | 0.00 | 90 | 1012.3 |
| 20260510053654 | 68 | 360 | 0.0 | 1.7 | 0.00 | 3.49 | 0.00 | 90 | 1012.4 |
| 20260510053549 | 68 | 360 | 0.0 | 1.7 | 0.00 | 3.49 | 0.00 | 90 | 1012.4 |
| 20260510053442 | 68 | 360 | 0.0 | 1.7 | 0.00 | 3.49 | 0.00 | 90 | 1012.5 |
| 20260510053330 | 68 | 360 | 0.0 | 1.7 | 0.00 | 3.49 | 0.00 | 90 | 1012.4 |
| 20260510053248 | 68 | 360 | 0.0 | 1.7 | 0.00 | 3.49 | 0.00 | 90 | 1012.4 |
| 20260510053138 | 68 | 360 | 0.0 | 1.7 | 0.00 | 3.49 | 0.00 | 90 | 1012.4 |
| 20260510053034 | 68 | 360 | 0.0 | 1.7 | 0.00 | 3.49 | 0.00 | 90 | 1012.4 |
| 20260510052923 | 68 | 360 | 0.0 | 1.7 | 0.00 | 3.49 | 0.00 | 90 | 1012.5 |
| 20260510052837 | 68 | 360 | 0.0 | 1.7 | 0.00 | 3.49 | 0.00 | 90 | 1012.4 |
| 20260510052722 | 68 | 360 | 0.0 | 1.7 | 0.00 | 3.49 | 0.00 | 90 | 1012.4 |
| 20260510052647 | 68 | 360 | 0.0 | 1.7 | 0.00 | 3.49 | 0.00 | 90 | 1012.4 |
| 20260510052542 | 68 | 360 | 0.0 | 1.7 | 0.00 | 3.49 | 0.00 | 90 | 1012.4 |
| 20260510052456 | 68 | 360 | 0.0 | 1.7 | 0.00 | 3.49 | 0.00 | 90 | 1012.3 |
| 20260510052325 | 68 | 360 | 0.0 | 1.7 | 0.00 | 3.49 | 0.00 | 90 | 1012.3 |
| 20260510052221 | 68 | 360 | 0.0 | 1.7 | 0.00 | 3.49 | 0.00 | 90 | 1012.2 |
| 20260510052134 | 68 | 360 | 0.0 | 1.7 | 0.00 | 3.49 | 0.00 | 90 | 1012.2 |
| 20260510052030 | 68 | 360 | 0.0 | 1.7 | 0.00 | 3.49 | 0.00 | 90 | 1012.2 |
| 20260510051936 | 68 | 360 | 0.0 | 1.7 | 0.00 | 3.49 | 0.00 | 90 | 1012.2 |
| 20260510051826 | 68 | 360 | 0.0 | 1.7 | 0.00 | 3.49 | 0.00 | 90 | 1012.2 |
| 20260510051723 | 68 | 360 | 0.0 | 1.7 | 0.00 | 3.49 | 0.00 | 90 | 1012.3 |
| 20260510051635 | 68 | 360 | 0.0 | 1.7 | 0.00 | 3.49 | 0.00 | 90 | 1012.3 |
| 20260510051538 | 68 | 360 | 0.0 | 1.7 | 0.00 | 3.49 | 0.00 | 90 | 1012.3 |
| 20260510051423 | 68 | 360 | 0.0 | 1.7 | 0.00 | 3.49 | 0.00 | 90 | 1012.3 |
| 20260510051335 | 68 | 360 | 0.9 | 1.7 | 0.00 | 3.49 | 0.00 | 90 | 1012.4 |
| 20260510051226 | 68 | 360 | 0.0 | 1.7 | 0.00 | 3.49 | 0.00 | 90 | 1012.3 |
| 20260510051142 | 68 | 360 | 0.0 | 1.7 | 0.00 | 3.49 | 0.00 | 90 | 1012.4 |
| 20260510051022 | 68 | 360 | 0.0 | 0.9 | 0.00 | 3.49 | 0.00 | 90 | 1012.4 |
| 20260510050930 | 68 | 360 | 0.0 | 0.9 | 0.00 | 3.49 | 0.00 | 90 | 1012.4 |
| 20260510050836 | 69 | 360 | 0.9 | 1.7 | 0.00 | 3.53 | 3.49 | 90 | 1012.4 |
| 20260510050722 | 68 | 360 | 0.0 | 1.7 | 0.00 | 3.53 | 3.49 | 90 | 1012.4 |
| 20260510050630 | 68 | 360 | 0.0 | 1.7 | 0.00 | 3.53 | 3.49 | 90 | 1012.5 |
| 20260510050525 | 69 | 360 | 0.0 | 1.7 | 0.00 | 3.53 | 3.49 | 90 | 1012.5 |
| 20260510050439 | 68 | 360 | 0.0 | 1.7 | 0.00 | 3.53 | 3.49 | 90 | 1012.5 |
| 20260510050325 | 69 | 360 | 0.0 | 1.7 | 0.00 | 3.53 | 3.49 | 90 | 1012.6 |
| 20260510050222 | 68 | 360 | 0.0 | 1.7 | 0.00 | 3.53 | 3.49 | 90 | 1012.6 |
| 20260510050139 | 69 | 360 | 0.0 | 1.7 | 0.00 | 3.53 | 3.49 | 90 | 1012.6 |
| 20260510050053 | 69 | 360 | 0.0 | 2.6 | 0.00 | 3.53 | 3.49 | 90 | 1012.6 |
| 20260510045940 | 68 | 360 | 0.0 | 2.6 | 0.00 | 3.53 | 3.49 | 90 | 1012.7 |
| 20260510045827 | 69 | 360 | 0.0 | 2.6 | 0.00 | 3.53 | 3.49 | 90 | 1012.6 |
| 20260510045744 | 69 | 360 | 0.0 | 2.6 | 0.00 | 3.53 | 3.49 | 90 | 1012.7 |
| 20260510045636 | 68 | 360 | 0.0 | 2.6 | 0.00 | 3.53 | 3.49 | 90 | 1012.6 |
| 20260510045543 | 69 | 360 | 0.0 | 2.6 | 0.00 | 3.53 | 3.49 | 90 | 1012.6 |
| 20260510045431 | 68 | 360 | 0.9 | 2.6 | 0.00 | 3.53 | 3.49 | 90 | 1012.6 |
| 20260510045337 | 69 | 360 | 0.9 | 2.6 | 0.00 | 3.53 | 3.49 | 90 | 1012.5 |
| 20260510045225 | 69 | 360 | 0.9 | 2.6 | 0.00 | 3.53 | 3.49 | 90 | 1012.6 |
| 20260510045148 | 69 | 360 | 0.0 | 1.7 | 0.00 | 3.53 | 3.49 | 90 | 1012.5 |
| 20260510045024 | 69 | 360 | 0.0 | 3.5 | 0.00 | 3.53 | 3.49 | 90 | 1012.6 |
| 20260510044936 | 69 | 360 | 0.0 | 3.5 | 0.00 | 3.53 | 3.49 | 90 | 1012.7 |
| 20260510044824 | 69 | 360 | 0.9 | 3.5 | 0.00 | 3.53 | 3.49 | 90 | 1012.7 |
| 20260510044728 | 69 | 360 | 0.9 | 3.5 | 0.00 | 3.53 | 3.49 | 90 | 1012.7 |
| 20260510044633 | 69 | 360 | 0.9 | 3.5 | 0.00 | 3.53 | 3.49 | 90 | 1012.7 |
| 20260510044535 | 69 | 360 | 0.9 | 3.5 | 0.00 | 3.53 | 3.49 | 90 | 1012.7 |
| 20260510044426 | 69 | 360 | 0.0 | 3.5 | 0.00 | 3.53 | 3.49 | 90 | 1012.7 |
| 20260510044334 | 69 | 360 | 0.9 | 3.5 | 0.00 | 3.53 | 3.49 | 90 | 1012.6 |
| 20260510044242 | 69 | 360 | 0.9 | 3.5 | 0.00 | 3.53 | 3.49 | 90 | 1012.7 |
| 20260510044144 | 69 | 360 | 1.7 | 3.5 | 0.00 | 3.53 | 3.49 | 90 | 1012.7 |
| 20260510044019 | 69 | 360 | 1.7 | 3.5 | 0.00 | 3.53 | 3.49 | 90 | 1012.7 |
| 20260510043932 | 69 | 360 | 0.9 | 3.5 | 0.00 | 3.53 | 3.49 | 90 | 1012.8 |
| 20260510043823 | 69 | 360 | 0.9 | 3.5 | 0.00 | 3.53 | 3.49 | 90 | 1012.7 |
| 20260510043720 | 68 | 355 | 0.9 | 2.6 | 0.00 | 3.53 | 3.49 | 90 | 1012.8 |
| 20260510043632 | 68 | 355 | 0.9 | 2.6 | 0.00 | 3.53 | 3.49 | 90 | 1012.8 |
| 20260510043527 | 69 | 355 | 0.9 | 2.6 | 0.00 | 3.53 | 3.49 | 90 | 1012.8 |
| 20260510043440 | 69 | 355 | 0.9 | 3.5 | 0.00 | 3.53 | 3.49 | 90 | 1012.8 |
| 20260510043328 | 68 | 355 | 1.7 | 4.3 | 0.00 | 3.53 | 3.49 | 90 | 1012.8 |
| 20260510043249 | 69 | 360 | 0.9 | 4.3 | 0.00 | 3.53 | 3.49 | 90 | 1012.8 |
| 20260510043141 | 68 | 360 | 0.9 | 4.3 | 0.00 | 3.53 | 3.49 | 90 | 1012.7 |
| 20260510043037 | 69 | 360 | 0.9 | 4.3 | 0.00 | 3.53 | 3.49 | 90 | 1012.7 |
| 20260510042923 | 68 | 360 | 1.7 | 4.3 | 0.00 | 3.53 | 3.49 | 90 | 1012.6 |
| 20260510042858 | 68 | 360 | 1.7 | 4.3 | 0.00 | 3.53 | 3.49 | 90 | 1012.7 |
| 20260510042718 | 68 | 355 | 1.7 | 4.3 | 0.00 | 3.53 | 3.49 | 90 | 1012.6 |
| 20260510042630 | 68 | 355 | 1.7 | 4.3 | 0.00 | 3.53 | 3.49 | 90 | 1012.7 |
| 20260510042526 | 68 | 355 | 1.7 | 4.3 | 0.00 | 3.53 | 3.49 | 90 | 1012.7 |
| 20260510042433 | 68 | 355 | 0.9 | 4.3 | 0.00 | 3.53 | 3.49 | 90 | 1012.7 |
| 20260510042319 | 68 | 355 | 0.9 | 4.3 | 0.00 | 3.53 | 3.49 | 90 | 1012.7 |
| 20260510042222 | 68 | 355 | 1.7 | 4.3 | 0.00 | 3.53 | 3.49 | 90 | 1012.7 |
| 20260510042132 | 68 | 355 | 0.9 | 3.5 | 0.00 | 3.53 | 3.49 | 90 | 1012.7 |
| 20260510042035 | 68 | 355 | 0.9 | 3.5 | 0.00 | 3.53 | 3.49 | 90 | 1012.7 |
| 20260510041922 | 68 | 355 | 0.9 | 3.5 | 0.00 | 3.53 | 3.49 | 90 | 1012.7 |
| 20260510041829 | 68 | 355 | 0.9 | 3.5 | 0.00 | 3.53 | 3.49 | 90 | 1012.7 |
| 20260510041726 | 68 | 355 | 0.9 | 3.5 | 0.00 | 3.53 | 3.49 | 90 | 1012.7 |
| 20260510041637 | 68 | 355 | 0.9 | 3.5 | 0.00 | 3.53 | 3.49 | 90 | 1012.6 |
| 20260510041543 | 68 | 355 | 0.9 | 3.5 | 0.00 | 3.53 | 3.49 | 90 | 1012.6 |
| 20260510041430 | 68 | 355 | 0.9 | 3.5 | 0.00 | 3.53 | 3.49 | 90 | 1012.6 |
| 20260510041336 | 68 | 355 | 0.0 | 3.5 | 0.00 | 3.53 | 3.49 | 90 | 1012.5 |
| 20260510041222 | 68 | 355 | 0.0 | 3.5 | 0.01 | 3.53 | 3.49 | 90 | 1012.5 |
| 20260510041145 | 68 | 355 | 0.0 | 3.5 | 0.01 | 3.53 | 3.49 | 90 | 1012.4 |
| 20260510041025 | 68 | 355 | 0.9 | 3.5 | 0.01 | 3.53 | 3.49 | 90 | 1012.4 |
| 20260510040933 | 68 | 355 | 1.7 | 3.5 | 0.01 | 3.53 | 3.49 | 90 | 1012.4 |
| 20260510040821 | 68 | 355 | 0.9 | 3.5 | 0.01 | 4.41 | 3.49 | 90 | 1012.3 |
| 20260510040718 | 68 | 5 | 0.9 | 3.5 | 0.01 | 4.41 | 3.49 | 90 | 1012.3 |
| 20260510040630 | 68 | 44 | 0.9 | 3.5 | 0.01 | 4.41 | 3.49 | 90 | 1012.3 |
| 20260510040528 | 68 | 44 | 0.9 | 3.5 | 0.01 | 4.41 | 3.49 | 90 | 1012.3 |
| 20260510040442 | 68 | 44 | 0.9 | 2.6 | 0.01 | 4.41 | 3.49 | 90 | 1012.2 |
| 20260510040329 | 68 | 113 | 1.7 | 2.6 | 0.01 | 4.41 | 3.49 | 90 | 1012.2 |
| 20260510040226 | 68 | 144 | 0.9 | 2.6 | 0.01 | 4.41 | 3.49 | 90 | 1012.2 |
| 20260510040138 | 68 | 144 | 0.0 | 2.6 | 0.01 | 4.41 | 3.49 | 90 | 1012.1 |
| 20260510040055 | 68 | 144 | 0.0 | 2.6 | 0.01 | 4.41 | 3.49 | 90 | 1012.1 |
| 20260510035922 | 68 | 144 | 0.0 | 2.6 | 0.01 | 4.41 | 3.49 | 90 | 1012.1 |
| 20260510035837 | 68 | 144 | 0.0 | 2.6 | 0.01 | 4.41 | 3.49 | 90 | 1012.0 |
| 20260510035723 | 68 | 144 | 0.0 | 2.6 | 0.01 | 4.41 | 3.49 | 90 | 1012.0 |
| 20260510035639 | 68 | 144 | 0.9 | 2.6 | 0.01 | 4.41 | 3.49 | 90 | 1011.8 |
| 20260510035542 | 68 | 144 | 0.9 | 2.6 | 0.01 | 4.41 | 3.49 | 90 | 1011.8 |
| 20260510035449 | 68 | 172 | 0.0 | 1.7 | 0.01 | 4.41 | 3.49 | 90 | 1011.8 |
| 20260510035347 | 68 | 172 | 0.0 | 1.7 | 0.01 | 4.41 | 3.49 | 90 | 1011.8 |
| 20260510035243 | 68 | 172 | 0.0 | 1.7 | 0.01 | 4.41 | 3.49 | 90 | 1011.8 |
| 20260510035156 | 68 | 172 | 0.0 | 0.9 | 0.01 | 4.41 | 3.49 | 90 | 1011.8 |
| 20260510035037 | 68 | 172 | 0.0 | 0.9 | 0.01 | 4.41 | 3.49 | 90 | 1011.8 |
| 20260510034923 | 68 | 172 | 0.0 | 0.9 | 0.01 | 4.41 | 3.49 | 90 | 1011.9 |
| 20260510034830 | 68 | 172 | 0.0 | 0.0 | 0.01 | 4.41 | 3.49 | 90 | 1011.8 |
| 20260510034719 | 68 | 172 | 0.0 | 0.0 | 0.01 | 4.41 | 3.49 | 90 | 1011.8 |
| 20260510034642 | 68 | 172 | 0.0 | 0.0 | 0.01 | 4.41 | 3.49 | 90 | 1011.8 |
| 20260510034537 | 68 | 172 | 0.0 | 0.0 | 0.01 | 4.41 | 3.49 | 90 | 1011.8 |
| 20260510034423 | 68 | 172 | 0.0 | 0.0 | 0.01 | 4.41 | 3.49 | 90 | 1011.9 |
| 20260510034336 | 68 | 172 | 0.0 | 0.9 | 0.01 | 4.41 | 3.49 | 90 | 1011.9 |
| 20260510034221 | 68 | 172 | 0.0 | 1.7 | 0.01 | 4.41 | 3.49 | 90 | 1011.9 |
| 20260510034141 | 68 | 172 | 0.0 | 1.7 | 0.01 | 4.41 | 3.49 | 90 | 1011.9 |
| 20260510034044 | 68 | 172 | 0.0 | 1.7 | 0.01 | 4.41 | 3.49 | 90 | 1011.9 |
| 20260510033932 | 68 | 172 | 0.0 | 2.6 | 0.01 | 4.41 | 3.49 | 90 | 1011.8 |
| 20260510033820 | 68 | 172 | 0.0 | 2.6 | 0.01 | 4.41 | 3.49 | 90 | 1011.8 |
| 20260510033754 | 68 | 172 | 0.0 | 2.6 | 0.01 | 4.41 | 3.49 | 90 | 1011.8 |
| 20260510033634 | 68 | 172 | 0.0 | 2.6 | 0.01 | 4.41 | 3.49 | 90 | 1011.8 |
| 20260510033529 | 68 | 172 | 0.0 | 2.6 | 0.01 | 4.41 | 3.49 | 90 | 1011.8 |
| 20260510033443 | 68 | 172 | 0.0 | 2.6 | 0.01 | 4.41 | 3.49 | 90 | 1011.7 |
| 20260510033330 | 68 | 172 | 0.0 | 2.6 | 0.01 | 4.41 | 3.49 | 90 | 1011.7 |
| 20260510033227 | 68 | 172 | 0.9 | 2.6 | 0.01 | 4.41 | 3.49 | 90 | 1011.7 |
| 20260510033139 | 68 | 172 | 0.9 | 2.6 | 0.01 | 4.41 | 3.49 | 90 | 1011.7 |
| 20260510033018 | 68 | 172 | 0.9 | 2.6 | 0.01 | 4.41 | 3.49 | 90 | 1011.7 |
| 20260510032926 | 68 | 172 | 0.9 | 2.6 | 0.01 | 4.41 | 3.49 | 90 | 1011.7 |
| 20260510032839 | 68 | 172 | 0.9 | 2.6 | 0.01 | 4.41 | 3.49 | 90 | 1011.7 |
| 20260510032724 | 68 | 172 | 0.0 | 2.6 | 0.01 | 4.41 | 3.49 | 90 | 1011.8 |
| 20260510032708 | 68 | 172 | 0.0 | 2.6 | 0.02 | 4.41 | 3.49 | 90 | 1011.7 |
| 20260510032544 | 68 | 172 | 0.0 | 2.6 | 0.02 | 4.41 | 3.49 | 90 | 1011.8 |
| 20260510032444 | 68 | 172 | 0.0 | 2.6 | 0.02 | 4.41 | 3.49 | 90 | 1011.8 |
| 20260510032330 | 68 | 172 | 0.0 | 2.6 | 0.03 | 4.41 | 3.49 | 90 | 1011.7 |
| 20260510032227 | 68 | 172 | 0.0 | 2.6 | 0.03 | 4.41 | 3.49 | 90 | 1011.7 |
| 20260510032132 | 68 | 172 | 0.0 | 1.7 | 0.03 | 4.41 | 3.49 | 90 | 1011.7 |
| 20260510032034 | 68 | 172 | 0.0 | 1.7 | 0.03 | 4.41 | 3.49 | 90 | 1011.6 |
| 20260510031924 | 68 | 172 | 0.0 | 1.7 | 0.03 | 4.41 | 3.49 | 90 | 1011.6 |
| 20260510031831 | 68 | 172 | 0.0 | 1.7 | 0.03 | 4.41 | 3.49 | 90 | 1011.7 |
| 20260510031719 | 68 | 172 | 0.0 | 2.6 | 0.03 | 4.41 | 3.49 | 90 | 1011.7 |
| 20260510031642 | 68 | 172 | 0.0 | 2.6 | 0.03 | 4.41 | 3.49 | 90 | 1011.8 |
| 20260510031605 | 68 | 172 | 0.0 | 2.6 | 0.03 | 4.41 | 3.49 | 90 | 1011.8 |
| 20260510031431 | 68 | 172 | 0.0 | 2.6 | 0.03 | 4.41 | 3.49 | 90 | 1011.8 |
| 20260510031320 | 68 | 172 | 0.0 | 2.6 | 0.02 | 4.40 | 3.48 | 90 | 1011.7 |
| 20260510031226 | 68 | 171 | 0.0 | 2.6 | 0.02 | 4.40 | 3.48 | 90 | 1011.7 |
| 20260510031149 | 68 | 171 | 0.0 | 2.6 | 0.02 | 4.40 | 3.48 | 90 | 1011.7 |
| 20260510031026 | 68 | 171 | 0.0 | 2.6 | 0.02 | 4.40 | 3.48 | 90 | 1011.8 |
| 20260510030932 | 68 | 171 | 0.9 | 2.6 | 0.02 | 4.40 | 3.48 | 90 | 1011.8 |
| 20260510030827 | 68 | 171 | 0.9 | 2.6 | 0.02 | 4.40 | 3.48 | 90 | 1011.8 |
| 20260510030727 | 68 | 171 | 0.0 | 2.6 | 0.02 | 4.40 | 3.48 | 90 | 1011.9 |
| 20260510030632 | 68 | 171 | 0.0 | 2.6 | 0.02 | 4.40 | 3.48 | 90 | 1011.9 |
| 20260510030535 | 68 | 171 | 0.0 | 2.6 | 0.02 | 4.40 | 3.48 | 90 | 1011.9 |
| 20260510030421 | 68 | 171 | 0.9 | 2.6 | 0.02 | 4.40 | 3.48 | 90 | 1011.8 |
| 20260510030354 | 68 | 171 | 0.9 | 2.6 | 0.02 | 4.40 | 3.48 | 90 | 1011.9 |
| 20260510030224 | 68 | 171 | 0.0 | 2.6 | 0.02 | 4.40 | 3.48 | 90 | 1011.9 |
| 20260510030141 | 68 | 171 | 0.0 | 2.6 | 0.02 | 4.40 | 3.48 | 90 | 1011.8 |
| 20260510030044 | 68 | 171 | 0.0 | 2.6 | 0.02 | 4.40 | 3.48 | 90 | 1011.8 |
| 20260510025929 | 68 | 170 | 0.0 | 2.6 | 0.02 | 4.40 | 3.48 | 90 | 1011.8 |
| 20260510025837 | 68 | 170 | 0.9 | 2.6 | 0.02 | 4.40 | 3.48 | 90 | 1011.7 |
| 20260510025719 | 68 | 170 | 0.9 | 2.6 | 0.02 | 4.40 | 3.48 | 90 | 1011.7 |
| 20260510025630 | 68 | 170 | 0.9 | 2.6 | 0.02 | 4.40 | 3.48 | 90 | 1011.8 |
| 20260510025526 | 68 | 137 | 0.0 | 2.6 | 0.02 | 4.40 | 3.48 | 90 | 1011.8 |
| 20260510025439 | 68 | 136 | 0.0 | 2.6 | 0.02 | 4.40 | 3.48 | 90 | 1011.8 |
| 20260510025326 | 68 | 131 | 0.0 | 2.6 | 0.02 | 4.40 | 3.48 | 90 | 1011.8 |
| 20260510025224 | 68 | 127 | 0.9 | 2.6 | 0.02 | 4.40 | 3.48 | 90 | 1011.7 |
| 20260510025141 | 68 | 127 | 0.9 | 2.6 | 0.02 | 4.40 | 3.48 | 90 | 1011.7 |
| 20260510025037 | 68 | 127 | 0.9 | 2.6 | 0.02 | 4.40 | 3.48 | 90 | 1011.7 |
| 20260510024923 | 68 | 127 | 0.9 | 2.6 | 0.02 | 4.40 | 3.48 | 90 | 1011.7 |
| 20260510024837 | 68 | 127 | 0.9 | 2.6 | 0.02 | 4.40 | 3.48 | 90 | 1011.7 |
| 20260510024723 | 68 | 126 | 0.0 | 2.6 | 0.02 | 4.40 | 3.48 | 90 | 1011.7 |
| 20260510024641 | 68 | 126 | 0.0 | 2.6 | 0.02 | 4.40 | 3.48 | 90 | 1011.8 |
| 20260510024519 | 68 | 126 | 0.9 | 2.6 | 0.02 | 4.40 | 3.48 | 90 | 1011.8 |
| 20260510024432 | 68 | 126 | 0.9 | 2.6 | 0.02 | 4.40 | 3.48 | 90 | 1011.9 |
| 20260510024319 | 68 | 166 | 0.0 | 0.9 | 0.02 | 4.40 | 3.48 | 90 | 1012.0 |
| 20260510024225 | 68 | 166 | 0.0 | 0.9 | 0.02 | 4.40 | 3.48 | 90 | 1012.1 |
| 20260510024130 | 68 | 166 | 0.0 | 0.9 | 0.02 | 4.40 | 3.48 | 90 | 1012.1 |
| 20260510024028 | 68 | 166 | 0.0 | 0.9 | 0.02 | 4.40 | 3.48 | 90 | 1012.2 |
| 20260510023945 | 68 | 166 | 0.0 | 0.9 | 0.02 | 4.40 | 3.48 | 90 | 1012.2 |
| 20260510023824 | 68 | 166 | 0.0 | 0.9 | 0.02 | 4.40 | 3.48 | 90 | 1012.2 |
| 20260510023719 | 68 | 166 | 0.0 | 0.9 | 0.02 | 4.40 | 3.48 | 90 | 1012.2 |
| 20260510023655 | 68 | 166 | 0.0 | 1.7 | 0.02 | 4.40 | 3.48 | 90 | 1012.1 |
| 20260510023536 | 68 | 166 | 0.0 | 1.7 | 0.02 | 4.40 | 3.48 | 90 | 1012.2 |
| 20260510023426 | 68 | 166 | 0.0 | 1.7 | 0.02 | 4.40 | 3.48 | 90 | 1012.3 |
| 20260510023333 | 68 | 166 | 0.0 | 1.7 | 0.02 | 4.40 | 3.48 | 90 | 1012.4 |
| 20260510023220 | 68 | 166 | 0.0 | 1.7 | 0.02 | 4.40 | 3.48 | 90 | 1012.4 |
| 20260510023144 | 68 | 166 | 0.0 | 1.7 | 0.02 | 4.40 | 3.48 | 90 | 1012.5 |
| 20260510023019 | 68 | 166 | 0.0 | 1.7 | 0.02 | 4.40 | 3.48 | 90 | 1012.6 |
| 20260510022934 | 68 | 166 | 0.9 | 1.7 | 0.02 | 4.40 | 3.48 | 90 | 1012.6 |
| 20260510022823 | 68 | 166 | 0.9 | 1.7 | 0.02 | 4.40 | 3.48 | 90 | 1012.6 |
| 20260510022740 | 68 | 166 | 0.9 | 2.6 | 0.01 | 4.39 | 3.47 | 90 | 1012.6 |
| 20260510022631 | 68 | 166 | 0.0 | 0.9 | 0.01 | 4.39 | 3.47 | 90 | 1012.6 |
| 20260510022526 | 68 | 166 | 0.0 | 0.0 | 0.01 | 4.39 | 3.47 | 90 | 1012.5 |
| 20260510022440 | 68 | 166 | 0.0 | 0.0 | 0.00 | 4.38 | 3.46 | 90 | 1012.5 |
| 20260510022348 | 68 | 166 | 0.0 | 0.0 | 0.00 | 4.38 | 3.46 | 90 | 1012.5 |
| 20260510022219 | 68 | 166 | 0.0 | 0.0 | 0.00 | 4.38 | 3.46 | 90 | 1012.6 |
| 20260510022202 | 68 | 166 | 0.0 | 0.0 | 0.00 | 4.38 | 3.46 | 90 | 1012.7 |
| 20260510022103 | 68 | 166 | 0.0 | 0.0 | 0.00 | 4.38 | 3.46 | 90 | 1012.7 |
| 20260510021929 | 68 | 166 | 0.0 | 0.0 | 0.00 | 4.38 | 3.46 | 90 | 1012.6 |
| 20260510021856 | 68 | 166 | 0.0 | 0.9 | 0.00 | 4.38 | 3.46 | 90 | 1012.6 |
| 20260510021748 | 68 | 166 | 0.0 | 2.6 | 0.00 | 4.38 | 3.46 | 90 | 1012.6 |
| 20260510021711 | 68 | 166 | 0.0 | 2.6 | 0.00 | 4.38 | 3.46 | 90 | 1012.5 |
| 20260510021530 | 68 | 166 | 0.0 | 2.6 | 0.00 | 4.38 | 3.46 | 90 | 1012.4 |
| 20260510021437 | 68 | 166 | 0.0 | 2.6 | 0.00 | 4.38 | 3.46 | 90 | 1012.4 |
| 20260510021325 | 68 | 166 | 0.0 | 2.6 | 0.00 | 4.38 | 3.46 | 90 | 1012.3 |
| 20260510021223 | 68 | 166 | 0.0 | 2.6 | 0.00 | 4.38 | 3.46 | 90 | 1012.2 |
| 20260510021156 | 68 | 166 | 0.0 | 2.6 | 0.00 | 4.38 | 3.46 | 90 | 1012.1 |
| 20260510021036 | 68 | 166 | 0.9 | 2.6 | 0.00 | 4.38 | 3.46 | 90 | 1012.0 |
| 20260510020947 | 68 | 166 | 0.9 | 2.6 | 0.00 | 4.38 | 3.46 | 90 | 1011.9 |
| 20260510020840 | 68 | 166 | 0.9 | 1.7 | 0.00 | 4.38 | 3.46 | 90 | 1011.9 |
| 20260510020718 | 68 | 166 | 0.9 | 2.6 | 0.00 | 4.38 | 3.46 | 90 | 1011.9 |
| 20260510020644 | 68 | 166 | 0.0 | 2.6 | 0.00 | 4.38 | 3.46 | 90 | 1011.8 |
| 20260510020547 | 68 | 165 | 0.0 | 1.7 | 0.00 | 4.38 | 3.46 | 90 | 1011.8 |
| 20260510020434 | 68 | 165 | 0.0 | 1.7 | 0.00 | 4.38 | 3.46 | 90 | 1011.8 |
| 20260510020326 | 68 | 165 | 0.0 | 2.6 | 0.00 | 4.38 | 3.46 | 90 | 1011.9 |
| 20260510020223 | 68 | 165 | 0.0 | 2.6 | 0.00 | 4.38 | 3.46 | 90 | 1011.9 |
| 20260510020156 | 68 | 165 | 0.0 | 2.6 | 0.00 | 4.38 | 3.46 | 90 | 1011.9 |
| 20260510020058 | 68 | 165 | 0.0 | 2.6 | 0.00 | 4.38 | 3.46 | 90 | 1011.9 |
| 20260510015922 | 68 | 165 | 0.0 | 2.6 | 0.00 | 4.38 | 3.46 | 90 | 1011.9 |
| 20260510015828 | 68 | 165 | 0.0 | 2.6 | 0.00 | 4.38 | 3.46 | 90 | 1011.9 |
| 20260510015719 | 68 | 165 | 0.0 | 2.6 | 0.00 | 4.38 | 3.46 | 90 | 1011.9 |
| 20260510015705 | 68 | 165 | 0.9 | 2.6 | 0.00 | 4.38 | 3.46 | 90 | 1011.9 |
| 20260510015518 | 68 | 165 | 1.7 | 4.3 | 0.00 | 4.38 | 3.46 | 90 | 1011.9 |
| 20260510015452 | 68 | 165 | 0.9 | 4.3 | 0.00 | 4.38 | 3.46 | 90 | 1011.9 |
| 20260510015339 | 68 | 165 | 0.0 | 4.3 | 0.00 | 4.38 | 3.46 | 90 | 1011.8 |
| 20260510015222 | 68 | 165 | 0.0 | 4.3 | 0.00 | 4.38 | 3.46 | 90 | 1011.9 |
| 20260510015132 | 68 | 165 | 0.9 | 4.3 | 0.00 | 4.38 | 3.46 | 90 | 1011.9 |
| 20260510015035 | 68 | 165 | 0.9 | 4.3 | 0.00 | 4.38 | 3.46 | 90 | 1011.9 |
| 20260510014942 | 68 | 166 | 0.9 | 4.3 | 0.00 | 4.38 | 3.46 | 90 | 1011.8 |
| 20260510014835 | 68 | 166 | 0.9 | 4.3 | 0.00 | 4.38 | 3.46 | 90 | 1011.8 |
| 20260510014722 | 68 | 116 | 0.0 | 3.5 | 0.00 | 4.38 | 3.46 | 90 | 1011.8 |
| 20260510014639 | 68 | 116 | 0.9 | 3.5 | 0.00 | 4.38 | 3.46 | 90 | 1011.8 |
| 20260510014545 | 68 | 116 | 0.9 | 3.5 | 0.00 | 4.38 | 3.46 | 90 | 1011.8 |
| 20260510014451 | 68 | 111 | 1.7 | 3.5 | 0.00 | 4.38 | 3.46 | 90 | 1011.9 |
| 20260510014337 | 68 | 124 | 1.7 | 3.5 | 0.00 | 4.38 | 3.46 | 90 | 1011.9 |
| 20260510014224 | 68 | 122 | 0.9 | 3.5 | 0.00 | 4.38 | 3.46 | 90 | 1011.9 |
| 20260510014148 | 68 | 129 | 0.9 | 3.5 | 0.00 | 4.38 | 3.46 | 90 | 1011.9 |
| 20260510014024 | 68 | 136 | 0.9 | 3.5 | 0.00 | 4.38 | 3.46 | 90 | 1011.9 |
| 20260510013921 | 68 | 161 | 1.7 | 4.3 | 0.00 | 4.38 | 3.46 | 90 | 1011.9 |
| 20260510013828 | 68 | 155 | 1.7 | 4.3 | 0.00 | 4.38 | 3.46 | 90 | 1011.9 |
| 20260510013726 | 68 | 153 | 1.7 | 3.5 | 0.00 | 4.38 | 3.46 | 90 | 1011.9 |
| 20260510013637 | 68 | 107 | 1.7 | 2.6 | 0.00 | 4.38 | 3.46 | 90 | 1011.9 |
| 20260510013540 | 68 | 151 | 0.9 | 2.6 | 0.00 | 4.38 | 3.46 | 90 | 1011.9 |
| 20260510013447 | 68 | 150 | 1.7 | 2.6 | 0.00 | 4.38 | 3.46 | 90 | 1012.0 |
| 20260510013337 | 68 | 150 | 0.9 | 2.6 | 0.00 | 4.38 | 3.46 | 90 | 1012.1 |
| 20260510013224 | 68 | 151 | 0.9 | 2.6 | 0.00 | 4.38 | 3.46 | 90 | 1012.1 |
| 20260510013146 | 68 | 151 | 0.9 | 2.6 | 0.00 | 4.38 | 3.46 | 90 | 1012.2 |
| 20260510013040 | 68 | 150 | 0.9 | 2.6 | 0.00 | 4.38 | 3.46 | 90 | 1012.2 |
| 20260510012933 | 68 | 151 | 0.9 | 2.6 | 0.00 | 4.38 | 3.46 | 90 | 1012.1 |
| 20260510012821 | 68 | 150 | 0.9 | 2.6 | 0.00 | 4.38 | 3.46 | 90 | 1012.1 |
| 20260510012722 | 68 | 150 | 0.9 | 2.6 | 0.00 | 4.38 | 3.46 | 90 | 1012.2 |
| 20260510012635 | 68 | 151 | 0.9 | 2.6 | 0.00 | 4.38 | 3.46 | 90 | 1012.2 |
| 20260510012527 | 68 | 148 | 0.0 | 2.6 | 0.00 | 4.38 | 3.46 | 90 | 1012.3 |
| 20260510012435 | 68 | 148 | 0.0 | 2.6 | 0.00 | 4.38 | 3.46 | 90 | 1012.3 |
| 20260510012321 | 68 | 148 | 0.9 | 2.6 | 0.00 | 4.38 | 3.46 | 90 | 1012.3 |
| 20260510012220 | 68 | 148 | 0.9 | 2.6 | 0.00 | 4.38 | 3.46 | 90 | 1012.3 |
| 20260510012135 | 68 | 148 | 0.9 | 2.6 | 0.00 | 4.38 | 3.46 | 90 | 1012.3 |
| 20260510012059 | 68 | 148 | 0.9 | 2.6 | 0.00 | 4.38 | 3.46 | 90 | 1012.3 |
| 20260510011926 | 68 | 148 | 0.0 | 1.7 | 0.00 | 4.38 | 3.46 | 90 | 1012.3 |
| 20260510011833 | 68 | 148 | 0.0 | 0.9 | 0.00 | 4.38 | 3.46 | 90 | 1012.2 |
| 20260510011719 | 68 | 148 | 0.0 | 0.9 | 0.00 | 4.38 | 3.46 | 90 | 1012.3 |
| 20260510011647 | 68 | 148 | 0.0 | 0.9 | 0.00 | 4.38 | 3.46 | 90 | 1012.3 |
| 20260510011523 | 68 | 148 | 0.0 | 0.9 | 0.00 | 4.38 | 3.46 | 90 | 1012.3 |
| 20260510011429 | 68 | 148 | 0.0 | 0.9 | 0.00 | 4.38 | 3.46 | 90 | 1012.2 |
| 20260510011342 | 68 | 148 | 0.0 | 0.9 | 0.00 | 4.38 | 3.46 | 90 | 1012.2 |
| 20260510011220 | 68 | 148 | 0.0 | 0.9 | 0.00 | 4.38 | 3.46 | 90 | 1012.2 |
| 20260510011130 | 68 | 148 | 0.0 | 0.9 | 0.00 | 4.38 | 3.46 | 90 | 1012.1 |
| 20260510011032 | 68 | 148 | 0.0 | 0.9 | 0.00 | 4.38 | 3.46 | 90 | 1012.2 |
| 20260510010940 | 68 | 148 | 0.0 | 1.7 | 0.00 | 4.38 | 3.46 | 90 | 1012.2 |
| 20260510010854 | 68 | 148 | 0.0 | 1.7 | 0.00 | 4.39 | 3.46 | 90 | 1012.3 |
| 20260510010719 | 68 | 148 | 0.0 | 1.7 | 0.00 | 4.39 | 3.46 | 90 | 1012.4 |
| 20260510010644 | 68 | 148 | 0.0 | 1.7 | 0.00 | 4.39 | 3.46 | 90 | 1012.5 |
| 20260510010523 | 68 | 148 | 0.0 | 1.7 | 0.00 | 4.39 | 3.46 | 90 | 1012.5 |
| 20260510010450 | 68 | 148 | 0.0 | 1.7 | 0.00 | 4.39 | 3.46 | 90 | 1012.5 |
| 20260510010343 | 68 | 148 | 0.0 | 1.7 | 0.00 | 4.39 | 3.46 | 90 | 1012.5 |
| 20260510010240 | 68 | 148 | 0.9 | 1.7 | 0.00 | 4.39 | 3.46 | 90 | 1012.5 |
| 20260510010131 | 68 | 148 | 0.9 | 1.7 | 0.00 | 4.39 | 3.46 | 90 | 1012.5 |
| 20260510010045 | 68 | 148 | 0.0 | 1.7 | 0.00 | 4.39 | 3.46 | 90 | 1012.5 |
| 20260510005937 | 68 | 148 | 0.0 | 1.7 | 0.00 | 4.39 | 3.46 | 90 | 1012.5 |
| 20260510005827 | 68 | 148 | 0.0 | 1.7 | 0.00 | 4.39 | 3.46 | 90 | 1012.6 |
| 20260510005745 | 68 | 148 | 0.0 | 1.7 | 0.00 | 4.39 | 3.46 | 90 | 1012.5 |
| 20260510005637 | 68 | 148 | 0.0 | 1.7 | 0.00 | 4.39 | 3.46 | 90 | 1012.5 |
| 20260510005539 | 68 | 148 | 0.0 | 0.9 | 0.00 | 4.39 | 3.46 | 90 | 1012.5 |
| 20260510005427 | 68 | 148 | 0.0 | 0.9 | 0.00 | 4.39 | 3.46 | 90 | 1012.5 |
| 20260510005320 | 68 | 148 | 0.0 | 0.9 | 0.00 | 4.39 | 3.46 | 90 | 1012.5 |
| 20260510005225 | 68 | 148 | 0.0 | 0.9 | 0.00 | 4.39 | 3.46 | 90 | 1012.5 |
| 20260510005149 | 68 | 148 | 0.0 | 0.0 | 0.00 | 4.39 | 3.46 | 90 | 1012.6 |
| 20260510005025 | 68 | 148 | 0.0 | 0.0 | 0.00 | 4.39 | 3.46 | 90 | 1012.6 |
| 20260510004938 | 68 | 148 | 0.0 | 0.0 | 0.00 | 4.39 | 3.46 | 90 | 1012.6 |
| 20260510004825 | 68 | 148 | 0.0 | 0.0 | 0.00 | 4.39 | 3.46 | 90 | 1012.6 |
| 20260510004746 | 68 | 148 | 0.0 | 0.0 | 0.00 | 4.39 | 3.46 | 90 | 1012.6 |
| 20260510004637 | 68 | 148 | 0.0 | 0.0 | 0.00 | 4.39 | 3.46 | 90 | 1012.5 |
| 20260510004533 | 68 | 148 | 0.0 | 0.0 | 0.00 | 4.39 | 3.46 | 90 | 1012.5 |
| 20260510004419 | 68 | 148 | 0.0 | 0.0 | 0.00 | 4.39 | 3.46 | 90 | 1012.4 |
| 20260510004331 | 68 | 148 | 0.0 | 0.0 | 0.00 | 4.39 | 3.46 | 90 | 1012.4 |
| 20260510004248 | 68 | 148 | 0.0 | 0.0 | 0.00 | 4.39 | 3.46 | 90 | 1012.4 |
| 20260510004143 | 68 | 148 | 0.0 | 0.0 | 0.00 | 4.39 | 3.46 | 90 | 1012.4 |
| 20260510004019 | 68 | 148 | 0.0 | 0.0 | 0.00 | 4.39 | 3.46 | 90 | 1012.4 |
| 20260510003924 | 68 | 148 | 0.0 | 0.0 | 0.00 | 4.39 | 3.46 | 90 | 1012.4 |
| 20260510003837 | 68 | 148 | 0.0 | 0.0 | 0.00 | 4.39 | 3.46 | 90 | 1012.3 |
| 20260510003724 | 68 | 148 | 0.0 | 0.0 | 0.00 | 4.39 | 3.46 | 90 | 1012.4 |
| 20260510003640 | 68 | 148 | 0.0 | 0.0 | 0.00 | 4.39 | 3.46 | 90 | 1012.3 |
| 20260510003520 | 68 | 148 | 0.0 | 0.0 | 0.00 | 4.39 | 3.46 | 90 | 1012.3 |
| 20260510003434 | 68 | 148 | 0.0 | 0.0 | 0.00 | 4.39 | 3.46 | 90 | 1012.3 |
| 20260510003320 | 68 | 148 | 0.0 | 0.9 | 0.00 | 4.39 | 3.46 | 90 | 1012.3 |
| 20260510003225 | 68 | 148 | 0.0 | 0.9 | 0.00 | 4.39 | 3.46 | 90 | 1012.3 |
| 20260510003149 | 68 | 148 | 0.0 | 0.9 | 0.00 | 4.39 | 3.46 | 90 | 1012.3 |
| 20260510003028 | 68 | 148 | 0.0 | 0.9 | 0.00 | 4.39 | 3.46 | 90 | 1012.2 |
| 20260510002934 | 68 | 148 | 0.0 | 0.9 | 0.00 | 4.39 | 3.46 | 90 | 1012.2 |
| 20260510002821 | 68 | 148 | 0.0 | 0.9 | 0.00 | 4.39 | 3.46 | 90 | 1012.2 |
| 20260510002719 | 68 | 148 | 0.0 | 0.9 | 0.00 | 4.39 | 3.46 | 90 | 1012.2 |
| 20260510002632 | 68 | 148 | 0.0 | 0.9 | 0.00 | 4.39 | 3.46 | 90 | 1012.1 |
| 20260510002533 | 68 | 148 | 0.0 | 0.9 | 0.00 | 4.39 | 3.46 | 90 | 1012.2 |
| 20260510002419 | 68 | 148 | 0.0 | 0.9 | 0.00 | 4.39 | 3.46 | 90 | 1012.1 |
| 20260510002331 | 68 | 148 | 0.0 | 0.0 | 0.00 | 4.39 | 3.46 | 90 | 1012.1 |
| 20260510002249 | 68 | 148 | 0.0 | 0.0 | 0.00 | 4.39 | 3.46 | 90 | 1012.2 |
| 20260510002140 | 68 | 148 | 0.0 | 0.0 | 0.00 | 4.39 | 3.46 | 90 | 1012.3 |
| 20260510002037 | 68 | 148 | 0.0 | 0.0 | 0.00 | 4.39 | 3.46 | 90 | 1012.2 |
| 20260510001928 | 68 | 148 | 0.0 | 0.0 | 0.01 | 4.39 | 3.46 | 90 | 1012.2 |
| 20260510001842 | 68 | 148 | 0.0 | 0.0 | 0.01 | 4.39 | 3.46 | 90 | 1012.1 |
| 20260510001740 | 68 | 148 | 0.0 | 0.0 | 0.01 | 4.39 | 3.46 | 90 | 1012.0 |
| 20260510001632 | 68 | 148 | 0.0 | 0.0 | 0.01 | 4.39 | 3.46 | 90 | 1012.0 |
| 20260510001526 | 68 | 148 | 0.0 | 0.9 | 0.01 | 4.39 | 3.46 | 90 | 1011.9 |
| 20260510001438 | 68 | 148 | 0.0 | 0.9 | 0.01 | 4.39 | 3.46 | 90 | 1011.9 |
| 20260510001328 | 68 | 148 | 0.0 | 1.7 | 0.01 | 4.39 | 3.46 | 90 | 1011.9 |
| 20260510001225 | 68 | 148 | 0.0 | 1.7 | 0.01 | 4.39 | 3.46 | 90 | 1011.8 |
| 20260510001138 | 68 | 148 | 0.0 | 1.7 | 0.01 | 4.39 | 3.46 | 90 | 1011.8 |
| 20260510001103 | 68 | 148 | 0.0 | 1.7 | 0.01 | 4.39 | 3.46 | 90 | 1011.7 |
| 20260510000928 | 68 | 148 | 0.0 | 1.7 | 0.01 | 4.39 | 3.46 | 90 | 1011.8 |
| 20260510000818 | 68 | 148 | 0.0 | 1.7 | 0.01 | 4.42 | 3.46 | 90 | 1011.7 |
| 20260510000724 | 68 | 148 | 0.0 | 1.7 | 0.01 | 4.42 | 3.46 | 90 | 1011.7 |
| 20260510000649 | 68 | 148 | 0.9 | 1.7 | 0.01 | 4.42 | 3.46 | 90 | 1011.7 |
| 20260510000524 | 68 | 148 | 0.9 | 1.7 | 0.01 | 4.42 | 3.46 | 90 | 1011.7 |
| 20260510000433 | 68 | 148 | 0.9 | 1.7 | 0.01 | 4.42 | 3.46 | 90 | 1011.7 |
| 20260510000319 | 68 | 148 | 0.0 | 1.7 | 0.01 | 4.42 | 3.46 | 90 | 1011.6 |
| 20260510000220 | 67 | 148 | 0.0 | 0.0 | 0.01 | 4.42 | 3.46 | 90 | 1011.6 |
| 20260510000133 | 67 | 148 | 0.0 | 0.0 | 0.01 | 4.42 | 3.46 | 90 | 1011.6 |
| 20260510000028 | 67 | 148 | 0.0 | 0.0 | 0.01 | 4.42 | 3.46 | 90 | 1011.5 |
| 20260509235942 | 68 | 148 | 0.0 | 0.0 | 0.01 | 4.42 | 3.46 | 90 | 1011.4 |
| 20260509235829 | 67 | 148 | 0.0 | 0.0 | 0.01 | 4.42 | 3.46 | 90 | 1011.4 |
| 20260509235719 | 67 | 148 | 0.0 | 0.0 | 0.01 | 4.42 | 3.46 | 90 | 1011.3 |
| 20260509235645 | 67 | 148 | 0.0 | 0.0 | 0.01 | 4.42 | 3.46 | 90 | 1011.2 |
| 20260509235520 | 67 | 148 | 0.0 | 0.0 | 0.01 | 4.42 | 3.46 | 90 | 1011.1 |
| 20260509235427 | 67 | 148 | 0.0 | 0.9 | 0.01 | 4.42 | 3.46 | 90 | 1011.0 |
| 20260509235334 | 67 | 148 | 0.0 | 0.9 | 0.01 | 4.42 | 3.46 | 90 | 1011.0 |
| 20260509235222 | 67 | 148 | 0.0 | 0.9 | 0.01 | 4.42 | 3.46 | 90 | 1010.9 |
| 20260509235147 | 67 | 148 | 0.0 | 0.9 | 0.01 | 4.42 | 3.46 | 90 | 1010.8 |
| 20260509235022 | 67 | 148 | 0.0 | 0.9 | 0.02 | 4.42 | 3.46 | 90 | 1010.9 |
| 20260509234935 | 67 | 148 | 0.0 | 0.9 | 0.02 | 4.42 | 3.46 | 90 | 1010.8 |
| 20260509234823 | 67 | 148 | 0.0 | 0.9 | 0.02 | 4.42 | 3.46 | 90 | 1010.8 |
| 20260509234720 | 67 | 148 | 0.0 | 0.9 | 0.02 | 4.42 | 3.46 | 90 | 1010.8 |
| 20260509234632 | 67 | 148 | 0.0 | 0.9 | 0.02 | 4.42 | 3.46 | 90 | 1010.8 |
| 20260509234539 | 67 | 148 | 0.0 | 0.9 | 0.02 | 4.42 | 3.46 | 90 | 1010.8 |
| 20260509234426 | 67 | 148 | 0.0 | 0.0 | 0.02 | 4.42 | 3.46 | 90 | 1010.8 |
| 20260509234334 | 67 | 148 | 0.0 | 0.0 | 0.02 | 4.42 | 3.46 | 90 | 1010.8 |
| 20260509234219 | 67 | 148 | 0.0 | 0.9 | 0.02 | 4.42 | 3.46 | 90 | 1010.8 |
| 20260509234143 | 67 | 148 | 0.0 | 0.9 | 0.03 | 4.42 | 3.46 | 90 | 1010.8 |
| 20260509234024 | 67 | 148 | 0.0 | 0.9 | 0.03 | 4.42 | 3.46 | 90 | 1010.8 |
| 20260509233930 | 67 | 148 | 0.0 | 0.9 | 0.03 | 4.42 | 3.46 | 90 | 1010.7 |
| 20260509233844 | 67 | 148 | 0.0 | 0.9 | 0.03 | 4.42 | 3.46 | 90 | 1010.7 |
| 20260509233740 | 67 | 148 | 0.0 | 0.9 | 0.04 | 4.42 | 3.46 | 90 | 1010.7 |
| 20260509233652 | 67 | 148 | 0.0 | 0.9 | 0.04 | 4.42 | 3.46 | 90 | 1010.7 |
| 20260509233529 | 67 | 148 | 0.0 | 0.9 | 0.04 | 4.42 | 3.46 | 90 | 1010.7 |
| 20260509233420 | 67 | 148 | 0.0 | 0.9 | 0.04 | 4.42 | 3.46 | 90 | 1010.8 |
| 20260509233328 | 67 | 148 | 0.0 | 0.9 | 0.04 | 4.42 | 3.46 | 90 | 1010.7 |
| 20260509233225 | 67 | 148 | 0.0 | 0.9 | 0.05 | 4.42 | 3.46 | 90 | 1010.8 |
| 20260509233157 | 67 | 148 | 0.0 | 0.9 | 0.05 | 4.42 | 3.46 | 90 | 1010.7 |
| 20260509233040 | 67 | 148 | 0.0 | 2.6 | 0.05 | 4.42 | 3.46 | 90 | 1010.7 |
| 20260509232946 | 67 | 148 | 0.0 | 2.6 | 0.05 | 4.42 | 3.46 | 90 | 1010.7 |
| 20260509232835 | 67 | 148 | 0.0 | 2.6 | 0.06 | 4.42 | 3.46 | 90 | 1010.6 |
| 20260509232723 | 67 | 148 | 0.0 | 2.6 | 0.06 | 4.42 | 3.46 | 90 | 1010.6 |
| 20260509232647 | 67 | 148 | 0.0 | 2.6 | 0.06 | 4.42 | 3.46 | 90 | 1010.5 |
| 20260509232522 | 67 | 156 | 0.0 | 2.6 | 0.07 | 4.42 | 3.46 | 90 | 1010.6 |
| 20260509232429 | 67 | 156 | 0.0 | 2.6 | 0.07 | 4.42 | 3.46 | 90 | 1010.5 |
| 20260509232320 | 67 | 156 | 0.0 | 2.6 | 0.08 | 4.42 | 3.46 | 90 | 1010.4 |
| 20260509232223 | 67 | 156 | 0.9 | 2.6 | 0.08 | 4.42 | 3.46 | 90 | 1010.4 |
| 20260509232158 | 67 | 155 | 0.9 | 2.6 | 0.09 | 4.42 | 3.46 | 90 | 1010.3 |
| 20260509232032 | 67 | 153 | 1.7 | 2.6 | 0.09 | 4.42 | 3.46 | 90 | 1010.3 |
| 20260509231920 | 67 | 154 | 0.9 | 2.6 | 0.08 | 4.41 | 3.45 | 90 | 1010.2 |
| 20260509231828 | 67 | 153 | 0.9 | 2.6 | 0.08 | 4.41 | 3.45 | 90 | 1010.1 |
| 20260509231719 | 67 | 152 | 0.0 | 2.6 | 0.09 | 4.41 | 3.45 | 90 | 1010.0 |
| 20260509231642 | 67 | 152 | 0.0 | 4.3 | 0.09 | 4.41 | 3.45 | 90 | 1010.1 |
| 20260509231537 | 67 | 152 | 0.0 | 5.2 | 0.09 | 4.41 | 3.45 | 90 | 1010.1 |
| 20260509231424 | 67 | 152 | 0.0 | 5.2 | 0.09 | 4.41 | 3.45 | 90 | 1010.1 |
| 20260509231338 | 67 | 152 | 0.0 | 5.2 | 0.10 | 4.41 | 3.45 | 90 | 1010.2 |
| 20260509231238 | 67 | 152 | 0.0 | 5.2 | 0.10 | 4.41 | 3.45 | 90 | 1010.2 |
| 20260509231151 | 67 | 152 | 0.9 | 6.1 | 0.10 | 4.41 | 3.45 | 90 | 1010.2 |
| 20260509231032 | 67 | 152 | 0.0 | 6.1 | 0.11 | 4.41 | 3.45 | 90 | 1010.2 |
| 20260509230935 | 67 | 152 | 0.9 | 6.1 | 0.11 | 4.41 | 3.45 | 90 | 1010.2 |
| 20260509230823 | 67 | 152 | 1.7 | 6.1 | 0.11 | 4.64 | 3.45 | 90 | 1010.2 |
| 20260509230720 | 67 | 118 | 1.7 | 6.1 | 0.12 | 4.64 | 3.45 | 90 | 1010.1 |
| 20260509230637 | 67 | 161 | 1.7 | 6.1 | 0.12 | 4.64 | 3.45 | 90 | 1010.1 |
| 20260509230600 | 67 | 159 | 0.9 | 6.1 | 0.12 | 4.64 | 3.45 | 90 | 1010.2 |
| 20260509230426 | 67 | 161 | 1.7 | 6.1 | 0.12 | 4.64 | 3.45 | 90 | 1010.1 |
| 20260509230331 | 67 | 161 | 1.7 | 6.1 | 0.13 | 4.64 | 3.45 | 90 | 1010.1 |
| 20260509230228 | 67 | 165 | 0.0 | 4.3 | 0.13 | 4.64 | 3.45 | 90 | 1010.2 |
| 20260509230202 | 67 | 165 | 0.0 | 4.3 | 0.13 | 4.64 | 3.45 | 90 | 1010.2 |
| 20260509230021 | 67 | 165 | 0.9 | 4.3 | 0.13 | 4.64 | 3.45 | 90 | 1010.2 |
| 20260509225928 | 67 | 165 | 0.9 | 4.3 | 0.13 | 4.64 | 3.45 | 90 | 1010.3 |
| 20260509225842 | 67 | 165 | 1.7 | 4.3 | 0.14 | 4.64 | 3.45 | 90 | 1010.3 |
| 20260509225720 | 67 | 235 | 0.9 | 3.5 | 0.14 | 4.64 | 3.45 | 90 | 1010.3 |
| 20260509225652 | 67 | 336 | 0.9 | 3.5 | 0.14 | 4.64 | 3.45 | 90 | 1010.3 |
| 20260509225528 | 67 | 158 | 0.0 | 3.5 | 0.14 | 4.64 | 3.45 | 90 | 1010.4 |
| 20260509225418 | 67 | 134 | 0.0 | 3.5 | 0.14 | 4.64 | 3.45 | 90 | 1010.4 |
| 20260509225325 | 67 | 134 | 0.0 | 3.5 | 0.15 | 4.64 | 3.45 | 90 | 1010.5 |
| 20260509225220 | 67 | 134 | 0.9 | 3.5 | 0.15 | 4.64 | 3.45 | 90 | 1010.5 |
| 20260509225132 | 67 | 134 | 0.9 | 3.5 | 0.14 | 4.63 | 3.44 | 90 | 1010.6 |
| 20260509225056 | 67 | 131 | 1.7 | 3.5 | 0.15 | 4.63 | 3.44 | 90 | 1010.6 |
| 20260509224925 | 67 | 176 | 0.9 | 2.6 | 0.15 | 4.63 | 3.44 | 90 | 1010.7 |
| 20260509224831 | 67 | 118 | 0.9 | 2.6 | 0.15 | 4.63 | 3.44 | 90 | 1010.7 |
| 20260509224728 | 67 | 123 | 0.9 | 2.6 | 0.16 | 4.63 | 3.44 | 90 | 1010.8 |
| 20260509224700 | 67 | 123 | 0.0 | 2.6 | 0.16 | 4.63 | 3.44 | 90 | 1010.9 |
| 20260509224544 | 67 | 123 | 0.9 | 2.6 | 0.16 | 4.63 | 3.44 | 90 | 1010.9 |
| 20260509224422 | 67 | 143 | 1.7 | 2.6 | 0.16 | 4.63 | 3.44 | 90 | 1010.9 |
| 20260509224320 | 67 | 115 | 0.9 | 2.6 | 0.17 | 4.63 | 3.44 | 90 | 1010.9 |
| 20260509224228 | 67 | 119 | 0.9 | 2.6 | 0.16 | 4.62 | 3.43 | 90 | 1010.9 |
| 20260509224213 | 67 | 136 | 0.9 | 4.3 | 0.16 | 4.62 | 3.43 | 90 | 1011.0 |
| 20260509224027 | 67 | 136 | 0.9 | 4.3 | 0.16 | 4.62 | 3.43 | 90 | 1011.1 |
| 20260509224000 | 67 | 126 | 0.9 | 4.3 | 0.17 | 4.62 | 3.43 | 90 | 1011.0 |
| 20260509223847 | 67 | 132 | 0.0 | 4.3 | 0.16 | 4.61 | 3.42 | 90 | 1011.1 |
| 20260509223727 | 67 | 132 | 0.0 | 4.3 | 0.17 | 4.61 | 3.42 | 90 | 1011.0 |
| 20260509223639 | 67 | 132 | 0.0 | 4.3 | 0.17 | 4.61 | 3.42 | 90 | 1011.0 |
| 20260509223602 | 67 | 134 | 0.0 | 4.3 | 0.17 | 4.61 | 3.42 | 90 | 1011.0 |
| 20260509223429 | 67 | 134 | 0.9 | 4.3 | 0.18 | 4.61 | 3.42 | 90 | 1011.1 |
| 20260509223336 | 67 | 134 | 0.9 | 4.3 | 0.18 | 4.61 | 3.42 | 90 | 1011.1 |
| 20260509223222 | 67 | 163 | 0.9 | 3.5 | 0.18 | 4.60 | 3.41 | 90 | 1011.1 |
| 20260509223207 | 67 | 163 | 1.7 | 3.5 | 0.18 | 4.60 | 3.41 | 90 | 1011.2 |
| 20260509223025 | 67 | 135 | 0.9 | 3.5 | 0.18 | 4.60 | 3.41 | 90 | 1011.2 |
| 20260509222939 | 67 | 125 | 0.0 | 3.5 | 0.17 | 4.59 | 3.40 | 90 | 1011.2 |
| 20260509222827 | 67 | 107 | 0.9 | 1.7 | 0.18 | 4.59 | 3.40 | 90 | 1011.1 |
| 20260509222724 | 67 | 106 | 0.9 | 1.7 | 0.18 | 4.59 | 3.40 | 90 | 1011.0 |
| 20260509222636 | 67 | 105 | 0.0 | 1.7 | 0.17 | 4.58 | 3.39 | 90 | 1010.9 |
| 20260509222536 | 67 | 105 | 0.0 | 0.9 | 0.17 | 4.58 | 3.39 | 90 | 1010.9 |
| 20260509222422 | 67 | 103 | 0.0 | 0.9 | 0.17 | 4.57 | 3.38 | 90 | 1010.9 |
| 20260509222356 | 67 | 103 | 0.0 | 0.9 | 0.17 | 4.57 | 3.38 | 90 | 1011.1 |
| 20260509222220 | 67 | 103 | 0.0 | 0.9 | 0.16 | 4.56 | 3.37 | 90 | 1011.1 |
| 20260509222137 | 67 | 104 | 0.0 | 0.9 | 0.17 | 4.56 | 3.37 | 90 | 1011.2 |
| 20260509222039 | 67 | 104 | 0.0 | 0.9 | 0.17 | 4.56 | 3.37 | 90 | 1011.2 |
| 20260509221930 | 67 | 104 | 0.0 | 0.9 | 0.17 | 4.56 | 3.37 | 90 | 1011.2 |
| 20260509221837 | 67 | 103 | 0.0 | 0.9 | 0.17 | 4.55 | 3.36 | 90 | 1011.2 |
| 20260509221751 | 67 | 103 | 0.0 | 0.0 | 0.17 | 4.55 | 3.36 | 90 | 1011.2 |
| 20260509221646 | 67 | 103 | 0.0 | 0.0 | 0.18 | 4.55 | 3.36 | 90 | 1011.2 |
| 20260509221521 | 67 | 103 | 0.0 | 0.0 | 0.19 | 4.55 | 3.36 | 90 | 1011.1 |
| 20260509221456 | 67 | 103 | 0.0 | 0.0 | 0.18 | 4.54 | 3.35 | 90 | 1011.1 |
| 20260509221325 | 67 | 103 | 0.0 | 0.0 | 0.19 | 4.54 | 3.35 | 90 | 1011.1 |
| 20260509221222 | 67 | 103 | 0.0 | 0.0 | 0.20 | 4.54 | 3.35 | 90 | 1011.1 |
| 20260509221156 | 67 | 103 | 0.0 | 0.0 | 0.20 | 4.54 | 3.35 | 90 | 1011.1 |
| 20260509221037 | 67 | 103 | 0.0 | 0.0 | 0.20 | 4.53 | 3.34 | 90 | 1011.1 |
| 20260509220924 | 67 | 103 | 0.0 | 0.0 | 0.20 | 4.53 | 3.34 | 90 | 1011.2 |
| 20260509220830 | 67 | 103 | 0.0 | 0.0 | 0.21 | 4.67 | 3.34 | 90 | 1011.2 |
| 20260509220720 | 67 | 103 | 0.0 | 0.0 | 0.20 | 4.66 | 3.33 | 90 | 1011.3 |
| 20260509220704 | 67 | 103 | 0.0 | 0.0 | 0.21 | 4.66 | 3.33 | 90 | 1011.4 |
| 20260509220519 | 67 | 103 | 0.0 | 0.0 | 0.21 | 4.66 | 3.33 | 90 | 1011.4 |
| 20260509220425 | 67 | 103 | 0.0 | 0.0 | 0.21 | 4.65 | 3.32 | 90 | 1011.5 |
| 20260509220339 | 67 | 103 | 0.0 | 0.9 | 0.21 | 4.65 | 3.32 | 90 | 1011.6 |
| 20260509220221 | 67 | 103 | 0.0 | 0.9 | 0.22 | 4.65 | 3.32 | 90 | 1011.6 |
| 20260509220147 | 67 | 103 | 0.0 | 0.9 | 0.22 | 4.65 | 3.32 | 90 | 1011.6 |
| 20260509220021 | 67 | 103 | 0.0 | 0.9 | 0.23 | 4.65 | 3.32 | 90 | 1011.6 |
| 20260509215934 | 67 | 103 | 0.0 | 0.9 | 0.23 | 4.64 | 3.31 | 90 | 1011.7 |
| 20260509215821 | 67 | 103 | 0.0 | 0.9 | 0.23 | 4.64 | 3.31 | 90 | 1011.7 |
| 20260509215718 | 67 | 103 | 0.0 | 0.9 | 0.24 | 4.64 | 3.31 | 90 | 1011.7 |
| 20260509215653 | 67 | 103 | 0.0 | 0.9 | 0.25 | 4.64 | 3.31 | 90 | 1011.7 |
| 20260509215535 | 67 | 103 | 0.0 | 0.9 | 0.25 | 4.64 | 3.31 | 90 | 1011.7 |
| 20260509215422 | 67 | 103 | 0.0 | 0.0 | 0.25 | 4.63 | 3.30 | 90 | 1011.7 |
| 20260509215328 | 67 | 103 | 0.0 | 0.0 | 0.25 | 4.63 | 3.30 | 90 | 1011.7 |
| 20260509215227 | 67 | 103 | 0.0 | 0.0 | 0.26 | 4.63 | 3.30 | 90 | 1011.8 |
| 20260509215140 | 67 | 103 | 0.0 | 0.9 | 0.27 | 4.63 | 3.30 | 90 | 1011.7 |
| 20260509215020 | 67 | 103 | 0.0 | 0.9 | 0.27 | 4.62 | 3.29 | 90 | 1011.7 |
| 20260509214928 | 67 | 103 | 0.0 | 0.9 | 0.27 | 4.62 | 3.29 | 90 | 1011.6 |
| 20260509214840 | 67 | 103 | 0.0 | 0.9 | 0.28 | 4.62 | 3.29 | 90 | 1011.6 |
| 20260509214728 | 67 | 103 | 0.0 | 0.9 | 0.28 | 4.61 | 3.28 | 90 | 1011.4 |
| 20260509214644 | 67 | 103 | 0.0 | 0.9 | 0.28 | 4.61 | 3.28 | 90 | 1011.3 |
| 20260509214523 | 67 | 103 | 0.0 | 0.9 | 0.29 | 4.61 | 3.28 | 90 | 1011.2 |
| 20260509214458 | 67 | 103 | 0.0 | 0.9 | 0.28 | 4.60 | 3.27 | 90 | 1011.1 |
| 20260509214325 | 67 | 103 | 0.0 | 0.9 | 0.29 | 4.60 | 3.27 | 90 | 1011.1 |
| 20260509214223 | 67 | 103 | 0.0 | 1.7 | 0.30 | 4.60 | 3.27 | 90 | 1011.0 |
| 20260509214135 | 67 | 103 | 0.0 | 1.7 | 0.31 | 4.60 | 3.27 | 90 | 1011.0 |
| 20260509214031 | 67 | 103 | 0.0 | 1.7 | 0.30 | 4.59 | 3.26 | 90 | 1010.9 |
| 20260509213923 | 67 | 103 | 0.0 | 1.7 | 0.31 | 4.59 | 3.26 | 90 | 1010.9 |
| 20260509213856 | 67 | 103 | 0.0 | 1.7 | 0.31 | 4.58 | 3.25 | 90 | 1010.9 |
| 20260509213749 | 67 | 103 | 0.0 | 1.7 | 0.34 | 4.58 | 3.25 | 90 | 1010.9 |
| 20260509213646 | 67 | 103 | 0.0 | 1.7 | 0.37 | 4.58 | 3.25 | 90 | 1010.9 |
| 20260509213521 | 67 | 103 | 0.9 | 1.7 | 0.42 | 4.57 | 3.24 | 90 | 1010.9 |
| 20260509213435 | 67 | 103 | 0.9 | 1.7 | 0.46 | 4.57 | 3.24 | 90 | 1010.8 |
| 20260509213321 | 67 | 159 | 0.0 | 1.7 | 0.51 | 4.56 | 3.23 | 90 | 1010.8 |
| 20260509213220 | 67 | 159 | 0.0 | 0.9 | 0.53 | 4.56 | 3.23 | 90 | 1010.8 |
| 20260509213154 | 67 | 159 | 0.0 | 0.9 | 0.54 | 4.56 | 3.23 | 90 | 1010.7 |
| 20260509213028 | 67 | 159 | 0.0 | 0.9 | 0.54 | 4.56 | 3.23 | 90 | 1010.7 |
| 20260509212940 | 67 | 159 | 0.0 | 0.9 | 0.55 | 4.56 | 3.23 | 90 | 1010.8 |
| 20260509212849 | 67 | 159 | 0.0 | 2.6 | 0.54 | 4.55 | 3.22 | 90 | 1010.7 |
| 20260509212720 | 67 | 159 | 0.0 | 2.6 | 0.54 | 4.55 | 3.22 | 90 | 1010.7 |
| 20260509212643 | 67 | 159 | 0.0 | 2.6 | 0.55 | 4.55 | 3.22 | 90 | 1010.7 |
| 20260509212540 | 67 | 159 | 0.0 | 2.6 | 0.54 | 4.54 | 3.21 | 90 | 1010.8 |
| 20260509212425 | 67 | 159 | 0.0 | 2.6 | 0.55 | 4.54 | 3.21 | 90 | 1010.8 |
| 20260509212339 | 67 | 159 | 0.0 | 2.6 | 0.55 | 4.54 | 3.21 | 90 | 1010.9 |
| 20260509212229 | 67 | 159 | 0.0 | 2.6 | 0.54 | 4.53 | 3.20 | 90 | 1011.0 |
| 20260509212214 | 67 | 159 | 0.0 | 2.6 | 0.55 | 4.53 | 3.20 | 90 | 1011.1 |
| 20260509212027 | 67 | 159 | 0.9 | 4.3 | 0.55 | 4.53 | 3.20 | 90 | 1011.0 |
| 20260509211934 | 67 | 159 | 0.9 | 4.3 | 0.54 | 4.52 | 3.19 | 90 | 1011.1 |
| 20260509211821 | 67 | 160 | 0.0 | 4.3 | 0.54 | 4.52 | 3.19 | 90 | 1011.1 |
| 20260509211718 | 67 | 160 | 0.0 | 4.3 | 0.53 | 4.51 | 3.18 | 90 | 1011.1 |
| 20260509211635 | 67 | 160 | 0.9 | 4.3 | 0.53 | 4.51 | 3.18 | 90 | 1011.2 |
| 20260509211530 | 67 | 160 | 0.9 | 4.3 | 0.53 | 4.50 | 3.17 | 90 | 1011.2 |
| 20260509211426 | 67 | 160 | 0.0 | 4.3 | 0.52 | 4.49 | 3.16 | 90 | 1011.2 |
| 20260509211331 | 67 | 160 | 0.0 | 4.3 | 0.52 | 4.49 | 3.16 | 90 | 1011.3 |
| 20260509211218 | 67 | 160 | 0.9 | 4.3 | 0.51 | 4.48 | 3.15 | 90 | 1011.3 |
| 20260509211145 | 67 | 160 | 0.9 | 4.3 | 0.51 | 4.48 | 3.15 | 90 | 1011.3 |
| 20260509211020 | 67 | 157 | 0.9 | 1.7 | 0.50 | 4.47 | 3.14 | 90 | 1011.3 |
| 20260509210927 | 67 | 157 | 0.9 | 2.6 | 0.49 | 4.46 | 3.13 | 90 | 1011.2 |
| 20260509210834 | 67 | 158 | 0.9 | 2.6 | 0.49 | 4.63 | 3.13 | 90 | 1011.2 |
| 20260509210721 | 67 | 157 | 0.0 | 2.6 | 0.48 | 4.62 | 3.12 | 90 | 1011.2 |
| 20260509210629 | 67 | 157 | 0.0 | 2.6 | 0.48 | 4.62 | 3.12 | 90 | 1011.2 |
| 20260509210523 | 67 | 156 | 0.0 | 2.6 | 0.47 | 4.61 | 3.11 | 90 | 1011.2 |
| 20260509210438 | 67 | 156 | 0.0 | 2.6 | 0.47 | 4.61 | 3.11 | 90 | 1011.3 |
| 20260509210325 | 67 | 156 | 0.0 | 2.6 | 0.47 | 4.61 | 3.11 | 90 | 1011.3 |
| 20260509210223 | 68 | 176 | 0.9 | 2.6 | 0.46 | 4.60 | 3.10 | 90 | 1011.4 |
| 20260509210136 | 68 | 176 | 0.9 | 2.6 | 0.45 | 4.59 | 3.09 | 90 | 1011.5 |
| 20260509210057 | 68 | 177 | 0.0 | 2.6 | 0.45 | 4.59 | 3.09 | 90 | 1011.6 |
| 20260509205923 | 67 | 178 | 0.0 | 2.6 | 0.44 | 4.58 | 3.08 | 90 | 1011.6 |
| 20260509205837 | 68 | 178 | 0.0 | 2.6 | 0.43 | 4.57 | 3.07 | 90 | 1011.7 |
| 20260509205724 | 68 | 178 | 0.0 | 2.6 | 0.43 | 4.57 | 3.07 | 90 | 1011.6 |
| 20260509205648 | 68 | 178 | 0.0 | 2.6 | 0.43 | 4.56 | 3.06 | 90 | 1011.7 |
| 20260509205526 | 68 | 178 | 0.9 | 2.6 | 0.42 | 4.55 | 3.05 | 90 | 1011.7 |
| 20260509205434 | 68 | 178 | 0.9 | 2.6 | 0.42 | 4.55 | 3.05 | 90 | 1011.7 |
| 20260509205323 | 68 | 139 | 0.9 | 2.6 | 0.41 | 4.54 | 3.04 | 90 | 1011.7 |
| 20260509205218 | 68 | 52 | 0.9 | 2.6 | 0.40 | 4.53 | 3.03 | 90 | 1011.7 |
| 20260509205131 | 68 | 52 | 0.9 | 2.6 | 0.41 | 4.53 | 3.03 | 90 | 1011.7 |
| 20260509205028 | 68 | 50 | 0.9 | 1.7 | 0.40 | 4.52 | 3.02 | 90 | 1011.8 |
| 20260509204918 | 68 | 49 | 0.0 | 1.7 | 0.39 | 4.51 | 3.01 | 90 | 1011.8 |
| 20260509204831 | 68 | 40 | 0.0 | 1.7 | 0.39 | 4.51 | 3.01 | 90 | 1011.8 |
| 20260509204748 | 68 | 38 | 0.0 | 1.7 | 0.38 | 4.50 | 3.00 | 90 | 1011.8 |
| 20260509204640 | 68 | 38 | 0.0 | 1.7 | 0.39 | 4.50 | 3.00 | 90 | 1011.9 |
| 20260509204536 | 68 | 38 | 0.0 | 1.7 | 0.38 | 4.49 | 2.99 | 90 | 1011.9 |
| 20260509204426 | 68 | 38 | 0.0 | 1.7 | 0.37 | 4.48 | 2.98 | 90 | 1011.9 |
| 20260509204339 | 68 | 38 | 0.0 | 1.7 | 0.36 | 4.47 | 2.97 | 90 | 1011.9 |
| 20260509204226 | 68 | 38 | 0.0 | 1.7 | 0.37 | 4.47 | 2.97 | 90 | 1011.8 |
| 20260509204141 | 68 | 38 | 0.0 | 1.7 | 0.36 | 4.46 | 2.96 | 90 | 1011.8 |
| 20260509204044 | 68 | 38 | 0.0 | 1.7 | 0.36 | 4.45 | 2.95 | 90 | 1011.8 |
| 20260509203930 | 68 | 37 | 0.0 | 0.9 | 0.35 | 4.44 | 2.94 | 90 | 1011.8 |
| 20260509203821 | 68 | 35 | 0.0 | 0.9 | 0.32 | 4.41 | 2.91 | 90 | 1011.8 |
| 20260509203740 | 68 | 34 | 0.0 | 0.9 | 0.29 | 4.38 | 2.88 | 90 | 1011.8 |
| 20260509203631 | 68 | 32 | 0.0 | 0.9 | 0.25 | 4.34 | 2.84 | 90 | 1011.8 |
| 20260509203554 | 68 | 31 | 0.0 | 0.9 | 0.21 | 4.28 | 2.78 | 90 | 1011.8 |
| 20260509203439 | 68 | 29 | 0.0 | 0.0 | 0.17 | 4.24 | 2.74 | 90 | 1011.9 |
| 20260509203334 | 68 | 28 | 0.0 | 0.0 | 0.14 | 4.20 | 2.70 | 90 | 1011.9 |
| 20260509203222 | 68 | 28 | 0.0 | 0.0 | 0.13 | 4.19 | 2.69 | 90 | 1012.0 |
| 20260509203208 | 68 | 28 | 0.0 | 0.0 | 0.14 | 4.19 | 2.69 | 90 | 1012.0 |
| 20260509203022 | 68 | 28 | 0.0 | 0.0 | 0.14 | 4.18 | 2.68 | 90 | 1012.0 |
| 20260509202927 | 68 | 28 | 0.0 | 0.0 | 0.14 | 4.18 | 2.68 | 90 | 1012.1 |
| 20260509202902 | 68 | 28 | 0.0 | 0.0 | 0.15 | 4.18 | 2.68 | 90 | 1012.0 |
| 20260509202727 | 68 | 28 | 0.0 | 0.9 | 0.14 | 4.17 | 2.67 | 90 | 1012.1 |
| 20260509202648 | 68 | 28 | 0.0 | 0.9 | 0.14 | 4.17 | 2.67 | 90 | 1012.1 |
| 20260509202523 | 68 | 28 | 0.0 | 0.9 | 0.14 | 4.16 | 2.66 | 90 | 1012.0 |
| 20260509202437 | 68 | 28 | 0.0 | 0.9 | 0.14 | 4.16 | 2.66 | 90 | 1012.0 |
| 20260509202325 | 68 | 28 | 0.0 | 0.9 | 0.14 | 4.16 | 2.66 | 90 | 1012.0 |
| 20260509202221 | 68 | 28 | 0.0 | 0.9 | 0.15 | 4.16 | 2.66 | 90 | 1011.9 |
| 20260509202137 | 68 | 28 | 0.0 | 0.9 | 0.14 | 4.15 | 2.65 | 90 | 1011.9 |
| 20260509202053 | 68 | 28 | 0.0 | 0.9 | 0.15 | 4.15 | 2.65 | 90 | 1011.8 |
| 20260509201918 | 68 | 28 | 0.0 | 0.9 | 0.16 | 4.15 | 2.65 | 90 | 1011.8 |
| 20260509201832 | 68 | 28 | 0.0 | 0.9 | 0.17 | 4.15 | 2.65 | 90 | 1011.8 |
| 20260509201719 | 68 | 28 | 0.0 | 0.0 | 0.18 | 4.15 | 2.65 | 90 | 1011.9 |
| 20260509201637 | 68 | 28 | 0.0 | 0.0 | 0.19 | 4.15 | 2.65 | 90 | 1011.8 |
| 20260509201523 | 68 | 28 | 0.0 | 0.9 | 0.18 | 4.14 | 2.64 | 90 | 1011.9 |
| 20260509201448 | 68 | 28 | 0.0 | 0.9 | 0.19 | 4.14 | 2.64 | 90 | 1011.9 |
| 20260509201342 | 68 | 28 | 0.0 | 0.9 | 0.20 | 4.14 | 2.64 | 90 | 1011.9 |
| 20260509201228 | 68 | 28 | 0.0 | 0.9 | 0.21 | 4.14 | 2.64 | 90 | 1011.8 |
| 20260509201145 | 68 | 28 | 0.0 | 0.9 | 0.23 | 4.14 | 2.64 | 90 | 1011.7 |
| 20260509201048 | 68 | 28 | 0.0 | 0.9 | 0.24 | 4.14 | 2.64 | 90 | 1011.7 |
| 20260509200918 | 68 | 28 | 0.0 | 0.9 | 0.24 | 4.14 | 2.64 | 90 | 1011.6 |
| 20260509200823 | 68 | 28 | 0.0 | 2.6 | 0.24 | 4.37 | 2.64 | 90 | 1011.6 |
| 20260509200720 | 68 | 28 | 0.0 | 3.5 | 0.25 | 4.37 | 2.64 | 90 | 1011.5 |
| 20260509200633 | 68 | 28 | 0.0 | 3.5 | 0.25 | 4.37 | 2.64 | 90 | 1011.6 |
| 20260509200527 | 68 | 28 | 0.0 | 3.5 | 0.25 | 4.37 | 2.64 | 90 | 1011.5 |
| 20260509200418 | 68 | 26 | 0.0 | 3.5 | 0.26 | 4.37 | 2.64 | 90 | 1011.5 |
| 20260509200331 | 68 | 26 | 0.0 | 3.5 | 0.26 | 4.37 | 2.64 | 90 | 1011.4 |
| 20260509200248 | 68 | 26 | 0.0 | 3.5 | 0.26 | 4.37 | 2.64 | 90 | 1011.4 |
| 20260509200140 | 68 | 26 | 0.0 | 3.5 | 0.27 | 4.37 | 2.64 | 90 | 1011.3 |
| 20260509200035 | 68 | 26 | 0.9 | 3.5 | 0.28 | 4.37 | 2.64 | 90 | 1011.3 |
| 20260509195921 | 68 | 26 | 0.9 | 3.5 | 0.29 | 4.37 | 2.64 | 90 | 1011.2 |
| 20260509195838 | 68 | 132 | 0.9 | 1.7 | 0.31 | 4.37 | 2.64 | 90 | 1011.1 |
| 20260509195724 | 68 | 144 | 0.0 | 1.7 | 0.33 | 4.36 | 2.63 | 90 | 1011.0 |
| 20260509195639 | 68 | 144 | 0.0 | 1.7 | 0.41 | 4.36 | 2.63 | 90 | 1011.0 |
| 20260509195542 | 68 | 152 | 0.0 | 1.7 | 0.49 | 4.36 | 2.63 | 90 | 1010.9 |
| 20260509195429 | 68 | 152 | 0.0 | 1.7 | 0.54 | 4.36 | 2.63 | 90 | 1010.9 |
| 20260509195321 | 68 | 152 | 0.0 | 0.9 | 0.55 | 4.36 | 2.63 | 90 | 1010.9 |
| 20260509195218 | 68 | 152 | 0.0 | 0.9 | 0.55 | 4.35 | 2.62 | 90 | 1010.9 |
| 20260509195151 | 68 | 153 | 0.0 | 0.9 | 0.55 | 4.35 | 2.62 | 90 | 1011.0 |
| 20260509195026 | 68 | 153 | 0.0 | 0.9 | 0.56 | 4.35 | 2.62 | 90 | 1011.0 |
| 20260509194940 | 68 | 153 | 0.0 | 0.9 | 0.56 | 4.35 | 2.62 | 90 | 1011.0 |
| 20260509194826 | 68 | 153 | 0.0 | 0.9 | 0.57 | 4.35 | 2.62 | 90 | 1011.0 |
| 20260509194718 | 68 | 153 | 0.0 | 0.9 | 0.56 | 4.34 | 2.61 | 90 | 1011.0 |
| 20260509194633 | 68 | 153 | 0.0 | 0.9 | 0.56 | 4.34 | 2.61 | 90 | 1011.0 |
| 20260509194555 | 68 | 153 | 0.0 | 0.9 | 0.57 | 4.34 | 2.61 | 90 | 1011.1 |
| 20260509194449 | 68 | 153 | 0.0 | 0.9 | 0.57 | 4.34 | 2.61 | 90 | 1011.1 |
| 20260509194355 | 68 | 153 | 0.0 | 2.6 | 0.57 | 4.33 | 2.60 | 90 | 1011.2 |
| 20260509194220 | 68 | 153 | 0.0 | 2.6 | 0.57 | 4.33 | 2.60 | 90 | 1011.2 |
| 20260509194144 | 68 | 153 | 0.0 | 2.6 | 0.58 | 4.33 | 2.60 | 90 | 1011.3 |
| 20260509194024 | 68 | 153 | 0.0 | 2.6 | 0.57 | 4.32 | 2.59 | 90 | 1011.3 |
| 20260509193931 | 68 | 153 | 0.0 | 2.6 | 0.58 | 4.32 | 2.59 | 90 | 1011.4 |
| 20260509193817 | 68 | 153 | 0.0 | 2.6 | 0.58 | 4.32 | 2.59 | 90 | 1011.5 |
| 20260509193729 | 68 | 153 | 0.0 | 2.6 | 0.58 | 4.32 | 2.59 | 90 | 1011.6 |
| 20260509193713 | 68 | 153 | 0.9 | 2.6 | 0.57 | 4.31 | 2.58 | 90 | 1011.7 |
| 20260509193532 | 68 | 103 | 0.9 | 2.6 | 0.57 | 4.30 | 2.57 | 90 | 1011.7 |
| 20260509193419 | 68 | 94 | 0.9 | 2.6 | 0.56 | 4.29 | 2.56 | 90 | 1011.8 |
| 20260509193346 | 68 | 92 | 0.9 | 2.6 | 0.56 | 4.29 | 2.56 | 90 | 1011.8 |
| 20260509193221 | 68 | 147 | 0.0 | 1.7 | 0.55 | 4.28 | 2.55 | 90 | 1011.8 |
| 20260509193136 | 68 | 147 | 0.0 | 1.7 | 0.54 | 4.27 | 2.54 | 90 | 1011.8 |
| 20260509193038 | 68 | 146 | 0.0 | 1.7 | 0.54 | 4.27 | 2.54 | 90 | 1011.7 |
| 20260509192929 | 68 | 146 | 0.0 | 7.8 | 0.54 | 4.27 | 2.54 | 90 | 1011.6 |
| 20260509192856 | 68 | 146 | 0.0 | 7.8 | 0.53 | 4.26 | 2.53 | 90 | 1011.6 |
| 20260509192721 | 68 | 146 | 0.0 | 7.8 | 0.53 | 4.26 | 2.53 | 90 | 1011.6 |
| 20260509192645 | 68 | 146 | 0.0 | 7.8 | 0.54 | 4.26 | 2.53 | 90 | 1011.6 |
| 20260509192540 | 68 | 146 | 0.9 | 7.8 | 0.53 | 4.25 | 2.52 | 90 | 1011.6 |
| 20260509192432 | 68 | 146 | 0.9 | 7.8 | 0.53 | 4.25 | 2.52 | 90 | 1011.7 |
| 20260509192322 | 68 | 153 | 1.7 | 7.8 | 0.52 | 4.24 | 2.51 | 90 | 1011.7 |
| 20260509192221 | 68 | 153 | 1.7 | 7.8 | 0.52 | 4.24 | 2.51 | 90 | 1011.8 |
| 20260509192132 | 68 | 153 | 2.6 | 7.8 | 0.51 | 4.23 | 2.50 | 90 | 1011.9 |
| 20260509192027 | 68 | 107 | 1.7 | 4.3 | 0.50 | 4.22 | 2.49 | 90 | 1011.9 |
| 20260509191940 | 68 | 140 | 0.9 | 4.3 | 0.49 | 4.21 | 2.48 | 90 | 1012.0 |
| 20260509191828 | 68 | 142 | 0.9 | 4.3 | 0.48 | 4.20 | 2.47 | 90 | 1012.0 |
| 20260509191718 | 68 | 143 | 0.9 | 4.3 | 0.47 | 4.19 | 2.46 | 90 | 1012.0 |
| 20260509191643 | 68 | 143 | 0.9 | 4.3 | 0.47 | 4.19 | 2.46 | 90 | 1012.1 |
| 20260509191520 | 68 | 222 | 1.7 | 4.3 | 0.46 | 4.18 | 2.45 | 90 | 1012.0 |
| 20260509191424 | 68 | 225 | 1.7 | 4.3 | 0.45 | 4.17 | 2.44 | 90 | 1012.0 |
| 20260509191359 | 68 | 140 | 1.7 | 4.3 | 0.44 | 4.16 | 2.43 | 90 | 1012.0 |
| 20260509191238 | 68 | 117 | 0.9 | 6.1 | 0.42 | 4.14 | 2.41 | 90 | 1012.1 |
| 20260509191128 | 68 | 141 | 0.9 | 6.1 | 0.41 | 4.13 | 2.40 | 90 | 1012.2 |
| 20260509191024 | 68 | 141 | 0.9 | 6.1 | 0.41 | 4.13 | 2.40 | 90 | 1012.3 |
| 20260509190959 | 68 | 137 | 0.0 | 6.1 | 0.41 | 4.13 | 2.40 | 90 | 1012.4 |
| 20260509190825 | 68 | 134 | 0.0 | 6.1 | 0.40 | 5.63 | 2.39 | 90 | 1012.4 |
| 20260509190722 | 68 | 134 | 0.0 | 6.1 | 0.40 | 5.63 | 2.39 | 90 | 1012.4 |
| 20260509190656 | 68 | 134 | 0.9 | 6.1 | 0.40 | 5.63 | 2.39 | 90 | 1012.4 |
| 20260509190536 | 68 | 134 | 1.7 | 6.1 | 0.39 | 5.62 | 2.38 | 90 | 1012.3 |
| 20260509190422 | 68 | 159 | 1.7 | 6.1 | 0.39 | 5.62 | 2.38 | 90 | 1012.2 |
| 20260509190336 | 68 | 137 | 1.7 | 6.1 | 0.39 | 5.62 | 2.38 | 90 | 1012.0 |
| 20260509190244 | 68 | 208 | 1.7 | 6.1 | 0.38 | 5.61 | 2.37 | 90 | 1011.9 |
| 20260509190146 | 68 | 115 | 2.6 | 6.1 | 0.38 | 5.61 | 2.37 | 90 | 1011.9 |
| 20260509190041 | 68 | 166 | 1.7 | 6.1 | 0.36 | 5.59 | 2.35 | 90 | 1011.9 |
| 20260509185931 | 68 | 216 | 1.7 | 3.5 | 0.35 | 5.58 | 2.34 | 90 | 1011.9 |
| 20260509185844 | 68 | 123 | 1.7 | 3.5 | 0.33 | 5.56 | 2.32 | 90 | 1011.9 |
| 20260509185741 | 68 | 148 | 0.9 | 3.5 | 0.23 | 5.46 | 2.22 | 90 | 1011.9 |
| 20260509185633 | 68 | 126 | 0.9 | 2.6 | 0.17 | 5.40 | 2.16 | 90 | 1011.9 |
| 20260509185528 | 68 | 126 | 0.0 | 2.6 | 0.11 | 5.34 | 2.10 | 90 | 1012.1 |
| 20260509185418 | 68 | 255 | 0.0 | 2.6 | 0.09 | 5.32 | 2.08 | 90 | 1012.2 |
| 20260509185332 | 68 | 255 | 0.0 | 2.6 | 0.09 | 5.32 | 2.08 | 90 | 1012.5 |
| 20260509185219 | 68 | 255 | 0.0 | 3.5 | 0.08 | 5.31 | 2.07 | 90 | 1012.6 |
| 20260509185135 | 68 | 255 | 0.0 | 3.5 | 0.07 | 5.30 | 2.06 | 90 | 1012.7 |
| 20260509185057 | 68 | 255 | 0.0 | 3.5 | 0.07 | 5.30 | 2.06 | 90 | 1012.7 |
| 20260509184943 | 68 | 255 | 0.0 | 3.5 | 0.06 | 5.29 | 2.05 | 90 | 1012.7 |
| 20260509184836 | 68 | 255 | 0.0 | 3.5 | 0.06 | 5.29 | 2.05 | 90 | 1012.7 |
| 20260509184725 | 68 | 259 | 0.9 | 3.5 | 0.06 | 5.29 | 2.05 | 90 | 1012.6 |
| 20260509184628 | 68 | 149 | 0.9 | 3.5 | 0.05 | 5.28 | 2.04 | 90 | 1012.5 |
| 20260509184543 | 68 | 148 | 1.7 | 3.5 | 0.05 | 5.28 | 2.04 | 90 | 1012.4 |
| 20260509184435 | 68 | 148 | 1.7 | 3.5 | 0.04 | 5.27 | 2.03 | 90 | 1012.4 |
| 20260509184321 | 68 | 113 | 0.9 | 6.1 | 0.04 | 5.27 | 2.03 | 90 | 1012.4 |
| 20260509184218 | 68 | 143 | 0.9 | 6.1 | 0.03 | 5.26 | 2.02 | 90 | 1012.4 |
| 20260509184135 | 68 | 143 | 0.9 | 6.1 | 0.03 | 5.26 | 2.02 | 90 | 1012.4 |
| 20260509184029 | 68 | 143 | 0.9 | 6.1 | 0.03 | 5.26 | 2.02 | 90 | 1012.4 |
| 20260509183943 | 68 | 143 | 0.9 | 6.1 | 0.02 | 5.25 | 2.01 | 90 | 1012.4 |
| 20260509183831 | 68 | 142 | 0.9 | 6.1 | 0.02 | 5.25 | 2.01 | 90 | 1012.3 |
| 20260509183746 | 68 | 138 | 1.7 | 6.1 | 0.02 | 5.25 | 2.01 | 90 | 1012.3 |
| 20260509183658 | 68 | 146 | 1.7 | 6.1 | 0.01 | 5.24 | 2.00 | 90 | 1012.3 |
| 20260509183541 | 68 | 144 | 1.7 | 6.1 | 0.01 | 5.24 | 2.00 | 90 | 1012.2 |
| 20260509183429 | 68 | 148 | 0.9 | 4.3 | 0.01 | 5.24 | 2.00 | 90 | 1012.1 |
| 20260509183336 | 68 | 148 | 0.9 | 4.3 | 0.01 | 5.24 | 2.00 | 90 | 1012.0 |
| 20260509183222 | 68 | 164 | 0.0 | 4.3 | 0.01 | 5.24 | 2.00 | 90 | 1012.1 |
| 20260509183146 | 68 | 164 | 0.0 | 4.3 | 0.01 | 5.24 | 2.00 | 90 | 1012.1 |
| 20260509183026 | 68 | 165 | 0.0 | 4.3 | 0.01 | 5.24 | 2.00 | 90 | 1012.2 |
| 20260509182932 | 68 | 165 | 0.9 | 4.3 | 0.01 | 5.24 | 2.00 | 90 | 1012.2 |
| 20260509182818 | 68 | 165 | 0.9 | 4.3 | 0.01 | 5.24 | 2.00 | 90 | 1012.2 |
| 20260509182723 | 68 | 172 | 0.0 | 1.7 | 0.00 | 5.23 | 1.99 | 90 | 1012.2 |
| 20260509182646 | 68 | 172 | 0.0 | 1.7 | 0.00 | 5.23 | 1.99 | 90 | 1012.1 |
| 20260509182520 | 68 | 172 | 0.9 | 2.6 | 0.00 | 5.23 | 1.99 | 90 | 1012.0 |
| 20260509182457 | 68 | 172 | 0.9 | 2.6 | 0.00 | 5.23 | 1.99 | 90 | 1011.9 |
| 20260509182323 | 68 | 113 | 0.0 | 2.6 | 0.00 | 5.23 | 1.99 | 90 | 1011.9 |
| 20260509182221 | 68 | 113 | 0.0 | 2.6 | 0.00 | 5.23 | 1.99 | 90 | 1012.0 |
| 20260509182134 | 68 | 113 | 0.0 | 2.6 | 0.00 | 5.23 | 1.99 | 90 | 1012.0 |
| 20260509182028 | 68 | 113 | 0.0 | 2.6 | 0.00 | 5.23 | 1.99 | 90 | 1012.1 |
| 20260509182003 | 68 | 113 | 0.0 | 2.6 | 0.00 | 5.23 | 1.99 | 90 | 1012.1 |
| 20260509181832 | 68 | 110 | 0.9 | 2.6 | 0.00 | 5.23 | 1.99 | 90 | 1012.2 |
| 20260509181718 | 68 | 110 | 0.9 | 2.6 | 0.00 | 5.23 | 1.99 | 90 | 1012.3 |
| 20260509181642 | 68 | 110 | 0.9 | 2.6 | 0.01 | 5.23 | 1.99 | 90 | 1012.3 |
| 20260509181539 | 68 | 119 | 0.9 | 2.6 | 0.01 | 5.23 | 1.99 | 90 | 1012.4 |
| 20260509181425 | 68 | 134 | 0.0 | 4.3 | 0.01 | 5.23 | 1.99 | 90 | 1012.4 |
| 20260509181338 | 68 | 134 | 0.9 | 4.3 | 0.01 | 5.23 | 1.99 | 90 | 1012.5 |
| 20260509181240 | 68 | 134 | 0.9 | 4.3 | 0.01 | 5.23 | 1.99 | 90 | 1012.6 |
| 20260509181132 | 68 | 134 | 0.9 | 4.3 | 0.01 | 5.23 | 1.99 | 90 | 1012.6 |
| 20260509181027 | 68 | 134 | 0.9 | 4.3 | 0.01 | 5.23 | 1.99 | 90 | 1012.6 |
| 20260509181002 | 68 | 134 | 0.9 | 4.3 | 0.01 | 5.23 | 1.99 | 90 | 1012.6 |
| 20260509180827 | 68 | 134 | 0.0 | 4.3 | 0.01 | 6.23 | 1.99 | 90 | 1012.6 |
| 20260509180718 | 68 | 134 | 0.9 | 4.3 | 0.01 | 6.23 | 1.99 | 90 | 1012.5 |
| 20260509180642 | 68 | 134 | 0.9 | 4.3 | 0.01 | 6.23 | 1.99 | 90 | 1012.4 |
| 20260509180555 | 68 | 134 | 1.7 | 4.3 | 0.01 | 6.23 | 1.99 | 90 | 1012.4 |
| 20260509180449 | 68 | 38 | 0.9 | 1.7 | 0.01 | 6.23 | 1.99 | 90 | 1012.3 |
| 20260509180335 | 68 | 38 | 0.9 | 1.7 | 0.01 | 6.23 | 1.99 | 90 | 1012.3 |
| 20260509180222 | 68 | 38 | 0.9 | 1.7 | 0.01 | 6.23 | 1.99 | 90 | 1012.2 |
| 20260509180129 | 68 | 38 | 0.0 | 0.9 | 0.01 | 6.23 | 1.99 | 90 | 1012.1 |
| 20260509180024 | 68 | 38 | 0.0 | 0.9 | 0.01 | 6.23 | 1.99 | 90 | 1012.1 |
| 20260509175958 | 68 | 38 | 0.0 | 0.9 | 0.01 | 6.23 | 1.99 | 90 | 1012.0 |
| 20260509175825 | 68 | 38 | 0.0 | 0.9 | 0.01 | 6.23 | 1.99 | 90 | 1011.9 |
| 20260509175721 | 68 | 38 | 0.0 | 1.7 | 0.01 | 6.23 | 1.99 | 90 | 1011.9 |
| 20260509175654 | 68 | 38 | 0.0 | 1.7 | 0.01 | 6.23 | 1.99 | 90 | 1011.8 |
| 20260509175534 | 68 | 38 | 0.0 | 1.7 | 0.01 | 6.23 | 1.99 | 90 | 1011.8 |
| 20260509175422 | 68 | 38 | 0.0 | 1.7 | 0.01 | 6.23 | 1.99 | 90 | 1011.8 |
| 20260509175330 | 68 | 38 | 0.0 | 1.7 | 0.01 | 6.23 | 1.99 | 90 | 1011.8 |
| 20260509175224 | 68 | 38 | 0.0 | 1.7 | 0.01 | 6.23 | 1.99 | 90 | 1011.7 |
| 20260509175137 | 68 | 38 | 0.0 | 1.7 | 0.01 | 6.23 | 1.99 | 90 | 1011.7 |
| 20260509175017 | 68 | 38 | 0.0 | 1.7 | 0.01 | 6.23 | 1.99 | 90 | 1011.7 |
| 20260509174923 | 68 | 38 | 0.0 | 1.7 | 0.01 | 6.23 | 1.99 | 90 | 1011.7 |
| 20260509174837 | 68 | 38 | 0.0 | 1.7 | 0.01 | 6.23 | 1.99 | 90 | 1011.8 |
| 20260509174722 | 68 | 38 | 0.0 | 1.7 | 0.01 | 6.23 | 1.99 | 90 | 1011.8 |
| 20260509174646 | 68 | 38 | 0.0 | 1.7 | 0.01 | 6.23 | 1.99 | 90 | 1011.7 |
| 20260509174521 | 68 | 38 | 0.9 | 1.7 | 0.01 | 6.23 | 1.99 | 90 | 1011.7 |
| 20260509174454 | 68 | 38 | 0.9 | 1.7 | 0.01 | 6.23 | 1.99 | 90 | 1011.8 |
| 20260509174324 | 68 | 36 | 0.0 | 1.7 | 0.01 | 6.23 | 1.99 | 90 | 1011.7 |
| 20260509174242 | 68 | 36 | 0.0 | 1.7 | 0.01 | 6.23 | 1.99 | 90 | 1011.7 |
| 20260509174133 | 68 | 36 | 0.0 | 1.7 | 0.01 | 6.23 | 1.99 | 90 | 1011.8 |
| 20260509174036 | 68 | 36 | 0.0 | 1.7 | 0.01 | 6.23 | 1.99 | 90 | 1011.8 |
| 20260509173944 | 68 | 36 | 0.0 | 3.5 | 0.01 | 6.23 | 1.99 | 90 | 1011.8 |
| 20260509173858 | 68 | 36 | 0.0 | 3.5 | 0.01 | 6.23 | 1.99 | 90 | 1011.7 |
| 20260509173737 | 68 | 36 | 0.0 | 3.5 | 0.01 | 6.23 | 1.99 | 90 | 1011.6 |
| 20260509173628 | 68 | 36 | 0.0 | 3.5 | 0.01 | 6.23 | 1.99 | 90 | 1011.6 |
| 20260509173524 | 68 | 36 | 0.0 | 3.5 | 0.01 | 6.23 | 1.99 | 90 | 1011.6 |
| 20260509173432 | 68 | 36 | 0.0 | 3.5 | 0.01 | 6.23 | 1.99 | 90 | 1011.5 |
| 20260509173320 | 68 | 36 | 0.9 | 3.5 | 0.01 | 6.23 | 1.99 | 90 | 1011.6 |
| 20260509173244 | 68 | 36 | 0.9 | 3.5 | 0.01 | 6.23 | 1.99 | 90 | 1011.6 |
| 20260509173140 | 68 | 36 | 0.9 | 3.5 | 0.01 | 6.23 | 1.99 | 90 | 1011.6 |
| 20260509173035 | 68 | 244 | 0.0 | 3.5 | 0.01 | 6.23 | 1.99 | 90 | 1011.6 |
| 20260509172923 | 68 | 244 | 0.0 | 3.5 | 0.01 | 6.23 | 1.99 | 90 | 1011.6 |
| 20260509172830 | 68 | 238 | 0.0 | 3.5 | 0.01 | 6.23 | 1.99 | 90 | 1011.6 |
| 20260509172725 | 68 | 98 | 0.0 | 3.5 | 0.01 | 6.23 | 1.99 | 90 | 1011.6 |
| 20260509172639 | 68 | 98 | 0.0 | 3.5 | 0.01 | 6.23 | 1.99 | 90 | 1011.7 |
| 20260509172518 | 68 | 98 | 0.0 | 3.5 | 0.01 | 6.23 | 1.99 | 90 | 1011.7 |
| 20260509172432 | 68 | 98 | 0.0 | 3.5 | 0.01 | 6.23 | 1.99 | 90 | 1011.7 |
| 20260509172320 | 68 | 98 | 0.9 | 3.5 | 0.01 | 6.23 | 1.99 | 90 | 1011.8 |
| 20260509172217 | 68 | 98 | 0.9 | 3.5 | 0.01 | 6.23 | 1.99 | 90 | 1011.8 |
| 20260509172151 | 68 | 95 | 0.0 | 2.6 | 0.01 | 6.23 | 1.99 | 90 | 1011.8 |
| 20260509172031 | 68 | 94 | 0.0 | 2.6 | 0.01 | 6.23 | 1.99 | 90 | 1011.8 |
| 20260509171936 | 68 | 94 | 0.9 | 2.6 | 0.01 | 6.23 | 1.99 | 90 | 1011.8 |
| 20260509171823 | 68 | 94 | 0.9 | 2.6 | 0.01 | 6.23 | 1.99 | 90 | 1011.8 |
| 20260509171739 | 68 | 88 | 0.0 | 1.7 | 0.00 | 6.22 | 1.98 | 90 | 1011.9 |
| 20260509171633 | 68 | 88 | 0.0 | 1.7 | 0.00 | 6.22 | 1.98 | 90 | 1011.8 |
| 20260509171535 | 68 | 88 | 0.0 | 2.6 | 0.00 | 6.22 | 1.98 | 90 | 1011.8 |
| 20260509171425 | 68 | 88 | 0.0 | 2.6 | 0.00 | 6.22 | 1.98 | 90 | 1011.7 |
| 20260509171333 | 68 | 88 | 0.0 | 2.6 | 0.00 | 6.22 | 1.98 | 90 | 1011.7 |
| 20260509171219 | 68 | 86 | 0.0 | 2.6 | 0.01 | 6.22 | 1.98 | 90 | 1011.7 |
| 20260509171143 | 68 | 86 | 0.0 | 2.6 | 0.01 | 6.22 | 1.98 | 90 | 1011.8 |
| 20260509171018 | 68 | 86 | 0.0 | 2.6 | 0.01 | 6.22 | 1.98 | 90 | 1011.8 |
| 20260509170929 | 68 | 86 | 0.0 | 2.6 | 0.01 | 6.22 | 1.98 | 90 | 1011.8 |
| 20260509170843 | 68 | 86 | 0.9 | 2.6 | 0.01 | 7.23 | 1.98 | 90 | 1011.8 |
| 20260509170741 | 68 | 86 | 0.9 | 2.6 | 0.01 | 7.23 | 1.98 | 90 | 1011.8 |
| 20260509170631 | 68 | 84 | 0.0 | 2.6 | 0.01 | 7.23 | 1.98 | 90 | 1011.8 |
| 20260509170555 | 68 | 69 | 0.0 | 2.6 | 0.01 | 7.23 | 1.98 | 90 | 1011.8 |
| 20260509170420 | 68 | 69 | 0.0 | 2.6 | 0.01 | 7.23 | 1.98 | 90 | 1011.9 |
| 20260509170354 | 68 | 69 | 0.0 | 2.6 | 0.01 | 7.23 | 1.98 | 90 | 1011.9 |
| 20260509170244 | 68 | 69 | 0.9 | 2.6 | 0.01 | 7.23 | 1.98 | 90 | 1012.0 |
| 20260509170147 | 68 | 69 | 0.9 | 2.6 | 0.01 | 7.23 | 1.98 | 90 | 1012.0 |
| 20260509170023 | 68 | 59 | 0.0 | 2.6 | 0.01 | 7.23 | 1.98 | 90 | 1012.1 |
| 20260509165930 | 68 | 59 | 0.0 | 2.6 | 0.01 | 7.23 | 1.98 | 90 | 1012.2 |
| 20260509165817 | 68 | 59 | 0.0 | 2.6 | 0.01 | 7.23 | 1.98 | 90 | 1012.2 |
| 20260509165719 | 68 | 59 | 0.0 | 2.6 | 0.01 | 7.23 | 1.98 | 90 | 1012.2 |
| 20260509165630 | 67 | 59 | 0.0 | 2.6 | 0.01 | 7.23 | 1.98 | 90 | 1012.2 |
| 20260509165525 | 67 | 59 | 0.0 | 2.6 | 0.01 | 7.23 | 1.98 | 90 | 1012.1 |
| 20260509165439 | 67 | 59 | 0.0 | 2.6 | 0.01 | 7.23 | 1.98 | 90 | 1012.1 |
| 20260509165346 | 67 | 59 | 0.0 | 2.6 | 0.01 | 7.23 | 1.98 | 90 | 1012.1 |
| 20260509165222 | 67 | 57 | 0.0 | 0.9 | 0.02 | 7.23 | 1.98 | 90 | 1012.1 |
| 20260509165138 | 67 | 57 | 0.0 | 0.9 | 0.02 | 7.23 | 1.98 | 90 | 1012.1 |
| 20260509165035 | 67 | 57 | 0.0 | 0.9 | 0.02 | 7.23 | 1.98 | 90 | 1012.0 |
| 20260509164923 | 67 | 57 | 0.0 | 0.9 | 0.02 | 7.23 | 1.98 | 90 | 1012.0 |
| 20260509164855 | 67 | 57 | 0.0 | 0.9 | 0.02 | 7.23 | 1.98 | 90 | 1012.0 |
| 20260509164720 | 67 | 57 | 0.0 | 0.9 | 0.02 | 7.23 | 1.98 | 90 | 1012.0 |
| 20260509164644 | 67 | 57 | 0.0 | 0.9 | 0.02 | 7.23 | 1.98 | 90 | 1012.0 |
| 20260509164524 | 67 | 57 | 0.0 | 1.7 | 0.02 | 7.23 | 1.98 | 90 | 1012.0 |
| 20260509164432 | 67 | 57 | 0.0 | 1.7 | 0.02 | 7.23 | 1.98 | 90 | 1011.9 |